<?xml version='1.0' encoding='UTF-8'?>
<gpx version="1.1" creator="https://www.komoot.de" xmlns="http://www.topografix.com/GPX/1/1" xmlns:xsi="http://www.w3.org/2001/XMLSchema-instance" xsi:schemaLocation="http://www.topografix.com/GPX/1/1 http://www.topografix.com/GPX/1/1/gpx.xsd">
  <metadata>
    <name>75_1270SulzerbergBinzgen</name>
    <author>
      <link href="https://www.komoot.de">
        <text>komoot</text>
        <type>text/html</type>
      </link>
    </author>
  </metadata>
  <trk>
    <name>75_1270SulzerbergBinzgen</name>
    <trkseg>
      <trkpt lat="47.541359" lon="7.870833">
        <ele>341.006190</ele>
        <time>2021-11-21T09:15:50.025Z</time>
      </trkpt>
      <trkpt lat="47.541410" lon="7.870791">
        <ele>341.006190</ele>
        <time>2021-11-21T09:15:50.878Z</time>
      </trkpt>
      <trkpt lat="47.541576" lon="7.870664">
        <ele>341.006190</ele>
        <time>2021-11-21T09:15:55.021Z</time>
      </trkpt>
      <trkpt lat="47.541796" lon="7.871042">
        <ele>341.006190</ele>
        <time>2021-11-21T09:16:02.123Z</time>
      </trkpt>
      <trkpt lat="47.541953" lon="7.871286">
        <ele>341.006190</ele>
        <time>2021-11-21T09:16:06.946Z</time>
      </trkpt>
      <trkpt lat="47.542039" lon="7.871556">
        <ele>341.428652</ele>
        <time>2021-11-21T09:16:11.329Z</time>
      </trkpt>
      <trkpt lat="47.542067" lon="7.871664">
        <ele>341.723599</ele>
        <time>2021-11-21T09:16:13.011Z</time>
      </trkpt>
      <trkpt lat="47.542091" lon="7.871721">
        <ele>341.894868</ele>
        <time>2021-11-21T09:16:13.603Z</time>
      </trkpt>
      <trkpt lat="47.542218" lon="7.871866">
        <ele>342.500431</ele>
        <time>2021-11-21T09:16:18.710Z</time>
      </trkpt>
      <trkpt lat="47.542394" lon="7.872341">
        <ele>343.881839</ele>
        <time>2021-11-21T09:16:28.762Z</time>
      </trkpt>
      <trkpt lat="47.542436" lon="7.872494">
        <ele>344.302919</ele>
        <time>2021-11-21T09:16:32.153Z</time>
      </trkpt>
      <trkpt lat="47.542537" lon="7.872430">
        <ele>344.717794</ele>
        <time>2021-11-21T09:16:34.265Z</time>
      </trkpt>
      <trkpt lat="47.542714" lon="7.872334">
        <ele>345.429660</ele>
        <time>2021-11-21T09:16:41.222Z</time>
      </trkpt>
      <trkpt lat="47.542814" lon="7.872280">
        <ele>345.831637</ele>
        <time>2021-11-21T09:16:44.236Z</time>
      </trkpt>
      <trkpt lat="47.542919" lon="7.872226">
        <ele>346.251405</ele>
        <time>2021-11-21T09:16:48.074Z</time>
      </trkpt>
      <trkpt lat="47.543013" lon="7.872182">
        <ele>346.623712</ele>
        <time>2021-11-21T09:16:51.581Z</time>
      </trkpt>
      <trkpt lat="47.543233" lon="7.872082">
        <ele>347.492813</ele>
        <time>2021-11-21T09:16:58.820Z</time>
      </trkpt>
      <trkpt lat="47.543251" lon="7.872152">
        <ele>347.683779</ele>
        <time>2021-11-21T09:17:02.193Z</time>
      </trkpt>
      <trkpt lat="47.543332" lon="7.872237">
        <ele>348.238355</ele>
        <time>2021-11-21T09:17:05.498Z</time>
      </trkpt>
      <trkpt lat="47.544390" lon="7.872423">
        <ele>355.047448</ele>
        <time>2021-11-21T09:17:47.218Z</time>
      </trkpt>
      <trkpt lat="47.544883" lon="7.872555">
        <ele>358.249242</ele>
        <time>2021-11-21T09:18:09.627Z</time>
      </trkpt>
      <trkpt lat="47.545131" lon="7.872664">
        <ele>359.920165</ele>
        <time>2021-11-21T09:18:20.631Z</time>
      </trkpt>
      <trkpt lat="47.545375" lon="7.872836">
        <ele>361.697284</ele>
        <time>2021-11-21T09:18:31.572Z</time>
      </trkpt>
      <trkpt lat="47.545478" lon="7.872968">
        <ele>362.592973</ele>
        <time>2021-11-21T09:18:38.379Z</time>
      </trkpt>
      <trkpt lat="47.545515" lon="7.873015">
        <ele>362.913515</ele>
        <time>2021-11-21T09:18:40.336Z</time>
      </trkpt>
      <trkpt lat="47.545746" lon="7.873302">
        <ele>364.896269</ele>
        <time>2021-11-21T09:18:53.535Z</time>
      </trkpt>
      <trkpt lat="47.545934" lon="7.873549">
        <ele>366.548861</ele>
        <time>2021-11-21T09:19:03.635Z</time>
      </trkpt>
      <trkpt lat="47.546077" lon="7.873763">
        <ele>367.885645</ele>
        <time>2021-11-21T09:19:12.832Z</time>
      </trkpt>
      <trkpt lat="47.546135" lon="7.873859">
        <ele>368.457593</ele>
        <time>2021-11-21T09:19:16.071Z</time>
      </trkpt>
      <trkpt lat="47.546309" lon="7.874154">
        <ele>370.196711</ele>
        <time>2021-11-21T09:19:27.185Z</time>
      </trkpt>
      <trkpt lat="47.547126" lon="7.875801">
        <ele>375.883236</ele>
        <time>2021-11-21T09:20:12.947Z</time>
      </trkpt>
      <trkpt lat="47.547574" lon="7.876801">
        <ele>377.843272</ele>
        <time>2021-11-21T09:20:31.942Z</time>
      </trkpt>
      <trkpt lat="47.547992" lon="7.877974">
        <ele>377.158322</ele>
        <time>2021-11-21T09:20:44.743Z</time>
      </trkpt>
      <trkpt lat="47.548234" lon="7.878638">
        <ele>376.768654</ele>
        <time>2021-11-21T09:20:50.055Z</time>
      </trkpt>
      <trkpt lat="47.548422" lon="7.878959">
        <ele>376.065777</ele>
        <time>2021-11-21T09:20:52.898Z</time>
      </trkpt>
      <trkpt lat="47.548718" lon="7.879258">
        <ele>374.581373</ele>
        <time>2021-11-21T09:20:56.436Z</time>
      </trkpt>
      <trkpt lat="47.549140" lon="7.879391">
        <ele>372.793710</ele>
        <time>2021-11-21T09:21:00.623Z</time>
      </trkpt>
      <trkpt lat="47.549318" lon="7.879398">
        <ele>372.055916</ele>
        <time>2021-11-21T09:21:02.250Z</time>
      </trkpt>
      <trkpt lat="47.549327" lon="7.879547">
        <ele>371.637550</ele>
        <time>2021-11-21T09:21:03.236Z</time>
      </trkpt>
      <trkpt lat="47.549726" lon="7.880786">
        <ele>367.976944</ele>
        <time>2021-11-21T09:21:12.171Z</time>
      </trkpt>
      <trkpt lat="47.549927" lon="7.881490">
        <ele>366.110458</ele>
        <time>2021-11-21T09:21:17.203Z</time>
      </trkpt>
      <trkpt lat="47.550234" lon="7.883221">
        <ele>361.567275</ele>
        <time>2021-11-21T09:21:29.603Z</time>
      </trkpt>
      <trkpt lat="47.550332" lon="7.884727">
        <ele>357.206352</ele>
        <time>2021-11-21T09:21:39.448Z</time>
      </trkpt>
      <trkpt lat="47.550391" lon="7.885109">
        <ele>356.076841</ele>
        <time>2021-11-21T09:21:41.980Z</time>
      </trkpt>
      <trkpt lat="47.550548" lon="7.885799">
        <ele>353.641902</ele>
        <time>2021-11-21T09:21:46.585Z</time>
      </trkpt>
      <trkpt lat="47.550677" lon="7.886476">
        <ele>350.958871</ele>
        <time>2021-11-21T09:21:51.015Z</time>
      </trkpt>
      <trkpt lat="47.550758" lon="7.887295">
        <ele>347.801823</ele>
        <time>2021-11-21T09:21:56.157Z</time>
      </trkpt>
      <trkpt lat="47.550789" lon="7.887816">
        <ele>345.807009</ele>
        <time>2021-11-21T09:21:59.389Z</time>
      </trkpt>
      <trkpt lat="47.550831" lon="7.888611">
        <ele>342.538589</ele>
        <time>2021-11-21T09:22:04.345Z</time>
      </trkpt>
      <trkpt lat="47.550833" lon="7.889069">
        <ele>340.601857</ele>
        <time>2021-11-21T09:22:07.155Z</time>
      </trkpt>
      <trkpt lat="47.550915" lon="7.890600">
        <ele>334.107546</ele>
        <time>2021-11-21T09:22:16.548Z</time>
      </trkpt>
      <trkpt lat="47.550904" lon="7.891725">
        <ele>330.735882</ele>
        <time>2021-11-21T09:22:23.552Z</time>
      </trkpt>
      <trkpt lat="47.550892" lon="7.893176">
        <ele>326.607789</ele>
        <time>2021-11-21T09:22:33.164Z</time>
      </trkpt>
      <trkpt lat="47.550908" lon="7.894308">
        <ele>325.206315</ele>
        <time>2021-11-21T09:22:42.369Z</time>
      </trkpt>
      <trkpt lat="47.550878" lon="7.895158">
        <ele>324.468275</ele>
        <time>2021-11-21T09:22:49.554Z</time>
      </trkpt>
      <trkpt lat="47.550838" lon="7.895509">
        <ele>324.159616</ele>
        <time>2021-11-21T09:22:52.718Z</time>
      </trkpt>
      <trkpt lat="47.550660" lon="7.896255">
        <ele>323.242086</ele>
        <time>2021-11-21T09:22:59.206Z</time>
      </trkpt>
      <trkpt lat="47.550639" lon="7.896345">
        <ele>323.072571</ele>
        <time>2021-11-21T09:23:00.394Z</time>
      </trkpt>
      <trkpt lat="47.550648" lon="7.896481">
        <ele>322.829314</ele>
        <time>2021-11-21T09:23:01.349Z</time>
      </trkpt>
      <trkpt lat="47.550819" lon="7.898109">
        <ele>319.896398</ele>
        <time>2021-11-21T09:23:13.097Z</time>
      </trkpt>
      <trkpt lat="47.550801" lon="7.900244">
        <ele>314.343117</ele>
        <time>2021-11-21T09:23:26.934Z</time>
      </trkpt>
      <trkpt lat="47.550769" lon="7.901362">
        <ele>311.150938</ele>
        <time>2021-11-21T09:23:34.206Z</time>
      </trkpt>
      <trkpt lat="47.550757" lon="7.901591">
        <ele>310.582876</ele>
        <time>2021-11-21T09:23:36.342Z</time>
      </trkpt>
      <trkpt lat="47.550688" lon="7.902451">
        <ele>308.440967</ele>
        <time>2021-11-21T09:23:44.776Z</time>
      </trkpt>
      <trkpt lat="47.550498" lon="7.903445">
        <ele>305.885937</ele>
        <time>2021-11-21T09:23:55.026Z</time>
      </trkpt>
      <trkpt lat="47.550302" lon="7.904164">
        <ele>303.959857</ele>
        <time>2021-11-21T09:24:02.286Z</time>
      </trkpt>
      <trkpt lat="47.550025" lon="7.904774">
        <ele>302.120987</ele>
        <time>2021-11-21T09:24:09.211Z</time>
      </trkpt>
      <trkpt lat="47.549868" lon="7.905010">
        <ele>301.292185</ele>
        <time>2021-11-21T09:24:12.342Z</time>
      </trkpt>
      <trkpt lat="47.549867" lon="7.905155">
        <ele>300.929496</ele>
        <time>2021-11-21T09:24:13.739Z</time>
      </trkpt>
      <trkpt lat="47.550067" lon="7.905245">
        <ele>300.154921</ele>
        <time>2021-11-21T09:24:16.664Z</time>
      </trkpt>
      <trkpt lat="47.550283" lon="7.905413">
        <ele>299.250897</ele>
        <time>2021-11-21T09:24:20.114Z</time>
      </trkpt>
      <trkpt lat="47.550497" lon="7.905558">
        <ele>298.378880</ele>
        <time>2021-11-21T09:24:23.473Z</time>
      </trkpt>
      <trkpt lat="47.549539" lon="7.908625">
        <ele>293.143661</ele>
        <time>2021-11-21T09:24:47.912Z</time>
      </trkpt>
      <trkpt lat="47.549520" lon="7.908678">
        <ele>293.086143</ele>
        <time>2021-11-21T09:24:48.413Z</time>
      </trkpt>
      <trkpt lat="47.549358" lon="7.909215">
        <ele>292.522386</ele>
        <time>2021-11-21T09:24:53.219Z</time>
      </trkpt>
      <trkpt lat="47.549306" lon="7.909388">
        <ele>292.340875</ele>
        <time>2021-11-21T09:24:54.750Z</time>
      </trkpt>
      <trkpt lat="47.549195" lon="7.909756">
        <ele>291.954547</ele>
        <time>2021-11-21T09:24:58.056Z</time>
      </trkpt>
      <trkpt lat="47.549102" lon="7.910058">
        <ele>291.636391</ele>
        <time>2021-11-21T09:25:00.753Z</time>
      </trkpt>
      <trkpt lat="47.549012" lon="7.910340">
        <ele>291.337414</ele>
        <time>2021-11-21T09:25:03.275Z</time>
      </trkpt>
      <trkpt lat="47.548412" lon="7.912168">
        <ele>289.792084</ele>
        <time>2021-11-21T09:25:19.607Z</time>
      </trkpt>
      <trkpt lat="47.548027" lon="7.913334">
        <ele>289.064601</ele>
        <time>2021-11-21T09:25:30.368Z</time>
      </trkpt>
      <trkpt lat="47.547994" lon="7.913433">
        <ele>289.038086</ele>
        <time>2021-11-21T09:25:31.289Z</time>
      </trkpt>
      <trkpt lat="47.547423" lon="7.915080">
        <ele>288.593455</ele>
        <time>2021-11-21T09:25:48.765Z</time>
      </trkpt>
      <trkpt lat="47.547113" lon="7.915971">
        <ele>288.751473</ele>
        <time>2021-11-21T09:25:59.213Z</time>
      </trkpt>
      <trkpt lat="47.547091" lon="7.916039">
        <ele>288.772768</ele>
        <time>2021-11-21T09:26:00.237Z</time>
      </trkpt>
      <trkpt lat="47.547032" lon="7.916218">
        <ele>288.829022</ele>
        <time>2021-11-21T09:26:02.440Z</time>
      </trkpt>
      <trkpt lat="47.546821" lon="7.916867">
        <ele>289.032453</ele>
        <time>2021-11-21T09:26:10.549Z</time>
      </trkpt>
      <trkpt lat="47.546262" lon="7.919081">
        <ele>289.676143</ele>
        <time>2021-11-21T09:26:38.060Z</time>
      </trkpt>
      <trkpt lat="47.546128" lon="7.919617">
        <ele>289.828201</ele>
        <time>2021-11-21T09:26:43.529Z</time>
      </trkpt>
      <trkpt lat="47.545973" lon="7.920313">
        <ele>290.076219</ele>
        <time>2021-11-21T09:26:51.992Z</time>
      </trkpt>
      <trkpt lat="47.545913" lon="7.920765">
        <ele>290.450786</ele>
        <time>2021-11-21T09:26:56.165Z</time>
      </trkpt>
      <trkpt lat="47.545881" lon="7.921096">
        <ele>290.722674</ele>
        <time>2021-11-21T09:27:00.182Z</time>
      </trkpt>
      <trkpt lat="47.545810" lon="7.921755">
        <ele>291.265301</ele>
        <time>2021-11-21T09:27:09.091Z</time>
      </trkpt>
      <trkpt lat="47.545778" lon="7.921947">
        <ele>291.426108</ele>
        <time>2021-11-21T09:27:12.699Z</time>
      </trkpt>
      <trkpt lat="47.545714" lon="7.922249">
        <ele>291.683488</ele>
        <time>2021-11-21T09:27:15.898Z</time>
      </trkpt>
      <trkpt lat="47.545699" lon="7.922325">
        <ele>291.747872</ele>
        <time>2021-11-21T09:27:17.095Z</time>
      </trkpt>
      <trkpt lat="47.545690" lon="7.922369">
        <ele>291.785256</ele>
        <time>2021-11-21T09:27:19.194Z</time>
      </trkpt>
      <trkpt lat="47.545641" lon="7.922610">
        <ele>291.989915</ele>
        <time>2021-11-21T09:27:21.548Z</time>
      </trkpt>
      <trkpt lat="47.545587" lon="7.922895">
        <ele>292.356945</ele>
        <time>2021-11-21T09:27:27.344Z</time>
      </trkpt>
      <trkpt lat="47.545553" lon="7.923142">
        <ele>292.951028</ele>
        <time>2021-11-21T09:27:29.991Z</time>
      </trkpt>
      <trkpt lat="47.545536" lon="7.923407">
        <ele>293.578365</ele>
        <time>2021-11-21T09:27:35.880Z</time>
      </trkpt>
      <trkpt lat="47.545521" lon="7.923709">
        <ele>294.292010</ele>
        <time>2021-11-21T09:27:40.034Z</time>
      </trkpt>
      <trkpt lat="47.545481" lon="7.924396">
        <ele>295.917070</ele>
        <time>2021-11-21T09:27:54.637Z</time>
      </trkpt>
      <trkpt lat="47.545466" lon="7.924880">
        <ele>297.058911</ele>
        <time>2021-11-21T09:28:05.944Z</time>
      </trkpt>
      <trkpt lat="47.545446" lon="7.925350">
        <ele>298.168756</ele>
        <time>2021-11-21T09:28:16.319Z</time>
      </trkpt>
      <trkpt lat="47.545417" lon="7.925848">
        <ele>299.072245</ele>
        <time>2021-11-21T09:28:26.798Z</time>
      </trkpt>
      <trkpt lat="47.545409" lon="7.926773">
        <ele>300.589596</ele>
        <time>2021-11-21T09:28:43.999Z</time>
      </trkpt>
      <trkpt lat="47.545407" lon="7.927001">
        <ele>300.963603</ele>
        <time>2021-11-21T09:28:47.808Z</time>
      </trkpt>
      <trkpt lat="47.545406" lon="7.927306">
        <ele>301.463884</ele>
        <time>2021-11-21T09:28:52.412Z</time>
      </trkpt>
      <trkpt lat="47.545421" lon="7.927686">
        <ele>302.088241</ele>
        <time>2021-11-21T09:28:57.948Z</time>
      </trkpt>
      <trkpt lat="47.545475" lon="7.928419">
        <ele>302.557961</ele>
        <time>2021-11-21T09:29:07.265Z</time>
      </trkpt>
      <trkpt lat="47.545563" lon="7.929641">
        <ele>301.488067</ele>
        <time>2021-11-21T09:29:17.145Z</time>
      </trkpt>
      <trkpt lat="47.545661" lon="7.930955">
        <ele>300.332846</ele>
        <time>2021-11-21T09:29:26.540Z</time>
      </trkpt>
      <trkpt lat="47.545696" lon="7.931497">
        <ele>299.845863</ele>
        <time>2021-11-21T09:29:30.509Z</time>
      </trkpt>
      <trkpt lat="47.545721" lon="7.931992">
        <ele>299.401894</ele>
        <time>2021-11-21T09:29:34.302Z</time>
      </trkpt>
      <trkpt lat="47.545724" lon="7.932758">
        <ele>298.716766</ele>
        <time>2021-11-21T09:29:40.511Z</time>
      </trkpt>
      <trkpt lat="47.545702" lon="7.933290">
        <ele>298.240049</ele>
        <time>2021-11-21T09:29:45.154Z</time>
      </trkpt>
      <trkpt lat="47.545674" lon="7.933625">
        <ele>298.223507</ele>
        <time>2021-11-21T09:29:48.354Z</time>
      </trkpt>
      <trkpt lat="47.545457" lon="7.935110">
        <ele>299.103283</ele>
        <time>2021-11-21T09:30:06.489Z</time>
      </trkpt>
      <trkpt lat="47.545074" lon="7.936484">
        <ele>300.282216</ele>
        <time>2021-11-21T09:30:28.017Z</time>
      </trkpt>
      <trkpt lat="47.544903" lon="7.936917">
        <ele>300.871052</ele>
        <time>2021-11-21T09:30:35.333Z</time>
      </trkpt>
      <trkpt lat="47.544705" lon="7.937395">
        <ele>301.529335</ele>
        <time>2021-11-21T09:30:43.517Z</time>
      </trkpt>
      <trkpt lat="47.544472" lon="7.937932">
        <ele>302.278641</ele>
        <time>2021-11-21T09:30:52.924Z</time>
      </trkpt>
      <trkpt lat="47.543826" lon="7.939433">
        <ele>304.340482</ele>
        <time>2021-11-21T09:31:19.806Z</time>
      </trkpt>
      <trkpt lat="47.543435" lon="7.940670">
        <ele>305.877111</ele>
        <time>2021-11-21T09:31:39.766Z</time>
      </trkpt>
      <trkpt lat="47.543161" lon="7.942213">
        <ele>306.545599</ele>
        <time>2021-11-21T09:32:00.616Z</time>
      </trkpt>
      <trkpt lat="47.543007" lon="7.943867">
        <ele>306.383595</ele>
        <time>2021-11-21T09:32:16.160Z</time>
      </trkpt>
      <trkpt lat="47.542913" lon="7.945267">
        <ele>305.117778</ele>
        <time>2021-11-21T09:32:27.066Z</time>
      </trkpt>
      <trkpt lat="47.542872" lon="7.945781">
        <ele>304.652106</ele>
        <time>2021-11-21T09:32:30.883Z</time>
      </trkpt>
      <trkpt lat="47.542875" lon="7.946089">
        <ele>304.332407</ele>
        <time>2021-11-21T09:32:33.117Z</time>
      </trkpt>
      <trkpt lat="47.542902" lon="7.946514">
        <ele>303.866267</ele>
        <time>2021-11-21T09:32:36.211Z</time>
      </trkpt>
      <trkpt lat="47.542943" lon="7.946806">
        <ele>303.540585</ele>
        <time>2021-11-21T09:32:38.422Z</time>
      </trkpt>
      <trkpt lat="47.542974" lon="7.946965">
        <ele>303.359864</ele>
        <time>2021-11-21T09:32:39.730Z</time>
      </trkpt>
      <trkpt lat="47.542979" lon="7.946989">
        <ele>303.332437</ele>
        <time>2021-11-21T09:32:39.886Z</time>
      </trkpt>
      <trkpt lat="47.542989" lon="7.947104">
        <ele>303.205823</ele>
        <time>2021-11-21T09:32:40.757Z</time>
      </trkpt>
      <trkpt lat="47.542984" lon="7.947304">
        <ele>302.987278</ele>
        <time>2021-11-21T09:32:42.332Z</time>
      </trkpt>
      <trkpt lat="47.542979" lon="7.947370">
        <ele>302.914756</ele>
        <time>2021-11-21T09:32:42.834Z</time>
      </trkpt>
      <trkpt lat="47.542935" lon="7.947564">
        <ele>302.691275</ele>
        <time>2021-11-21T09:32:44.401Z</time>
      </trkpt>
      <trkpt lat="47.542892" lon="7.947789">
        <ele>302.435924</ele>
        <time>2021-11-21T09:32:46.319Z</time>
      </trkpt>
      <trkpt lat="47.542875" lon="7.948001">
        <ele>302.202797</ele>
        <time>2021-11-21T09:32:48.135Z</time>
      </trkpt>
      <trkpt lat="47.542838" lon="7.948225">
        <ele>301.950978</ele>
        <time>2021-11-21T09:32:49.920Z</time>
      </trkpt>
      <trkpt lat="47.542826" lon="7.948298">
        <ele>301.868934</ele>
        <time>2021-11-21T09:32:50.541Z</time>
      </trkpt>
      <trkpt lat="47.542719" lon="7.949175">
        <ele>301.417793</ele>
        <time>2021-11-21T09:32:57.766Z</time>
      </trkpt>
      <trkpt lat="47.542609" lon="7.949914">
        <ele>301.152565</ele>
        <time>2021-11-21T09:33:04.540Z</time>
      </trkpt>
      <trkpt lat="47.542560" lon="7.950202">
        <ele>301.048470</ele>
        <time>2021-11-21T09:33:07.409Z</time>
      </trkpt>
      <trkpt lat="47.542554" lon="7.950231">
        <ele>301.037839</ele>
        <time>2021-11-21T09:33:07.684Z</time>
      </trkpt>
      <trkpt lat="47.542546" lon="7.950274">
        <ele>301.022207</ele>
        <time>2021-11-21T09:33:08.089Z</time>
      </trkpt>
      <trkpt lat="47.542444" lon="7.950687">
        <ele>300.868074</ele>
        <time>2021-11-21T09:33:12.551Z</time>
      </trkpt>
      <trkpt lat="47.542357" lon="7.951037">
        <ele>300.737353</ele>
        <time>2021-11-21T09:33:16.195Z</time>
      </trkpt>
      <trkpt lat="47.542192" lon="7.951713">
        <ele>300.609685</ele>
        <time>2021-11-21T09:33:23.143Z</time>
      </trkpt>
      <trkpt lat="47.542169" lon="7.951815">
        <ele>300.591091</ele>
        <time>2021-11-21T09:33:24.071Z</time>
      </trkpt>
      <trkpt lat="47.541991" lon="7.952667">
        <ele>300.436881</ele>
        <time>2021-11-21T09:33:32.352Z</time>
      </trkpt>
      <trkpt lat="47.541791" lon="7.953601">
        <ele>300.276486</ele>
        <time>2021-11-21T09:33:41.403Z</time>
      </trkpt>
      <trkpt lat="47.541773" lon="7.953695">
        <ele>300.319915</ele>
        <time>2021-11-21T09:33:42.339Z</time>
      </trkpt>
      <trkpt lat="47.541735" lon="7.953892">
        <ele>300.410981</ele>
        <time>2021-11-21T09:33:44.222Z</time>
      </trkpt>
      <trkpt lat="47.541660" lon="7.954250">
        <ele>300.577589</ele>
        <time>2021-11-21T09:33:47.981Z</time>
      </trkpt>
      <trkpt lat="47.541530" lon="7.954936">
        <ele>300.894286</ele>
        <time>2021-11-21T09:33:55.201Z</time>
      </trkpt>
      <trkpt lat="47.541482" lon="7.955294">
        <ele>301.056516</ele>
        <time>2021-11-21T09:33:59.250Z</time>
      </trkpt>
      <trkpt lat="47.541465" lon="7.955512">
        <ele>301.154056</ele>
        <time>2021-11-21T09:34:01.585Z</time>
      </trkpt>
      <trkpt lat="47.541442" lon="7.955866">
        <ele>301.312128</ele>
        <time>2021-11-21T09:34:06.878Z</time>
      </trkpt>
      <trkpt lat="47.541410" lon="7.956569">
        <ele>302.248194</ele>
        <time>2021-11-21T09:34:18.178Z</time>
      </trkpt>
      <trkpt lat="47.541404" lon="7.956677">
        <ele>302.471766</ele>
        <time>2021-11-21T09:34:20.284Z</time>
      </trkpt>
      <trkpt lat="47.541280" lon="7.957569">
        <ele>304.350696</ele>
        <time>2021-11-21T09:34:35.932Z</time>
      </trkpt>
      <trkpt lat="47.541237" lon="7.957756">
        <ele>304.758271</ele>
        <time>2021-11-21T09:34:40.280Z</time>
      </trkpt>
      <trkpt lat="47.541141" lon="7.958127">
        <ele>305.578000</ele>
        <time>2021-11-21T09:34:47.831Z</time>
      </trkpt>
      <trkpt lat="47.540957" lon="7.959132">
        <ele>307.752285</ele>
        <time>2021-11-21T09:35:09.273Z</time>
      </trkpt>
      <trkpt lat="47.540954" lon="7.959705">
        <ele>308.974043</ele>
        <time>2021-11-21T09:35:20.700Z</time>
      </trkpt>
      <trkpt lat="47.540979" lon="7.959950">
        <ele>309.502353</ele>
        <time>2021-11-21T09:35:26.150Z</time>
      </trkpt>
      <trkpt lat="47.541002" lon="7.960092">
        <ele>309.813710</ele>
        <time>2021-11-21T09:35:28.744Z</time>
      </trkpt>
      <trkpt lat="47.541060" lon="7.960321">
        <ele>310.335206</ele>
        <time>2021-11-21T09:35:33.466Z</time>
      </trkpt>
      <trkpt lat="47.541153" lon="7.960814">
        <ele>311.426621</ele>
        <time>2021-11-21T09:35:42.035Z</time>
      </trkpt>
      <trkpt lat="47.541242" lon="7.961294">
        <ele>312.487950</ele>
        <time>2021-11-21T09:35:49.994Z</time>
      </trkpt>
      <trkpt lat="47.541316" lon="7.962197">
        <ele>313.667291</ele>
        <time>2021-11-21T09:36:04.620Z</time>
      </trkpt>
      <trkpt lat="47.541314" lon="7.962377">
        <ele>313.888602</ele>
        <time>2021-11-21T09:36:07.450Z</time>
      </trkpt>
      <trkpt lat="47.541308" lon="7.962513">
        <ele>314.056150</ele>
        <time>2021-11-21T09:36:09.312Z</time>
      </trkpt>
      <trkpt lat="47.541293" lon="7.962730">
        <ele>314.324311</ele>
        <time>2021-11-21T09:36:12.175Z</time>
      </trkpt>
      <trkpt lat="47.541258" lon="7.962975">
        <ele>314.632171</ele>
        <time>2021-11-21T09:36:16.076Z</time>
      </trkpt>
      <trkpt lat="47.541217" lon="7.963187">
        <ele>314.903276</ele>
        <time>2021-11-21T09:36:18.865Z</time>
      </trkpt>
      <trkpt lat="47.541123" lon="7.963520">
        <ele>315.346997</ele>
        <time>2021-11-21T09:36:24.100Z</time>
      </trkpt>
      <trkpt lat="47.541019" lon="7.963815">
        <ele>315.756130</ele>
        <time>2021-11-21T09:36:28.735Z</time>
      </trkpt>
      <trkpt lat="47.540959" lon="7.963916">
        <ele>315.918842</ele>
        <time>2021-11-21T09:36:31.023Z</time>
      </trkpt>
      <trkpt lat="47.540467" lon="7.964759">
        <ele>317.022353</ele>
        <time>2021-11-21T09:36:46.747Z</time>
      </trkpt>
      <trkpt lat="47.540257" lon="7.965417">
        <ele>317.743093</ele>
        <time>2021-11-21T09:36:56.683Z</time>
      </trkpt>
      <trkpt lat="47.540200" lon="7.965632">
        <ele>317.971830</ele>
        <time>2021-11-21T09:37:00.136Z</time>
      </trkpt>
      <trkpt lat="47.540100" lon="7.966046">
        <ele>318.407253</ele>
        <time>2021-11-21T09:37:06.026Z</time>
      </trkpt>
      <trkpt lat="47.539909" lon="7.966784">
        <ele>319.309707</ele>
        <time>2021-11-21T09:37:16.722Z</time>
      </trkpt>
      <trkpt lat="47.539680" lon="7.967625">
        <ele>320.374789</ele>
        <time>2021-11-21T09:37:30.144Z</time>
      </trkpt>
      <trkpt lat="47.539403" lon="7.968640">
        <ele>321.660643</ele>
        <time>2021-11-21T09:37:46.605Z</time>
      </trkpt>
      <trkpt lat="47.539248" lon="7.969246">
        <ele>322.676473</ele>
        <time>2021-11-21T09:37:56.897Z</time>
      </trkpt>
      <trkpt lat="47.539144" lon="7.969781">
        <ele>323.553530</ele>
        <time>2021-11-21T09:38:06.010Z</time>
      </trkpt>
      <trkpt lat="47.539052" lon="7.970439">
        <ele>324.612109</ele>
        <time>2021-11-21T09:38:17.326Z</time>
      </trkpt>
      <trkpt lat="47.538935" lon="7.971210">
        <ele>325.857015</ele>
        <time>2021-11-21T09:38:30.618Z</time>
      </trkpt>
      <trkpt lat="47.538858" lon="7.971696">
        <ele>326.607880</ele>
        <time>2021-11-21T09:38:38.660Z</time>
      </trkpt>
      <trkpt lat="47.538687" lon="7.972850">
        <ele>328.383252</ele>
        <time>2021-11-21T09:38:57.424Z</time>
      </trkpt>
      <trkpt lat="47.538490" lon="7.973699">
        <ele>329.732285</ele>
        <time>2021-11-21T09:39:11.645Z</time>
      </trkpt>
      <trkpt lat="47.538402" lon="7.973943">
        <ele>330.181066</ele>
        <time>2021-11-21T09:39:16.143Z</time>
      </trkpt>
      <trkpt lat="47.538106" lon="7.974772">
        <ele>331.761882</ele>
        <time>2021-11-21T09:39:31.193Z</time>
      </trkpt>
      <trkpt lat="47.537896" lon="7.975317">
        <ele>332.819672</ele>
        <time>2021-11-21T09:39:41.470Z</time>
      </trkpt>
      <trkpt lat="47.536866" lon="7.977996">
        <ele>338.184710</ele>
        <time>2021-11-21T09:40:36.273Z</time>
      </trkpt>
      <trkpt lat="47.536460" lon="7.979083">
        <ele>339.228586</ele>
        <time>2021-11-21T09:40:55.360Z</time>
      </trkpt>
      <trkpt lat="47.536403" lon="7.979241">
        <ele>339.267978</ele>
        <time>2021-11-21T09:40:57.722Z</time>
      </trkpt>
      <trkpt lat="47.536340" lon="7.979418">
        <ele>339.311977</ele>
        <time>2021-11-21T09:41:00.334Z</time>
      </trkpt>
      <trkpt lat="47.536061" lon="7.980200">
        <ele>339.506467</ele>
        <time>2021-11-21T09:41:09.146Z</time>
      </trkpt>
      <trkpt lat="47.535599" lon="7.981498">
        <ele>338.535705</ele>
        <time>2021-11-21T09:41:20.414Z</time>
      </trkpt>
      <trkpt lat="47.535452" lon="7.981933">
        <ele>337.865721</ele>
        <time>2021-11-21T09:41:23.860Z</time>
      </trkpt>
      <trkpt lat="47.535345" lon="7.982248">
        <ele>337.380054</ele>
        <time>2021-11-21T09:41:26.357Z</time>
      </trkpt>
      <trkpt lat="47.535328" lon="7.982298">
        <ele>337.302949</ele>
        <time>2021-11-21T09:41:26.755Z</time>
      </trkpt>
      <trkpt lat="47.535300" lon="7.982379">
        <ele>337.177615</ele>
        <time>2021-11-21T09:41:27.419Z</time>
      </trkpt>
      <trkpt lat="47.535231" lon="7.982582">
        <ele>336.864588</ele>
        <time>2021-11-21T09:41:29.050Z</time>
      </trkpt>
      <trkpt lat="47.534817" lon="7.983835">
        <ele>335.315800</ele>
        <time>2021-11-21T09:41:39.346Z</time>
      </trkpt>
      <trkpt lat="47.534722" lon="7.984096">
        <ele>335.053914</ele>
        <time>2021-11-21T09:41:41.728Z</time>
      </trkpt>
      <trkpt lat="47.534320" lon="7.984882">
        <ele>334.182998</ele>
        <time>2021-11-21T09:41:50.208Z</time>
      </trkpt>
      <trkpt lat="47.534197" lon="7.985105">
        <ele>333.928667</ele>
        <time>2021-11-21T09:41:52.823Z</time>
      </trkpt>
      <trkpt lat="47.533975" lon="7.985526">
        <ele>333.312139</ele>
        <time>2021-11-21T09:41:57.165Z</time>
      </trkpt>
      <trkpt lat="47.533546" lon="7.986336">
        <ele>331.637538</ele>
        <time>2021-11-21T09:42:04.946Z</time>
      </trkpt>
      <trkpt lat="47.533208" lon="7.986980">
        <ele>330.310690</ele>
        <time>2021-11-21T09:42:10.765Z</time>
      </trkpt>
      <trkpt lat="47.533114" lon="7.987128">
        <ele>329.980164</ele>
        <time>2021-11-21T09:42:12.160Z</time>
      </trkpt>
      <trkpt lat="47.533114" lon="7.987128">
        <ele>329.980164</ele>
        <time>2021-11-21T09:42:12.167Z</time>
      </trkpt>
      <trkpt lat="47.533142" lon="7.987165">
        <ele>329.889758</ele>
        <time>2021-11-21T09:42:12.522Z</time>
      </trkpt>
      <trkpt lat="47.533195" lon="7.987215">
        <ele>329.738364</ele>
        <time>2021-11-21T09:42:13.193Z</time>
      </trkpt>
      <trkpt lat="47.533509" lon="7.987411">
        <ele>328.649564</ele>
        <time>2021-11-21T09:42:16.524Z</time>
      </trkpt>
      <trkpt lat="47.533728" lon="7.987557">
        <ele>327.660888</ele>
        <time>2021-11-21T09:42:18.881Z</time>
      </trkpt>
      <trkpt lat="47.534072" lon="7.987749">
        <ele>326.147529</ele>
        <time>2021-11-21T09:42:22.420Z</time>
      </trkpt>
      <trkpt lat="47.534280" lon="7.987862">
        <ele>325.235471</ele>
        <time>2021-11-21T09:42:24.536Z</time>
      </trkpt>
      <trkpt lat="47.534363" lon="7.987895">
        <ele>324.881688</ele>
        <time>2021-11-21T09:42:25.355Z</time>
      </trkpt>
      <trkpt lat="47.534795" lon="7.988078">
        <ele>323.031966</ele>
        <time>2021-11-21T09:42:29.646Z</time>
      </trkpt>
      <trkpt lat="47.534985" lon="7.988144">
        <ele>322.228568</ele>
        <time>2021-11-21T09:42:31.531Z</time>
      </trkpt>
      <trkpt lat="47.535196" lon="7.988134">
        <ele>321.511989</ele>
        <time>2021-11-21T09:42:33.649Z</time>
      </trkpt>
      <trkpt lat="47.535393" lon="7.988043">
        <ele>320.906264</ele>
        <time>2021-11-21T09:42:35.719Z</time>
      </trkpt>
      <trkpt lat="47.535735" lon="7.987639">
        <ele>319.622224</ele>
        <time>2021-11-21T09:42:40.174Z</time>
      </trkpt>
      <trkpt lat="47.535862" lon="7.987408">
        <ele>319.031862</ele>
        <time>2021-11-21T09:42:42.213Z</time>
      </trkpt>
      <trkpt lat="47.535935" lon="7.987272">
        <ele>318.687548</ele>
        <time>2021-11-21T09:42:43.450Z</time>
      </trkpt>
      <trkpt lat="47.536140" lon="7.986963">
        <ele>317.829026</ele>
        <time>2021-11-21T09:42:46.446Z</time>
      </trkpt>
      <trkpt lat="47.536465" lon="7.986660">
        <ele>316.701809</ele>
        <time>2021-11-21T09:42:50.621Z</time>
      </trkpt>
      <trkpt lat="47.536685" lon="7.986543">
        <ele>316.394204</ele>
        <time>2021-11-21T09:42:53.177Z</time>
      </trkpt>
      <trkpt lat="47.536796" lon="7.986519">
        <ele>316.274193</ele>
        <time>2021-11-21T09:42:54.418Z</time>
      </trkpt>
      <trkpt lat="47.537167" lon="7.986470">
        <ele>315.875708</ele>
        <time>2021-11-21T09:42:58.876Z</time>
      </trkpt>
      <trkpt lat="47.537409" lon="7.986449">
        <ele>315.616362</ele>
        <time>2021-11-21T09:43:01.882Z</time>
      </trkpt>
      <trkpt lat="47.537821" lon="7.986433">
        <ele>315.175436</ele>
        <time>2021-11-21T09:43:06.987Z</time>
      </trkpt>
      <trkpt lat="47.537897" lon="7.986428">
        <ele>315.094048</ele>
        <time>2021-11-21T09:43:08.152Z</time>
      </trkpt>
      <trkpt lat="47.538277" lon="7.986431">
        <ele>314.687503</ele>
        <time>2021-11-21T09:43:12.900Z</time>
      </trkpt>
      <trkpt lat="47.538514" lon="7.986428">
        <ele>314.707387</ele>
        <time>2021-11-21T09:43:16.029Z</time>
      </trkpt>
      <trkpt lat="47.538630" lon="7.986438">
        <ele>314.717388</ele>
        <time>2021-11-21T09:43:18.207Z</time>
      </trkpt>
      <trkpt lat="47.539274" lon="7.986488">
        <ele>314.772896</ele>
        <time>2021-11-21T09:43:28.464Z</time>
      </trkpt>
      <trkpt lat="47.539415" lon="7.986507">
        <ele>314.785082</ele>
        <time>2021-11-21T09:43:31.185Z</time>
      </trkpt>
      <trkpt lat="47.539549" lon="7.986535">
        <ele>314.796730</ele>
        <time>2021-11-21T09:43:33.240Z</time>
      </trkpt>
      <trkpt lat="47.539952" lon="7.986630">
        <ele>314.831855</ele>
        <time>2021-11-21T09:43:39.892Z</time>
      </trkpt>
      <trkpt lat="47.540347" lon="7.986737">
        <ele>314.739774</ele>
        <time>2021-11-21T09:43:45.586Z</time>
      </trkpt>
      <trkpt lat="47.540335" lon="7.986933">
        <ele>314.692282</ele>
        <time>2021-11-21T09:43:47.424Z</time>
      </trkpt>
      <trkpt lat="47.540321" lon="7.987087">
        <ele>314.654784</ele>
        <time>2021-11-21T09:43:48.748Z</time>
      </trkpt>
      <trkpt lat="47.539978" lon="7.988189">
        <ele>314.361948</ele>
        <time>2021-11-21T09:43:59.934Z</time>
      </trkpt>
      <trkpt lat="47.539990" lon="7.989097">
        <ele>314.124463</ele>
        <time>2021-11-21T09:44:07.770Z</time>
      </trkpt>
      <trkpt lat="47.540011" lon="7.990131">
        <ele>313.793267</ele>
        <time>2021-11-21T09:44:16.867Z</time>
      </trkpt>
      <trkpt lat="47.540018" lon="7.990553">
        <ele>313.658119</ele>
        <time>2021-11-21T09:44:20.619Z</time>
      </trkpt>
      <trkpt lat="47.540056" lon="7.990982">
        <ele>313.519593</ele>
        <time>2021-11-21T09:44:24.534Z</time>
      </trkpt>
      <trkpt lat="47.540104" lon="7.991287">
        <ele>313.419326</ele>
        <time>2021-11-21T09:44:27.422Z</time>
      </trkpt>
      <trkpt lat="47.540140" lon="7.991504">
        <ele>313.347784</ele>
        <time>2021-11-21T09:44:44.038Z</time>
      </trkpt>
      <trkpt lat="47.540194" lon="7.991768">
        <ele>313.424517</ele>
        <time>2021-11-21T09:44:46.675Z</time>
      </trkpt>
      <trkpt lat="47.540262" lon="7.992244">
        <ele>313.566327</ele>
        <time>2021-11-21T09:44:51.470Z</time>
      </trkpt>
      <trkpt lat="47.540316" lon="7.993620">
        <ele>313.968062</ele>
        <time>2021-11-21T09:45:07.293Z</time>
      </trkpt>
      <trkpt lat="47.540089" lon="7.994896">
        <ele>315.257983</ele>
        <time>2021-11-21T09:45:24.018Z</time>
      </trkpt>
      <trkpt lat="47.540013" lon="7.995140">
        <ele>315.644286</ele>
        <time>2021-11-21T09:45:27.945Z</time>
      </trkpt>
      <trkpt lat="47.539876" lon="7.995796">
        <ele>316.631428</ele>
        <time>2021-11-21T09:45:37.571Z</time>
      </trkpt>
      <trkpt lat="47.539838" lon="7.996117">
        <ele>317.099930</ele>
        <time>2021-11-21T09:45:43.309Z</time>
      </trkpt>
      <trkpt lat="47.539726" lon="7.997265">
        <ele>320.153879</ele>
        <time>2021-11-21T09:46:07.458Z</time>
      </trkpt>
      <trkpt lat="47.539590" lon="7.998122">
        <ele>323.573068</ele>
        <time>2021-11-21T09:46:27.493Z</time>
      </trkpt>
      <trkpt lat="47.539569" lon="7.998315">
        <ele>324.332327</ele>
        <time>2021-11-21T09:46:33.185Z</time>
      </trkpt>
      <trkpt lat="47.539365" lon="8.001150">
        <ele>337.396280</ele>
        <time>2021-11-21T09:47:59.886Z</time>
      </trkpt>
      <trkpt lat="47.539400" lon="8.001871">
        <ele>340.990454</ele>
        <time>2021-11-21T09:48:21.862Z</time>
      </trkpt>
      <trkpt lat="47.539437" lon="8.002525">
        <ele>343.130464</ele>
        <time>2021-11-21T09:48:40.332Z</time>
      </trkpt>
      <trkpt lat="47.539437" lon="8.002963">
        <ele>344.404216</ele>
        <time>2021-11-21T09:48:51.329Z</time>
      </trkpt>
      <trkpt lat="47.539434" lon="8.003156">
        <ele>344.965630</ele>
        <time>2021-11-21T09:48:56.010Z</time>
      </trkpt>
      <trkpt lat="47.539492" lon="8.004516">
        <ele>348.928542</ele>
        <time>2021-11-21T09:49:22.884Z</time>
      </trkpt>
      <trkpt lat="47.539590" lon="8.005890">
        <ele>349.256456</ele>
        <time>2021-11-21T09:49:37.418Z</time>
      </trkpt>
      <trkpt lat="47.539569" lon="8.007914">
        <ele>349.243746</ele>
        <time>2021-11-21T09:49:54.192Z</time>
      </trkpt>
      <trkpt lat="47.539645" lon="8.009866">
        <ele>349.344949</ele>
        <time>2021-11-21T09:50:15.021Z</time>
      </trkpt>
      <trkpt lat="47.539703" lon="8.011107">
        <ele>350.278782</ele>
        <time>2021-11-21T09:50:31.634Z</time>
      </trkpt>
      <trkpt lat="47.539798" lon="8.012369">
        <ele>351.304527</ele>
        <time>2021-11-21T09:50:50.096Z</time>
      </trkpt>
      <trkpt lat="47.539903" lon="8.015200">
        <ele>352.413564</ele>
        <time>2021-11-21T09:51:24.210Z</time>
      </trkpt>
      <trkpt lat="47.539908" lon="8.015397">
        <ele>352.193673</ele>
        <time>2021-11-21T09:51:26.483Z</time>
      </trkpt>
      <trkpt lat="47.539918" lon="8.015722">
        <ele>351.546483</ele>
        <time>2021-11-21T09:51:28.985Z</time>
      </trkpt>
      <trkpt lat="47.539979" lon="8.017566">
        <ele>347.873832</ele>
        <time>2021-11-21T09:51:41.860Z</time>
      </trkpt>
      <trkpt lat="47.540012" lon="8.018657">
        <ele>343.778689</ele>
        <time>2021-11-21T09:51:48.597Z</time>
      </trkpt>
      <trkpt lat="47.540031" lon="8.019456">
        <ele>340.061719</ele>
        <time>2021-11-21T09:51:53.415Z</time>
      </trkpt>
      <trkpt lat="47.540052" lon="8.019825">
        <ele>338.340100</ele>
        <time>2021-11-21T09:51:55.640Z</time>
      </trkpt>
      <trkpt lat="47.540098" lon="8.020321">
        <ele>336.012468</ele>
        <time>2021-11-21T09:51:58.634Z</time>
      </trkpt>
      <trkpt lat="47.540134" lon="8.020585">
        <ele>334.760306</ele>
        <time>2021-11-21T09:52:00.230Z</time>
      </trkpt>
      <trkpt lat="47.540204" lon="8.020975">
        <ele>333.183957</ele>
        <time>2021-11-21T09:52:02.652Z</time>
      </trkpt>
      <trkpt lat="47.540354" lon="8.022332">
        <ele>327.817036</ele>
        <time>2021-11-21T09:52:11.097Z</time>
      </trkpt>
      <trkpt lat="47.540454" lon="8.023022">
        <ele>325.062601</ele>
        <time>2021-11-21T09:52:15.648Z</time>
      </trkpt>
      <trkpt lat="47.540537" lon="8.023536">
        <ele>323.916593</ele>
        <time>2021-11-21T09:52:19.262Z</time>
      </trkpt>
      <trkpt lat="47.540490" lon="8.024315">
        <ele>322.931791</ele>
        <time>2021-11-21T09:52:24.901Z</time>
      </trkpt>
      <trkpt lat="47.540408" lon="8.025334">
        <ele>321.639612</ele>
        <time>2021-11-21T09:52:33.094Z</time>
      </trkpt>
      <trkpt lat="47.540306" lon="8.026756">
        <ele>320.849995</ele>
        <time>2021-11-21T09:52:45.995Z</time>
      </trkpt>
      <trkpt lat="47.540273" lon="8.028579">
        <ele>320.590130</ele>
        <time>2021-11-21T09:53:03.864Z</time>
      </trkpt>
      <trkpt lat="47.540275" lon="8.029790">
        <ele>320.908018</ele>
        <time>2021-11-21T09:53:16.434Z</time>
      </trkpt>
      <trkpt lat="47.540324" lon="8.030594">
        <ele>321.119926</ele>
        <time>2021-11-21T09:53:25.435Z</time>
      </trkpt>
      <trkpt lat="47.540394" lon="8.031575">
        <ele>321.729758</ele>
        <time>2021-11-21T09:53:37.100Z</time>
      </trkpt>
      <trkpt lat="47.541006" lon="8.038351">
        <ele>330.799121</ele>
        <time>2021-11-21T09:55:17.830Z</time>
      </trkpt>
      <trkpt lat="47.541015" lon="8.038511">
        <ele>331.105868</ele>
        <time>2021-11-21T09:55:21.263Z</time>
      </trkpt>
      <trkpt lat="47.541029" lon="8.038776">
        <ele>331.613711</ele>
        <time>2021-11-21T09:55:28.393Z</time>
      </trkpt>
      <trkpt lat="47.540973" lon="8.039326">
        <ele>332.659012</ele>
        <time>2021-11-21T09:55:42.302Z</time>
      </trkpt>
      <trkpt lat="47.540755" lon="8.039911">
        <ele>333.888467</ele>
        <time>2021-11-21T09:55:57.804Z</time>
      </trkpt>
      <trkpt lat="47.540612" lon="8.040244">
        <ele>334.614621</ele>
        <time>2021-11-21T09:56:05.938Z</time>
      </trkpt>
      <trkpt lat="47.540564" lon="8.040358">
        <ele>334.861828</ele>
        <time>2021-11-21T09:56:07.858Z</time>
      </trkpt>
      <trkpt lat="47.540240" lon="8.040995">
        <ele>336.329303</ele>
        <time>2021-11-21T09:56:19.195Z</time>
      </trkpt>
      <trkpt lat="47.540116" lon="8.041253">
        <ele>336.912025</ele>
        <time>2021-11-21T09:56:22.678Z</time>
      </trkpt>
      <trkpt lat="47.540079" lon="8.041350">
        <ele>337.106197</ele>
        <time>2021-11-21T09:56:23.831Z</time>
      </trkpt>
      <trkpt lat="47.540031" lon="8.041477">
        <ele>337.034975</ele>
        <time>2021-11-21T09:56:25.027Z</time>
      </trkpt>
      <trkpt lat="47.539998" lon="8.041644">
        <ele>336.949829</ele>
        <time>2021-11-21T09:56:27.365Z</time>
      </trkpt>
      <trkpt lat="47.539983" lon="8.041866">
        <ele>336.840656</ele>
        <time>2021-11-21T09:56:30.709Z</time>
      </trkpt>
      <trkpt lat="47.539991" lon="8.042065">
        <ele>336.743107</ele>
        <time>2021-11-21T09:56:35.269Z</time>
      </trkpt>
      <trkpt lat="47.540021" lon="8.042268">
        <ele>336.641422</ele>
        <time>2021-11-21T09:56:40.398Z</time>
      </trkpt>
      <trkpt lat="47.540034" lon="8.042303">
        <ele>336.621874</ele>
        <time>2021-11-21T09:56:41.248Z</time>
      </trkpt>
      <trkpt lat="47.540072" lon="8.042391">
        <ele>336.570758</ele>
        <time>2021-11-21T09:56:43.555Z</time>
      </trkpt>
      <trkpt lat="47.540094" lon="8.042446">
        <ele>336.539475</ele>
        <time>2021-11-21T09:56:44.041Z</time>
      </trkpt>
      <trkpt lat="47.540115" lon="8.042499">
        <ele>336.509404</ele>
        <time>2021-11-21T09:56:44.458Z</time>
      </trkpt>
      <trkpt lat="47.540230" lon="8.042774">
        <ele>336.351113</ele>
        <time>2021-11-21T09:56:47.021Z</time>
      </trkpt>
      <trkpt lat="47.540311" lon="8.043099">
        <ele>336.181591</ele>
        <time>2021-11-21T09:56:49.786Z</time>
      </trkpt>
      <trkpt lat="47.540358" lon="8.043349">
        <ele>336.054605</ele>
        <time>2021-11-21T09:56:52.327Z</time>
      </trkpt>
      <trkpt lat="47.540392" lon="8.043542">
        <ele>335.957003</ele>
        <time>2021-11-21T09:56:53.702Z</time>
      </trkpt>
      <trkpt lat="47.540394" lon="8.043626">
        <ele>335.915874</ele>
        <time>2021-11-21T09:56:54.266Z</time>
      </trkpt>
      <trkpt lat="47.540360" lon="8.044061">
        <ele>336.093288</ele>
        <time>2021-11-21T09:56:57.700Z</time>
      </trkpt>
      <trkpt lat="47.540345" lon="8.044329">
        <ele>336.461464</ele>
        <time>2021-11-21T09:57:00.065Z</time>
      </trkpt>
      <trkpt lat="47.540316" lon="8.044416">
        <ele>336.594305</ele>
        <time>2021-11-21T09:57:01.694Z</time>
      </trkpt>
      <trkpt lat="47.540264" lon="8.044548">
        <ele>336.803546</ele>
        <time>2021-11-21T09:57:03.089Z</time>
      </trkpt>
      <trkpt lat="47.540222" lon="8.044636">
        <ele>336.951096</ele>
        <time>2021-11-21T09:57:04.033Z</time>
      </trkpt>
      <trkpt lat="47.540109" lon="8.044839">
        <ele>337.311324</ele>
        <time>2021-11-21T09:57:09.398Z</time>
      </trkpt>
      <trkpt lat="47.539890" lon="8.045243">
        <ele>338.020696</ele>
        <time>2021-11-21T09:57:18.900Z</time>
      </trkpt>
      <trkpt lat="47.539853" lon="8.045311">
        <ele>338.140271</ele>
        <time>2021-11-21T09:57:20.816Z</time>
      </trkpt>
      <trkpt lat="47.539726" lon="8.045544">
        <ele>338.550275</ele>
        <time>2021-11-21T09:57:25.099Z</time>
      </trkpt>
      <trkpt lat="47.539507" lon="8.045974">
        <ele>339.287742</ele>
        <time>2021-11-21T09:57:36.085Z</time>
      </trkpt>
      <trkpt lat="47.539443" lon="8.046124">
        <ele>339.593837</ele>
        <time>2021-11-21T09:57:42.059Z</time>
      </trkpt>
      <trkpt lat="47.539357" lon="8.046339">
        <ele>340.212380</ele>
        <time>2021-11-21T09:57:46.670Z</time>
      </trkpt>
      <trkpt lat="47.539305" lon="8.046463">
        <ele>340.573686</ele>
        <time>2021-11-21T09:57:50.593Z</time>
      </trkpt>
      <trkpt lat="47.539247" lon="8.046604">
        <ele>340.982357</ele>
        <time>2021-11-21T09:57:55.842Z</time>
      </trkpt>
      <trkpt lat="47.539156" lon="8.046798">
        <ele>341.567060</ele>
        <time>2021-11-21T09:58:00.192Z</time>
      </trkpt>
      <trkpt lat="47.539090" lon="8.046923">
        <ele>341.959838</ele>
        <time>2021-11-21T09:58:04.404Z</time>
      </trkpt>
      <trkpt lat="47.539057" lon="8.046985">
        <ele>342.155254</ele>
        <time>2021-11-21T09:58:07.091Z</time>
      </trkpt>
      <trkpt lat="47.538989" lon="8.047148">
        <ele>342.629513</ele>
        <time>2021-11-21T09:58:10.447Z</time>
      </trkpt>
      <trkpt lat="47.538968" lon="8.047404">
        <ele>343.267802</ele>
        <time>2021-11-21T09:58:15.590Z</time>
      </trkpt>
      <trkpt lat="47.538981" lon="8.047510">
        <ele>343.534458</ele>
        <time>2021-11-21T09:58:18.869Z</time>
      </trkpt>
      <trkpt lat="47.538991" lon="8.047594">
        <ele>343.745575</ele>
        <time>2021-11-21T09:58:20.644Z</time>
      </trkpt>
      <trkpt lat="47.539020" lon="8.047750">
        <ele>344.146064</ele>
        <time>2021-11-21T09:58:23.889Z</time>
      </trkpt>
      <trkpt lat="47.539031" lon="8.047867">
        <ele>344.438446</ele>
        <time>2021-11-21T09:58:26.926Z</time>
      </trkpt>
      <trkpt lat="47.539033" lon="8.048021">
        <ele>344.819683</ele>
        <time>2021-11-21T09:58:31.624Z</time>
      </trkpt>
      <trkpt lat="47.539026" lon="8.048166">
        <ele>345.179490</ele>
        <time>2021-11-21T09:58:34.819Z</time>
      </trkpt>
      <trkpt lat="47.539006" lon="8.048383">
        <ele>345.721571</ele>
        <time>2021-11-21T09:58:39.925Z</time>
      </trkpt>
      <trkpt lat="47.538982" lon="8.048678">
        <ele>346.345257</ele>
        <time>2021-11-21T09:58:47.358Z</time>
      </trkpt>
      <trkpt lat="47.538973" lon="8.048794">
        <ele>346.555495</ele>
        <time>2021-11-21T09:58:49.916Z</time>
      </trkpt>
      <trkpt lat="47.538944" lon="8.049341">
        <ele>347.543422</ele>
        <time>2021-11-21T09:59:02.122Z</time>
      </trkpt>
      <trkpt lat="47.538948" lon="8.049771">
        <ele>348.317728</ele>
        <time>2021-11-21T09:59:11.068Z</time>
      </trkpt>
      <trkpt lat="47.538953" lon="8.049910">
        <ele>348.568358</ele>
        <time>2021-11-21T09:59:14.022Z</time>
      </trkpt>
      <trkpt lat="47.538956" lon="8.050016">
        <ele>348.759383</ele>
        <time>2021-11-21T09:59:16.156Z</time>
      </trkpt>
      <trkpt lat="47.538984" lon="8.050399">
        <ele>349.453022</ele>
        <time>2021-11-21T09:59:24.169Z</time>
      </trkpt>
      <trkpt lat="47.538973" lon="8.051052">
        <ele>350.629140</ele>
        <time>2021-11-21T09:59:36.818Z</time>
      </trkpt>
      <trkpt lat="47.538833" lon="8.052273">
        <ele>351.906636</ele>
        <time>2021-11-21T09:59:58.311Z</time>
      </trkpt>
      <trkpt lat="47.538715" lon="8.052957">
        <ele>352.576918</ele>
        <time>2021-11-21T10:00:10.161Z</time>
      </trkpt>
      <trkpt lat="47.538674" lon="8.053197">
        <ele>352.811965</ele>
        <time>2021-11-21T10:00:14.137Z</time>
      </trkpt>
      <trkpt lat="47.538583" lon="8.053654">
        <ele>353.264339</ele>
        <time>2021-11-21T10:00:22.135Z</time>
      </trkpt>
      <trkpt lat="47.538491" lon="8.054121">
        <ele>353.932404</ele>
        <time>2021-11-21T10:00:30.587Z</time>
      </trkpt>
      <trkpt lat="47.538427" lon="8.054442">
        <ele>354.436074</ele>
        <time>2021-11-21T10:00:37.084Z</time>
      </trkpt>
      <trkpt lat="47.538306" lon="8.054779">
        <ele>355.010459</ele>
        <time>2021-11-21T10:00:44.480Z</time>
      </trkpt>
      <trkpt lat="47.538183" lon="8.055092">
        <ele>355.555453</ele>
        <time>2021-11-21T10:00:50.806Z</time>
      </trkpt>
      <trkpt lat="47.537993" lon="8.055523">
        <ele>356.330062</ele>
        <time>2021-11-21T10:01:01.054Z</time>
      </trkpt>
      <trkpt lat="47.537895" lon="8.055877">
        <ele>356.905819</ele>
        <time>2021-11-21T10:01:09.484Z</time>
      </trkpt>
      <trkpt lat="47.537864" lon="8.056030">
        <ele>357.146204</ele>
        <time>2021-11-21T10:01:12.901Z</time>
      </trkpt>
      <trkpt lat="47.537859" lon="8.056208">
        <ele>357.432746</ele>
        <time>2021-11-21T10:01:17.532Z</time>
      </trkpt>
      <trkpt lat="47.537899" lon="8.056997">
        <ele>359.324767</ele>
        <time>2021-11-21T10:01:35.081Z</time>
      </trkpt>
      <trkpt lat="47.537848" lon="8.057283">
        <ele>360.032125</ele>
        <time>2021-11-21T10:01:41.997Z</time>
      </trkpt>
      <trkpt lat="47.537656" lon="8.057838">
        <ele>361.523383</ele>
        <time>2021-11-21T10:01:56.876Z</time>
      </trkpt>
      <trkpt lat="47.537593" lon="8.058036">
        <ele>362.046807</ele>
        <time>2021-11-21T10:02:01.837Z</time>
      </trkpt>
      <trkpt lat="47.537529" lon="8.058320">
        <ele>362.762767</ele>
        <time>2021-11-21T10:02:09.407Z</time>
      </trkpt>
      <trkpt lat="47.537475" lon="8.059314">
        <ele>365.216275</ele>
        <time>2021-11-21T10:02:32.437Z</time>
      </trkpt>
      <trkpt lat="47.537493" lon="8.059634">
        <ele>366.022098</ele>
        <time>2021-11-21T10:02:40.516Z</time>
      </trkpt>
      <trkpt lat="47.537571" lon="8.060335">
        <ele>367.804991</ele>
        <time>2021-11-21T10:02:57.547Z</time>
      </trkpt>
      <trkpt lat="47.537603" lon="8.060999">
        <ele>369.475537</ele>
        <time>2021-11-21T10:03:12.872Z</time>
      </trkpt>
      <trkpt lat="47.537595" lon="8.061224">
        <ele>370.040956</ele>
        <time>2021-11-21T10:03:18.474Z</time>
      </trkpt>
      <trkpt lat="47.537559" lon="8.062222">
        <ele>372.437717</ele>
        <time>2021-11-21T10:03:41.896Z</time>
      </trkpt>
      <trkpt lat="47.537476" lon="8.062746">
        <ele>373.717137</ele>
        <time>2021-11-21T10:03:54.238Z</time>
      </trkpt>
      <trkpt lat="47.537270" lon="8.063432">
        <ele>375.501867</ele>
        <time>2021-11-21T10:04:11.543Z</time>
      </trkpt>
      <trkpt lat="47.537038" lon="8.064847">
        <ele>379.854513</ele>
        <time>2021-11-21T10:04:44.962Z</time>
      </trkpt>
      <trkpt lat="47.536914" lon="8.065266">
        <ele>381.384536</ele>
        <time>2021-11-21T10:04:56.406Z</time>
      </trkpt>
      <trkpt lat="47.536427" lon="8.066330">
        <ele>385.683972</ele>
        <time>2021-11-21T10:05:35.259Z</time>
      </trkpt>
      <trkpt lat="47.536006" lon="8.067287">
        <ele>391.185085</ele>
        <time>2021-11-21T10:06:11.839Z</time>
      </trkpt>
      <trkpt lat="47.535945" lon="8.067436">
        <ele>392.024312</ele>
        <time>2021-11-21T10:06:18.617Z</time>
      </trkpt>
      <trkpt lat="47.535939" lon="8.067597">
        <ele>392.800885</ele>
        <time>2021-11-21T10:06:23.578Z</time>
      </trkpt>
      <trkpt lat="47.535960" lon="8.067784">
        <ele>393.713869</ele>
        <time>2021-11-21T10:06:29.329Z</time>
      </trkpt>
      <trkpt lat="47.536104" lon="8.068166">
        <ele>395.820974</ele>
        <time>2021-11-21T10:06:44.479Z</time>
      </trkpt>
      <trkpt lat="47.536369" lon="8.069074">
        <ele>400.683561</ele>
        <time>2021-11-21T10:07:18.918Z</time>
      </trkpt>
      <trkpt lat="47.536923" lon="8.070135">
        <ele>407.450480</ele>
        <time>2021-11-21T10:08:01.978Z</time>
      </trkpt>
      <trkpt lat="47.537334" lon="8.071290">
        <ele>414.082726</ele>
        <time>2021-11-21T10:08:48.672Z</time>
      </trkpt>
      <trkpt lat="47.537481" lon="8.071822">
        <ele>417.045985</ele>
        <time>2021-11-21T10:09:08.984Z</time>
      </trkpt>
      <trkpt lat="47.537559" lon="8.072408">
        <ele>420.124945</ele>
        <time>2021-11-21T10:09:29.242Z</time>
      </trkpt>
      <trkpt lat="47.537572" lon="8.072672">
        <ele>421.489468</ele>
        <time>2021-11-21T10:09:38.817Z</time>
      </trkpt>
      <trkpt lat="47.537512" lon="8.072690">
        <ele>421.956915</ele>
        <time>2021-11-21T10:09:42.403Z</time>
      </trkpt>
      <trkpt lat="47.537393" lon="8.072662">
        <ele>422.876963</ele>
        <time>2021-11-21T10:09:46.966Z</time>
      </trkpt>
      <trkpt lat="47.537006" lon="8.072097">
        <ele>426.832205</ele>
        <time>2021-11-21T10:10:14.390Z</time>
      </trkpt>
      <trkpt lat="47.536020" lon="8.071103">
        <ele>434.618940</ele>
        <time>2021-11-21T10:11:09.746Z</time>
      </trkpt>
      <trkpt lat="47.535918" lon="8.071050">
        <ele>435.324651</ele>
        <time>2021-11-21T10:11:14.077Z</time>
      </trkpt>
      <trkpt lat="47.535887" lon="8.071035">
        <ele>435.537565</ele>
        <time>2021-11-21T10:11:15.426Z</time>
      </trkpt>
      <trkpt lat="47.535728" lon="8.070992">
        <ele>436.592784</ele>
        <time>2021-11-21T10:11:22.707Z</time>
      </trkpt>
      <trkpt lat="47.535478" lon="8.070870">
        <ele>438.469385</ele>
        <time>2021-11-21T10:11:33.947Z</time>
      </trkpt>
      <trkpt lat="47.534789" lon="8.070271">
        <ele>444.622813</ele>
        <time>2021-11-21T10:12:11.469Z</time>
      </trkpt>
      <trkpt lat="47.534520" lon="8.070183">
        <ele>446.744645</ele>
        <time>2021-11-21T10:12:26.046Z</time>
      </trkpt>
      <trkpt lat="47.534404" lon="8.070293">
        <ele>447.805525</ele>
        <time>2021-11-21T10:12:34.321Z</time>
      </trkpt>
      <trkpt lat="47.534012" lon="8.071300">
        <ele>454.370119</ele>
        <time>2021-11-21T10:13:19.622Z</time>
      </trkpt>
      <trkpt lat="47.533777" lon="8.071731">
        <ele>457.834995</ele>
        <time>2021-11-21T10:13:41.264Z</time>
      </trkpt>
      <trkpt lat="47.533672" lon="8.072117">
        <ele>460.437750</ele>
        <time>2021-11-21T10:13:57.810Z</time>
      </trkpt>
      <trkpt lat="47.533590" lon="8.072403">
        <ele>462.381102</ele>
        <time>2021-11-21T10:14:10.321Z</time>
      </trkpt>
      <trkpt lat="47.533487" lon="8.072753">
        <ele>464.769037</ele>
        <time>2021-11-21T10:14:24.265Z</time>
      </trkpt>
      <trkpt lat="47.533262" lon="8.073226">
        <ele>468.348309</ele>
        <time>2021-11-21T10:14:46.235Z</time>
      </trkpt>
      <trkpt lat="47.533059" lon="8.074119">
        <ele>473.712811</ele>
        <time>2021-11-21T10:15:22.199Z</time>
      </trkpt>
      <trkpt lat="47.532651" lon="8.074811">
        <ele>478.943305</ele>
        <time>2021-11-21T10:15:55.177Z</time>
      </trkpt>
      <trkpt lat="47.532606" lon="8.075283">
        <ele>481.657201</ele>
        <time>2021-11-21T10:16:11.767Z</time>
      </trkpt>
      <trkpt lat="47.532591" lon="8.075960">
        <ele>485.348953</ele>
        <time>2021-11-21T10:16:35.639Z</time>
      </trkpt>
      <trkpt lat="47.532628" lon="8.076519">
        <ele>488.327319</ele>
        <time>2021-11-21T10:16:55.256Z</time>
      </trkpt>
      <trkpt lat="47.532648" lon="8.076938">
        <ele>490.554655</ele>
        <time>2021-11-21T10:17:10.794Z</time>
      </trkpt>
      <trkpt lat="47.532480" lon="8.078097">
        <ele>496.840418</ele>
        <time>2021-11-21T10:17:53.325Z</time>
      </trkpt>
      <trkpt lat="47.532499" lon="8.078814">
        <ele>498.834492</ele>
        <time>2021-11-21T10:18:15.241Z</time>
      </trkpt>
      <trkpt lat="47.532498" lon="8.078982">
        <ele>499.251654</ele>
        <time>2021-11-21T10:18:20.465Z</time>
      </trkpt>
      <trkpt lat="47.532492" lon="8.079149">
        <ele>499.666905</ele>
        <time>2021-11-21T10:18:25.113Z</time>
      </trkpt>
      <trkpt lat="47.532411" lon="8.080863">
        <ele>503.742426</ele>
        <time>2021-11-21T10:19:01.426Z</time>
      </trkpt>
      <trkpt lat="47.532393" lon="8.080986">
        <ele>503.297207</ele>
        <time>2021-11-21T10:19:03.570Z</time>
      </trkpt>
      <trkpt lat="47.532210" lon="8.081146">
        <ele>502.183794</ele>
        <time>2021-11-21T10:19:10.414Z</time>
      </trkpt>
      <trkpt lat="47.532082" lon="8.081323">
        <ele>501.266285</ele>
        <time>2021-11-21T10:19:15.737Z</time>
      </trkpt>
      <trkpt lat="47.532029" lon="8.081397">
        <ele>500.884657</ele>
        <time>2021-11-21T10:19:17.872Z</time>
      </trkpt>
      <trkpt lat="47.532075" lon="8.081498">
        <ele>500.453676</ele>
        <time>2021-11-21T10:19:19.949Z</time>
      </trkpt>
      <trkpt lat="47.532168" lon="8.081807">
        <ele>499.256890</ele>
        <time>2021-11-21T10:19:26.241Z</time>
      </trkpt>
      <trkpt lat="47.532248" lon="8.082021">
        <ele>498.391564</ele>
        <time>2021-11-21T10:19:30.430Z</time>
      </trkpt>
      <trkpt lat="47.532398" lon="8.082333">
        <ele>497.036635</ele>
        <time>2021-11-21T10:19:37.286Z</time>
      </trkpt>
      <trkpt lat="47.532401" lon="8.082399">
        <ele>496.802630</ele>
        <time>2021-11-21T10:19:38.355Z</time>
      </trkpt>
      <trkpt lat="47.532538" lon="8.082835">
        <ele>495.101423</ele>
        <time>2021-11-21T10:19:46.710Z</time>
      </trkpt>
      <trkpt lat="47.532665" lon="8.083168">
        <ele>493.020840</ele>
        <time>2021-11-21T10:19:49.899Z</time>
      </trkpt>
      <trkpt lat="47.532839" lon="8.083817">
        <ele>487.915727</ele>
        <time>2021-11-21T10:19:55.535Z</time>
      </trkpt>
      <trkpt lat="47.533247" lon="8.085337">
        <ele>475.957356</ele>
        <time>2021-11-21T10:20:08.761Z</time>
      </trkpt>
      <trkpt lat="47.533310" lon="8.085526">
        <ele>474.537612</ele>
        <time>2021-11-21T10:20:10.487Z</time>
      </trkpt>
      <trkpt lat="47.533387" lon="8.085705">
        <ele>473.335330</ele>
        <time>2021-11-21T10:20:12.222Z</time>
      </trkpt>
      <trkpt lat="47.533660" lon="8.086493">
        <ele>468.318273</ele>
        <time>2021-11-21T10:20:19.699Z</time>
      </trkpt>
      <trkpt lat="47.534340" lon="8.087715">
        <ele>459.507889</ele>
        <time>2021-11-21T10:20:33.146Z</time>
      </trkpt>
      <trkpt lat="47.534440" lon="8.088097">
        <ele>457.905875</ele>
        <time>2021-11-21T10:20:36.831Z</time>
      </trkpt>
      <trkpt lat="47.534443" lon="8.088532">
        <ele>456.204887</ele>
        <time>2021-11-21T10:20:40.775Z</time>
      </trkpt>
      <trkpt lat="47.534411" lon="8.088801">
        <ele>455.136864</ele>
        <time>2021-11-21T10:20:43.217Z</time>
      </trkpt>
      <trkpt lat="47.534372" lon="8.089134">
        <ele>453.815350</ele>
        <time>2021-11-21T10:20:46.270Z</time>
      </trkpt>
      <trkpt lat="47.534398" lon="8.089395">
        <ele>452.783760</ele>
        <time>2021-11-21T10:20:48.662Z</time>
      </trkpt>
      <trkpt lat="47.534465" lon="8.089563">
        <ele>452.020815</ele>
        <time>2021-11-21T10:20:50.438Z</time>
      </trkpt>
      <trkpt lat="47.534647" lon="8.089763">
        <ele>450.708343</ele>
        <time>2021-11-21T10:20:53.447Z</time>
      </trkpt>
      <trkpt lat="47.535386" lon="8.090356">
        <ele>445.735971</ele>
        <time>2021-11-21T10:21:04.587Z</time>
      </trkpt>
      <trkpt lat="47.536180" lon="8.090440">
        <ele>440.991932</ele>
        <time>2021-11-21T10:21:15.133Z</time>
      </trkpt>
      <trkpt lat="47.536552" lon="8.090941">
        <ele>437.881767</ele>
        <time>2021-11-21T10:21:21.608Z</time>
      </trkpt>
      <trkpt lat="47.536904" lon="8.091241">
        <ele>435.085550</ele>
        <time>2021-11-21T10:21:26.809Z</time>
      </trkpt>
      <trkpt lat="47.537238" lon="8.091660">
        <ele>432.071884</ele>
        <time>2021-11-21T10:21:32.425Z</time>
      </trkpt>
      <trkpt lat="47.537488" lon="8.091884">
        <ele>430.060116</ele>
        <time>2021-11-21T10:21:36.175Z</time>
      </trkpt>
      <trkpt lat="47.537759" lon="8.092283">
        <ele>427.429216</ele>
        <time>2021-11-21T10:21:41.102Z</time>
      </trkpt>
      <trkpt lat="47.538314" lon="8.092603">
        <ele>423.191166</ele>
        <time>2021-11-21T10:21:48.705Z</time>
      </trkpt>
      <trkpt lat="47.538444" lon="8.092823">
        <ele>421.770214</ele>
        <time>2021-11-21T10:21:51.230Z</time>
      </trkpt>
      <trkpt lat="47.538620" lon="8.093580">
        <ele>417.879072</ele>
        <time>2021-11-21T10:21:58.110Z</time>
      </trkpt>
      <trkpt lat="47.538828" lon="8.094052">
        <ele>415.139651</ele>
        <time>2021-11-21T10:22:02.946Z</time>
      </trkpt>
      <trkpt lat="47.538951" lon="8.094301">
        <ele>413.640133</ele>
        <time>2021-11-21T10:22:05.567Z</time>
      </trkpt>
      <trkpt lat="47.539083" lon="8.094449">
        <ele>412.529582</ele>
        <time>2021-11-21T10:22:07.738Z</time>
      </trkpt>
      <trkpt lat="47.539265" lon="8.094521">
        <ele>411.289835</ele>
        <time>2021-11-21T10:22:10.118Z</time>
      </trkpt>
      <trkpt lat="47.539362" lon="8.094677">
        <ele>410.347563</ele>
        <time>2021-11-21T10:22:12.021Z</time>
      </trkpt>
      <trkpt lat="47.539372" lon="8.094898">
        <ele>409.363497</ele>
        <time>2021-11-21T10:22:13.928Z</time>
      </trkpt>
      <trkpt lat="47.539233" lon="8.094966">
        <ele>408.400123</ele>
        <time>2021-11-21T10:22:15.794Z</time>
      </trkpt>
      <trkpt lat="47.537967" lon="8.095253">
        <ele>399.793585</ele>
        <time>2021-11-21T10:22:32.546Z</time>
      </trkpt>
      <trkpt lat="47.537888" lon="8.095187">
        <ele>399.129781</ele>
        <time>2021-11-21T10:22:33.699Z</time>
      </trkpt>
      <trkpt lat="47.537704" lon="8.095035">
        <ele>397.587864</ele>
        <time>2021-11-21T10:22:36.442Z</time>
      </trkpt>
      <trkpt lat="47.537508" lon="8.094323">
        <ele>393.788691</ele>
        <time>2021-11-21T10:22:43.098Z</time>
      </trkpt>
      <trkpt lat="47.537411" lon="8.094216">
        <ele>392.903540</ele>
        <time>2021-11-21T10:22:44.615Z</time>
      </trkpt>
      <trkpt lat="47.537302" lon="8.094158">
        <ele>392.055882</ele>
        <time>2021-11-21T10:22:46.083Z</time>
      </trkpt>
      <trkpt lat="47.537203" lon="8.094156">
        <ele>391.331257</ele>
        <time>2021-11-21T10:22:47.345Z</time>
      </trkpt>
      <trkpt lat="47.537087" lon="8.094177">
        <ele>390.475963</ele>
        <time>2021-11-21T10:22:48.787Z</time>
      </trkpt>
      <trkpt lat="47.536898" lon="8.094261">
        <ele>389.031791</ele>
        <time>2021-11-21T10:22:51.311Z</time>
      </trkpt>
      <trkpt lat="47.536961" lon="8.094427">
        <ele>388.053856</ele>
        <time>2021-11-21T10:22:52.884Z</time>
      </trkpt>
      <trkpt lat="47.537064" lon="8.094756">
        <ele>386.043175</ele>
        <time>2021-11-21T10:22:55.988Z</time>
      </trkpt>
      <trkpt lat="47.537047" lon="8.094908">
        <ele>385.188947</ele>
        <time>2021-11-21T10:22:57.242Z</time>
      </trkpt>
      <trkpt lat="47.536929" lon="8.095436">
        <ele>382.105297</ele>
        <time>2021-11-21T10:23:01.859Z</time>
      </trkpt>
      <trkpt lat="47.536939" lon="8.095692">
        <ele>380.683566</ele>
        <time>2021-11-21T10:23:04.017Z</time>
      </trkpt>
      <trkpt lat="47.537253" lon="8.096536">
        <ele>375.340642</ele>
        <time>2021-11-21T10:23:12.132Z</time>
      </trkpt>
      <trkpt lat="47.537447" lon="8.096947">
        <ele>372.971142</ele>
        <time>2021-11-21T10:23:16.484Z</time>
      </trkpt>
      <trkpt lat="47.537626" lon="8.097409">
        <ele>371.160140</ele>
        <time>2021-11-21T10:23:21.258Z</time>
      </trkpt>
      <trkpt lat="47.537916" lon="8.098197">
        <ele>368.108893</ele>
        <time>2021-11-21T10:23:29.423Z</time>
      </trkpt>
      <trkpt lat="47.538501" lon="8.098992">
        <ele>364.314393</ele>
        <time>2021-11-21T10:23:40.540Z</time>
      </trkpt>
      <trkpt lat="47.538523" lon="8.099093">
        <ele>364.115383</ele>
        <time>2021-11-21T10:23:41.662Z</time>
      </trkpt>
      <trkpt lat="47.538521" lon="8.099232">
        <ele>363.854671</ele>
        <time>2021-11-21T10:23:43.090Z</time>
      </trkpt>
      <trkpt lat="47.538655" lon="8.099217">
        <ele>363.481399</ele>
        <time>2021-11-21T10:23:44.399Z</time>
      </trkpt>
      <trkpt lat="47.538959" lon="8.099139">
        <ele>362.624407</ele>
        <time>2021-11-21T10:23:47.636Z</time>
      </trkpt>
      <trkpt lat="47.539852" lon="8.098671">
        <ele>359.993263</ele>
        <time>2021-11-21T10:23:57.465Z</time>
      </trkpt>
      <trkpt lat="47.540568" lon="8.098437">
        <ele>359.697914</ele>
        <time>2021-11-21T10:24:05.812Z</time>
      </trkpt>
      <trkpt lat="47.540794" lon="8.098369">
        <ele>359.749267</ele>
        <time>2021-11-21T10:24:09.076Z</time>
      </trkpt>
      <trkpt lat="47.541022" lon="8.098264">
        <ele>359.802435</ele>
        <time>2021-11-21T10:24:13.226Z</time>
      </trkpt>
      <trkpt lat="47.541294" lon="8.098103">
        <ele>359.867660</ele>
        <time>2021-11-21T10:24:18.601Z</time>
      </trkpt>
      <trkpt lat="47.541331" lon="8.098259">
        <ele>359.892516</ele>
        <time>2021-11-21T10:24:21.713Z</time>
      </trkpt>
      <trkpt lat="47.541600" lon="8.098858">
        <ele>360.542464</ele>
        <time>2021-11-21T10:24:35.040Z</time>
      </trkpt>
      <trkpt lat="47.541634" lon="8.098967">
        <ele>360.871338</ele>
        <time>2021-11-21T10:24:37.698Z</time>
      </trkpt>
      <trkpt lat="47.541690" lon="8.099150">
        <ele>361.421655</ele>
        <time>2021-11-21T10:24:42.365Z</time>
      </trkpt>
      <trkpt lat="47.541717" lon="8.099238">
        <ele>361.686408</ele>
        <time>2021-11-21T10:24:44.765Z</time>
      </trkpt>
      <trkpt lat="47.541847" lon="8.099787">
        <ele>363.279900</ele>
        <time>2021-11-21T10:24:58.944Z</time>
      </trkpt>
      <trkpt lat="47.541894" lon="8.100661">
        <ele>365.681292</ele>
        <time>2021-11-21T10:25:21.529Z</time>
      </trkpt>
      <trkpt lat="47.541839" lon="8.101088">
        <ele>366.871908</ele>
        <time>2021-11-21T10:25:34.049Z</time>
      </trkpt>
      <trkpt lat="47.541851" lon="8.101428">
        <ele>367.908087</ele>
        <time>2021-11-21T10:25:44.219Z</time>
      </trkpt>
      <trkpt lat="47.542029" lon="8.102904">
        <ele>372.806833</ele>
        <time>2021-11-21T10:26:24.394Z</time>
      </trkpt>
      <trkpt lat="47.542031" lon="8.103252">
        <ele>373.943861</ele>
        <time>2021-11-21T10:26:33.454Z</time>
      </trkpt>
      <trkpt lat="47.542070" lon="8.103279">
        <ele>374.152214</ele>
        <time>2021-11-21T10:26:35.400Z</time>
      </trkpt>
      <trkpt lat="47.542257" lon="8.103443">
        <ele>375.204000</ele>
        <time>2021-11-21T10:26:43.816Z</time>
      </trkpt>
      <trkpt lat="47.542390" lon="8.103412">
        <ele>375.855632</ele>
        <time>2021-11-21T10:26:48.466Z</time>
      </trkpt>
      <trkpt lat="47.542424" lon="8.103404">
        <ele>376.030351</ele>
        <time>2021-11-21T10:26:49.767Z</time>
      </trkpt>
      <trkpt lat="47.542536" lon="8.103244">
        <ele>376.905347</ele>
        <time>2021-11-21T10:26:55.386Z</time>
      </trkpt>
      <trkpt lat="47.542561" lon="8.102981">
        <ele>377.913587</ele>
        <time>2021-11-21T10:27:02.253Z</time>
      </trkpt>
      <trkpt lat="47.542510" lon="8.102462">
        <ele>379.904559</ele>
        <time>2021-11-21T10:27:16.246Z</time>
      </trkpt>
      <trkpt lat="47.542503" lon="8.102285">
        <ele>380.577632</ele>
        <time>2021-11-21T10:27:21.503Z</time>
      </trkpt>
      <trkpt lat="47.542577" lon="8.101899">
        <ele>382.100896</ele>
        <time>2021-11-21T10:27:32.479Z</time>
      </trkpt>
      <trkpt lat="47.542852" lon="8.101208">
        <ele>385.145969</ele>
        <time>2021-11-21T10:27:56.051Z</time>
      </trkpt>
      <trkpt lat="47.543027" lon="8.100889">
        <ele>386.948982</ele>
        <time>2021-11-21T10:28:11.832Z</time>
      </trkpt>
      <trkpt lat="47.543585" lon="8.100026">
        <ele>393.262252</ele>
        <time>2021-11-21T10:28:51.866Z</time>
      </trkpt>
      <trkpt lat="47.543626" lon="8.099974">
        <ele>393.684660</ele>
        <time>2021-11-21T10:28:55.301Z</time>
      </trkpt>
      <trkpt lat="47.543723" lon="8.100009">
        <ele>394.465999</ele>
        <time>2021-11-21T10:29:02.053Z</time>
      </trkpt>
      <trkpt lat="47.543822" lon="8.100121">
        <ele>395.440886</ele>
        <time>2021-11-21T10:29:07.411Z</time>
      </trkpt>
      <trkpt lat="47.543873" lon="8.100334">
        <ele>396.634839</ele>
        <time>2021-11-21T10:29:15.045Z</time>
      </trkpt>
      <trkpt lat="47.543879" lon="8.100475">
        <ele>397.381208</ele>
        <time>2021-11-21T10:29:21.683Z</time>
      </trkpt>
      <trkpt lat="47.543866" lon="8.100680">
        <ele>398.468973</ele>
        <time>2021-11-21T10:29:27.664Z</time>
      </trkpt>
      <trkpt lat="47.543826" lon="8.101264">
        <ele>401.539353</ele>
        <time>2021-11-21T10:29:47.734Z</time>
      </trkpt>
      <trkpt lat="47.543817" lon="8.101400">
        <ele>402.245523</ele>
        <time>2021-11-21T10:29:53.105Z</time>
      </trkpt>
      <trkpt lat="47.543833" lon="8.101783">
        <ele>404.228520</ele>
        <time>2021-11-21T10:30:06.424Z</time>
      </trkpt>
      <trkpt lat="47.543919" lon="8.102097">
        <ele>405.979639</ele>
        <time>2021-11-21T10:30:20.169Z</time>
      </trkpt>
      <trkpt lat="47.544294" lon="8.102728">
        <ele>410.324080</ele>
        <time>2021-11-21T10:30:46.821Z</time>
      </trkpt>
      <trkpt lat="47.544415" lon="8.103199">
        <ele>412.928331</ele>
        <time>2021-11-21T10:31:02.852Z</time>
      </trkpt>
      <trkpt lat="47.544919" lon="8.104043">
        <ele>419.665287</ele>
        <time>2021-11-21T10:31:42.428Z</time>
      </trkpt>
      <trkpt lat="47.545065" lon="8.104367">
        <ele>422.060151</ele>
        <time>2021-11-21T10:31:56.670Z</time>
      </trkpt>
      <trkpt lat="47.545423" lon="8.106082">
        <ele>434.015650</ele>
        <time>2021-11-21T10:33:10.239Z</time>
      </trkpt>
      <trkpt lat="47.545518" lon="8.107226">
        <ele>443.444428</ele>
        <time>2021-11-21T10:34:04.745Z</time>
      </trkpt>
      <trkpt lat="47.545547" lon="8.107728">
        <ele>447.565928</ele>
        <time>2021-11-21T10:34:27.083Z</time>
      </trkpt>
      <trkpt lat="47.545551" lon="8.107799">
        <ele>448.148746</ele>
        <time>2021-11-21T10:34:32.453Z</time>
      </trkpt>
      <trkpt lat="47.545512" lon="8.109419">
        <ele>460.920247</ele>
        <time>2021-11-21T10:35:51.729Z</time>
      </trkpt>
      <trkpt lat="47.545325" lon="8.109906">
        <ele>465.262494</ele>
        <time>2021-11-21T10:36:18.569Z</time>
      </trkpt>
      <trkpt lat="47.545250" lon="8.110536">
        <ele>470.220419</ele>
        <time>2021-11-21T10:36:42.214Z</time>
      </trkpt>
      <trkpt lat="47.545218" lon="8.110683">
        <ele>471.417465</ele>
        <time>2021-11-21T10:36:49.475Z</time>
      </trkpt>
      <trkpt lat="47.545172" lon="8.110829">
        <ele>472.666175</ele>
        <time>2021-11-21T10:36:56.737Z</time>
      </trkpt>
      <trkpt lat="47.544737" lon="8.111813">
        <ele>478.271564</ele>
        <time>2021-11-21T10:37:37.969Z</time>
      </trkpt>
      <trkpt lat="47.544623" lon="8.112471">
        <ele>481.487217</ele>
        <time>2021-11-21T10:37:59.072Z</time>
      </trkpt>
      <trkpt lat="47.544623" lon="8.112669">
        <ele>482.424467</ele>
        <time>2021-11-21T10:38:07.219Z</time>
      </trkpt>
      <trkpt lat="47.544646" lon="8.112743">
        <ele>482.810101</ele>
        <time>2021-11-21T10:38:09.956Z</time>
      </trkpt>
      <trkpt lat="47.544669" lon="8.112802">
        <ele>483.132610</ele>
        <time>2021-11-21T10:38:11.575Z</time>
      </trkpt>
      <trkpt lat="47.544720" lon="8.112827">
        <ele>483.509321</ele>
        <time>2021-11-21T10:38:12.974Z</time>
      </trkpt>
      <trkpt lat="47.544930" lon="8.112757">
        <ele>485.018775</ele>
        <time>2021-11-21T10:38:21.531Z</time>
      </trkpt>
      <trkpt lat="47.545402" lon="8.112171">
        <ele>488.013619</ele>
        <time>2021-11-21T10:38:43.490Z</time>
      </trkpt>
      <trkpt lat="47.545880" lon="8.112015">
        <ele>490.299101</ele>
        <time>2021-11-21T10:39:02.843Z</time>
      </trkpt>
      <trkpt lat="47.546382" lon="8.111534">
        <ele>493.090662</ele>
        <time>2021-11-21T10:39:24.294Z</time>
      </trkpt>
      <trkpt lat="47.546768" lon="8.111251">
        <ele>495.587290</ele>
        <time>2021-11-21T10:39:41.789Z</time>
      </trkpt>
      <trkpt lat="47.547417" lon="8.110419">
        <ele>501.060925</ele>
        <time>2021-11-21T10:40:24.330Z</time>
      </trkpt>
      <trkpt lat="47.547740" lon="8.109862">
        <ele>504.222094</ele>
        <time>2021-11-21T10:40:48.194Z</time>
      </trkpt>
      <trkpt lat="47.547828" lon="8.109723">
        <ele>505.042481</ele>
        <time>2021-11-21T10:40:53.448Z</time>
      </trkpt>
      <trkpt lat="47.548054" lon="8.109451">
        <ele>506.709919</ele>
        <time>2021-11-21T10:41:06.665Z</time>
      </trkpt>
      <trkpt lat="47.548282" lon="8.109350">
        <ele>508.053671</ele>
        <time>2021-11-21T10:41:16.604Z</time>
      </trkpt>
      <trkpt lat="47.548310" lon="8.109338">
        <ele>508.218259</ele>
        <time>2021-11-21T10:41:17.939Z</time>
      </trkpt>
      <trkpt lat="47.548499" lon="8.109362">
        <ele>509.289387</ele>
        <time>2021-11-21T10:41:25.118Z</time>
      </trkpt>
      <trkpt lat="47.548568" lon="8.109396">
        <ele>509.699990</ele>
        <time>2021-11-21T10:41:29.347Z</time>
      </trkpt>
      <trkpt lat="47.548534" lon="8.109612">
        <ele>510.545318</ele>
        <time>2021-11-21T10:41:38.192Z</time>
      </trkpt>
      <trkpt lat="47.548434" lon="8.109656">
        <ele>511.134358</ele>
        <time>2021-11-21T10:41:42.032Z</time>
      </trkpt>
      <trkpt lat="47.548141" lon="8.110019">
        <ele>513.291056</ele>
        <time>2021-11-21T10:41:58.687Z</time>
      </trkpt>
      <trkpt lat="47.548051" lon="8.110153">
        <ele>514.011539</ele>
        <time>2021-11-21T10:42:04.633Z</time>
      </trkpt>
      <trkpt lat="47.547928" lon="8.110557">
        <ele>515.568979</ele>
        <time>2021-11-21T10:42:17.617Z</time>
      </trkpt>
      <trkpt lat="47.547950" lon="8.111046">
        <ele>516.613436</ele>
        <time>2021-11-21T10:42:30.102Z</time>
      </trkpt>
      <trkpt lat="47.547979" lon="8.111255">
        <ele>517.068166</ele>
        <time>2021-11-21T10:42:35.602Z</time>
      </trkpt>
      <trkpt lat="47.547927" lon="8.111402">
        <ele>517.421865</ele>
        <time>2021-11-21T10:42:38.839Z</time>
      </trkpt>
      <trkpt lat="47.547871" lon="8.111610">
        <ele>517.899112</ele>
        <time>2021-11-21T10:42:43.588Z</time>
      </trkpt>
      <trkpt lat="47.547830" lon="8.111764">
        <ele>518.251921</ele>
        <time>2021-11-21T10:42:46.850Z</time>
      </trkpt>
      <trkpt lat="47.547780" lon="8.111967">
        <ele>518.712455</ele>
        <time>2021-11-21T10:42:51.741Z</time>
      </trkpt>
      <trkpt lat="47.547768" lon="8.112017">
        <ele>518.825550</ele>
        <time>2021-11-21T10:42:53.392Z</time>
      </trkpt>
      <trkpt lat="47.547722" lon="8.112390">
        <ele>519.633641</ele>
        <time>2021-11-21T10:43:00.288Z</time>
      </trkpt>
      <trkpt lat="47.547718" lon="8.112483">
        <ele>519.832243</ele>
        <time>2021-11-21T10:43:02.735Z</time>
      </trkpt>
      <trkpt lat="47.547707" lon="8.112811">
        <ele>520.532133</ele>
        <time>2021-11-21T10:43:09.714Z</time>
      </trkpt>
      <trkpt lat="47.547696" lon="8.112851">
        <ele>520.624184</ele>
        <time>2021-11-21T10:43:10.281Z</time>
      </trkpt>
      <trkpt lat="47.547654" lon="8.113053">
        <ele>521.074646</ele>
        <time>2021-11-21T10:43:15.067Z</time>
      </trkpt>
      <trkpt lat="47.547133" lon="8.114285">
        <ele>520.084499</ele>
        <time>2021-11-21T10:43:36.377Z</time>
      </trkpt>
      <trkpt lat="47.547023" lon="8.114647">
        <ele>519.811840</ele>
        <time>2021-11-21T10:43:40.939Z</time>
      </trkpt>
      <trkpt lat="47.546775" lon="8.116163">
        <ele>516.731720</ele>
        <time>2021-11-21T10:43:55.637Z</time>
      </trkpt>
      <trkpt lat="47.546660" lon="8.117289">
        <ele>512.870731</ele>
        <time>2021-11-21T10:44:05.997Z</time>
      </trkpt>
      <trkpt lat="47.546029" lon="8.119239">
        <ele>504.857704</ele>
        <time>2021-11-21T10:44:25.175Z</time>
      </trkpt>
      <trkpt lat="47.545660" lon="8.120605">
        <ele>499.231393</ele>
        <time>2021-11-21T10:44:38.356Z</time>
      </trkpt>
      <trkpt lat="47.545599" lon="8.120815">
        <ele>498.452252</ele>
        <time>2021-11-21T10:44:40.325Z</time>
      </trkpt>
      <trkpt lat="47.545552" lon="8.120757">
        <ele>498.143412</ele>
        <time>2021-11-21T10:44:41.222Z</time>
      </trkpt>
      <trkpt lat="47.545493" lon="8.120704">
        <ele>497.795042</ele>
        <time>2021-11-21T10:44:42.188Z</time>
      </trkpt>
      <trkpt lat="47.545343" lon="8.120625">
        <ele>496.991272</ele>
        <time>2021-11-21T10:44:44.312Z</time>
      </trkpt>
      <trkpt lat="47.545226" lon="8.120573">
        <ele>496.374539</ele>
        <time>2021-11-21T10:44:45.935Z</time>
      </trkpt>
      <trkpt lat="47.544644" lon="8.120315">
        <ele>493.307338</ele>
        <time>2021-11-21T10:44:54.173Z</time>
      </trkpt>
      <trkpt lat="47.544444" lon="8.120306">
        <ele>492.297091</ele>
        <time>2021-11-21T10:44:56.923Z</time>
      </trkpt>
      <trkpt lat="47.544195" lon="8.120445">
        <ele>490.953619</ele>
        <time>2021-11-21T10:45:00.497Z</time>
      </trkpt>
      <trkpt lat="47.543797" lon="8.120870">
        <ele>488.847025</ele>
        <time>2021-11-21T10:45:07.312Z</time>
      </trkpt>
      <trkpt lat="47.543667" lon="8.120893">
        <ele>488.292090</ele>
        <time>2021-11-21T10:45:09.098Z</time>
      </trkpt>
      <trkpt lat="47.543249" lon="8.120753">
        <ele>486.475631</ele>
        <time>2021-11-21T10:45:14.994Z</time>
      </trkpt>
      <trkpt lat="47.542862" lon="8.120539">
        <ele>484.724734</ele>
        <time>2021-11-21T10:45:20.772Z</time>
      </trkpt>
      <trkpt lat="47.542556" lon="8.120380">
        <ele>483.350245</ele>
        <time>2021-11-21T10:45:25.329Z</time>
      </trkpt>
      <trkpt lat="47.542397" lon="8.120269">
        <ele>482.791166</ele>
        <time>2021-11-21T10:45:27.845Z</time>
      </trkpt>
      <trkpt lat="47.542112" lon="8.120175">
        <ele>481.967394</ele>
        <time>2021-11-21T10:45:32.004Z</time>
      </trkpt>
      <trkpt lat="47.541299" lon="8.119897">
        <ele>479.613325</ele>
        <time>2021-11-21T10:45:44.229Z</time>
      </trkpt>
      <trkpt lat="47.540798" lon="8.119697">
        <ele>478.149405</ele>
        <time>2021-11-21T10:45:52.437Z</time>
      </trkpt>
      <trkpt lat="47.540140" lon="8.119357">
        <ele>477.552444</ele>
        <time>2021-11-21T10:46:04.338Z</time>
      </trkpt>
      <trkpt lat="47.539737" lon="8.119119">
        <ele>477.208868</ele>
        <time>2021-11-21T10:46:11.983Z</time>
      </trkpt>
      <trkpt lat="47.539622" lon="8.119051">
        <ele>477.110808</ele>
        <time>2021-11-21T10:46:14.369Z</time>
      </trkpt>
      <trkpt lat="47.538656" lon="8.118654">
        <ele>476.400880</ele>
        <time>2021-11-21T10:46:34.341Z</time>
      </trkpt>
      <trkpt lat="47.537405" lon="8.118469">
        <ele>475.647286</ele>
        <time>2021-11-21T10:47:00.266Z</time>
      </trkpt>
      <trkpt lat="47.536803" lon="8.118426">
        <ele>472.974773</ele>
        <time>2021-11-21T10:47:08.799Z</time>
      </trkpt>
      <trkpt lat="47.536450" lon="8.118473">
        <ele>471.115648</ele>
        <time>2021-11-21T10:47:13.636Z</time>
      </trkpt>
      <trkpt lat="47.536293" lon="8.118486">
        <ele>470.290820</ele>
        <time>2021-11-21T10:47:15.810Z</time>
      </trkpt>
      <trkpt lat="47.536158" lon="8.118503">
        <ele>469.580124</ele>
        <time>2021-11-21T10:47:17.591Z</time>
      </trkpt>
      <trkpt lat="47.536161" lon="8.118622">
        <ele>469.158408</ele>
        <time>2021-11-21T10:47:18.593Z</time>
      </trkpt>
      <trkpt lat="47.536174" lon="8.118698">
        <ele>468.880761</ele>
        <time>2021-11-21T10:47:19.337Z</time>
      </trkpt>
      <trkpt lat="47.536202" lon="8.118815">
        <ele>468.441160</ele>
        <time>2021-11-21T10:47:20.436Z</time>
      </trkpt>
      <trkpt lat="47.536288" lon="8.119124">
        <ele>467.257543</ele>
        <time>2021-11-21T10:47:23.277Z</time>
      </trkpt>
      <trkpt lat="47.536488" lon="8.119568">
        <ele>464.792493</ele>
        <time>2021-11-21T10:47:27.805Z</time>
      </trkpt>
      <trkpt lat="47.536908" lon="8.120043">
        <ele>459.983366</ele>
        <time>2021-11-21T10:47:34.376Z</time>
      </trkpt>
      <trkpt lat="47.537093" lon="8.120151">
        <ele>458.173672</ele>
        <time>2021-11-21T10:47:36.780Z</time>
      </trkpt>
      <trkpt lat="47.537744" lon="8.120294">
        <ele>452.184248</ele>
        <time>2021-11-21T10:47:44.870Z</time>
      </trkpt>
      <trkpt lat="47.538213" lon="8.121177">
        <ele>445.318768</ele>
        <time>2021-11-21T10:47:54.173Z</time>
      </trkpt>
      <trkpt lat="47.538673" lon="8.121609">
        <ele>440.403163</ele>
        <time>2021-11-21T10:48:00.950Z</time>
      </trkpt>
      <trkpt lat="47.538759" lon="8.121738">
        <ele>439.298552</ele>
        <time>2021-11-21T10:48:02.439Z</time>
      </trkpt>
      <trkpt lat="47.538882" lon="8.122037">
        <ele>437.165245</ele>
        <time>2021-11-21T10:48:05.451Z</time>
      </trkpt>
      <trkpt lat="47.539299" lon="8.123012">
        <ele>430.716679</ele>
        <time>2021-11-21T10:48:15.042Z</time>
      </trkpt>
      <trkpt lat="47.539607" lon="8.124056">
        <ele>424.961648</ele>
        <time>2021-11-21T10:48:24.684Z</time>
      </trkpt>
      <trkpt lat="47.539695" lon="8.124266">
        <ele>423.713152</ele>
        <time>2021-11-21T10:48:26.871Z</time>
      </trkpt>
      <trkpt lat="47.539814" lon="8.124463">
        <ele>422.377862</ele>
        <time>2021-11-21T10:48:29.228Z</time>
      </trkpt>
      <trkpt lat="47.540400" lon="8.125305">
        <ele>417.259461</ele>
        <time>2021-11-21T10:48:40.103Z</time>
      </trkpt>
      <trkpt lat="47.540664" lon="8.125536">
        <ele>415.559889</ele>
        <time>2021-11-21T10:48:44.159Z</time>
      </trkpt>
      <trkpt lat="47.540686" lon="8.125570">
        <ele>415.383659</ele>
        <time>2021-11-21T10:48:44.562Z</time>
      </trkpt>
      <trkpt lat="47.540800" lon="8.125754">
        <ele>414.449132</ele>
        <time>2021-11-21T10:48:46.764Z</time>
      </trkpt>
      <trkpt lat="47.540882" lon="8.126176">
        <ele>412.805945</ele>
        <time>2021-11-21T10:48:50.794Z</time>
      </trkpt>
      <trkpt lat="47.540899" lon="8.126837">
        <ele>410.330772</ele>
        <time>2021-11-21T10:48:56.786Z</time>
      </trkpt>
      <trkpt lat="47.540893" lon="8.127017">
        <ele>409.651742</ele>
        <time>2021-11-21T10:48:58.448Z</time>
      </trkpt>
      <trkpt lat="47.540987" lon="8.127386">
        <ele>408.161063</ele>
        <time>2021-11-21T10:49:01.946Z</time>
      </trkpt>
      <trkpt lat="47.541228" lon="8.128089">
        <ele>405.181008</ele>
        <time>2021-11-21T10:49:08.973Z</time>
      </trkpt>
      <trkpt lat="47.541352" lon="8.128420">
        <ele>403.750230</ele>
        <time>2021-11-21T10:49:12.266Z</time>
      </trkpt>
      <trkpt lat="47.541394" lon="8.128512">
        <ele>403.330458</ele>
        <time>2021-11-21T10:49:13.277Z</time>
      </trkpt>
      <trkpt lat="47.542025" lon="8.130249">
        <ele>396.696509</ele>
        <time>2021-11-21T10:49:31.132Z</time>
      </trkpt>
      <trkpt lat="47.542446" lon="8.131364">
        <ele>392.818148</ele>
        <time>2021-11-21T10:49:43.139Z</time>
      </trkpt>
      <trkpt lat="47.542585" lon="8.131744">
        <ele>391.633486</ele>
        <time>2021-11-21T10:49:47.295Z</time>
      </trkpt>
      <trkpt lat="47.542759" lon="8.132117">
        <ele>390.643089</ele>
        <time>2021-11-21T10:49:51.759Z</time>
      </trkpt>
      <trkpt lat="47.542820" lon="8.132240">
        <ele>390.309695</ele>
        <time>2021-11-21T10:49:53.296Z</time>
      </trkpt>
      <trkpt lat="47.542923" lon="8.132422">
        <ele>389.790908</ele>
        <time>2021-11-21T10:49:55.674Z</time>
      </trkpt>
      <trkpt lat="47.543205" lon="8.132907">
        <ele>388.392665</ele>
        <time>2021-11-21T10:50:02.082Z</time>
      </trkpt>
      <trkpt lat="47.543258" lon="8.132977">
        <ele>388.162896</ele>
        <time>2021-11-21T10:50:03.103Z</time>
      </trkpt>
      <trkpt lat="47.543327" lon="8.133043">
        <ele>387.897118</ele>
        <time>2021-11-21T10:50:04.284Z</time>
      </trkpt>
      <trkpt lat="47.543232" lon="8.133457">
        <ele>386.941971</ele>
        <time>2021-11-21T10:50:08.503Z</time>
      </trkpt>
      <trkpt lat="47.543188" lon="8.133671">
        <ele>386.453315</ele>
        <time>2021-11-21T10:50:10.722Z</time>
      </trkpt>
      <trkpt lat="47.543186" lon="8.133718">
        <ele>386.350446</ele>
        <time>2021-11-21T10:50:11.161Z</time>
      </trkpt>
      <trkpt lat="47.543220" lon="8.133852">
        <ele>386.060133</ele>
        <time>2021-11-21T10:50:12.556Z</time>
      </trkpt>
      <trkpt lat="47.543321" lon="8.133795">
        <ele>385.786909</ele>
        <time>2021-11-21T10:50:13.618Z</time>
      </trkpt>
      <trkpt lat="47.543505" lon="8.133721">
        <ele>385.304928</ele>
        <time>2021-11-21T10:50:15.605Z</time>
      </trkpt>
      <trkpt lat="47.543619" lon="8.133664">
        <ele>385.000768</ele>
        <time>2021-11-21T10:50:16.841Z</time>
      </trkpt>
      <trkpt lat="47.543708" lon="8.133619">
        <ele>384.763036</ele>
        <time>2021-11-21T10:50:17.856Z</time>
      </trkpt>
      <trkpt lat="47.543845" lon="8.133524">
        <ele>384.380642</ele>
        <time>2021-11-21T10:50:19.574Z</time>
      </trkpt>
      <trkpt lat="47.544105" lon="8.133316">
        <ele>383.633659</ele>
        <time>2021-11-21T10:50:22.760Z</time>
      </trkpt>
      <trkpt lat="47.544222" lon="8.133222">
        <ele>383.297192</ele>
        <time>2021-11-21T10:50:24.204Z</time>
      </trkpt>
      <trkpt lat="47.544453" lon="8.133038">
        <ele>382.634174</ele>
        <time>2021-11-21T10:50:27.107Z</time>
      </trkpt>
      <trkpt lat="47.544650" lon="8.132899">
        <ele>382.082565</ele>
        <time>2021-11-21T10:50:29.357Z</time>
      </trkpt>
      <trkpt lat="47.544810" lon="8.132765">
        <ele>381.617932</ele>
        <time>2021-11-21T10:50:31.397Z</time>
      </trkpt>
      <trkpt lat="47.545059" lon="8.132589">
        <ele>380.799182</ele>
        <time>2021-11-21T10:50:34.288Z</time>
      </trkpt>
      <trkpt lat="47.545184" lon="8.132503">
        <ele>380.387939</ele>
        <time>2021-11-21T10:50:35.703Z</time>
      </trkpt>
      <trkpt lat="47.545331" lon="8.132442">
        <ele>379.932429</ele>
        <time>2021-11-21T10:50:37.264Z</time>
      </trkpt>
      <trkpt lat="47.545734" lon="8.132329">
        <ele>378.708581</ele>
        <time>2021-11-21T10:50:41.494Z</time>
      </trkpt>
      <trkpt lat="47.545962" lon="8.132304">
        <ele>378.026399</ele>
        <time>2021-11-21T10:50:43.804Z</time>
      </trkpt>
      <trkpt lat="47.546023" lon="8.132300">
        <ele>377.844205</ele>
        <time>2021-11-21T10:50:44.407Z</time>
      </trkpt>
      <trkpt lat="47.546602" lon="8.132235">
        <ele>376.122534</ele>
        <time>2021-11-21T10:50:50.294Z</time>
      </trkpt>
      <trkpt lat="47.546938" lon="8.132181">
        <ele>375.210304</ele>
        <time>2021-11-21T10:50:53.667Z</time>
      </trkpt>
      <trkpt lat="47.547951" lon="8.132055">
        <ele>372.466460</ele>
        <time>2021-11-21T10:51:04.154Z</time>
      </trkpt>
      <trkpt lat="47.548544" lon="8.131974">
        <ele>371.149681</ele>
        <time>2021-11-21T10:51:10.718Z</time>
      </trkpt>
      <trkpt lat="47.549752" lon="8.131786">
        <ele>369.730554</ele>
        <time>2021-11-21T10:51:25.368Z</time>
      </trkpt>
      <trkpt lat="47.550488" lon="8.131671">
        <ele>368.884022</ele>
        <time>2021-11-21T10:51:34.956Z</time>
      </trkpt>
      <trkpt lat="47.550614" lon="8.131652">
        <ele>368.742691</ele>
        <time>2021-11-21T10:51:36.811Z</time>
      </trkpt>
      <trkpt lat="47.550712" lon="8.131637">
        <ele>368.632750</ele>
        <time>2021-11-21T10:51:37.947Z</time>
      </trkpt>
      <trkpt lat="47.551029" lon="8.131586">
        <ele>368.276928</ele>
        <time>2021-11-21T10:51:41.970Z</time>
      </trkpt>
      <trkpt lat="47.551383" lon="8.131531">
        <ele>367.879731</ele>
        <time>2021-11-21T10:51:46.113Z</time>
      </trkpt>
      <trkpt lat="47.551749" lon="8.131479">
        <ele>367.469436</ele>
        <time>2021-11-21T10:51:50.390Z</time>
      </trkpt>
      <trkpt lat="47.551784" lon="8.131474">
        <ele>367.430198</ele>
        <time>2021-11-21T10:51:50.736Z</time>
      </trkpt>
      <trkpt lat="47.551873" lon="8.131469">
        <ele>367.330811</ele>
        <time>2021-11-21T10:51:51.754Z</time>
      </trkpt>
      <trkpt lat="47.552293" lon="8.131579">
        <ele>366.626683</ele>
        <time>2021-11-21T10:51:56.780Z</time>
      </trkpt>
      <trkpt lat="47.552326" lon="8.131597">
        <ele>366.565499</ele>
        <time>2021-11-21T10:51:57.093Z</time>
      </trkpt>
      <trkpt lat="47.552402" lon="8.131645">
        <ele>366.421753</ele>
        <time>2021-11-21T10:51:58.095Z</time>
      </trkpt>
      <trkpt lat="47.552493" lon="8.131722">
        <ele>366.239421</ele>
        <time>2021-11-21T10:51:59.252Z</time>
      </trkpt>
      <trkpt lat="47.552602" lon="8.131831">
        <ele>366.010618</ele>
        <time>2021-11-21T10:52:00.763Z</time>
      </trkpt>
      <trkpt lat="47.553483" lon="8.132756">
        <ele>364.131864</ele>
        <time>2021-11-21T10:52:12.818Z</time>
      </trkpt>
      <trkpt lat="47.553541" lon="8.132821">
        <ele>364.001239</ele>
        <time>2021-11-21T10:52:13.515Z</time>
      </trkpt>
      <trkpt lat="47.553641" lon="8.132928">
        <ele>363.779678</ele>
        <time>2021-11-21T10:52:15.046Z</time>
      </trkpt>
      <trkpt lat="47.553708" lon="8.133003">
        <ele>363.628847</ele>
        <time>2021-11-21T10:52:16.124Z</time>
      </trkpt>
      <trkpt lat="47.553759" lon="8.133056">
        <ele>363.516954</ele>
        <time>2021-11-21T10:52:16.855Z</time>
      </trkpt>
      <trkpt lat="47.553847" lon="8.133128">
        <ele>363.336389</ele>
        <time>2021-11-21T10:52:17.941Z</time>
      </trkpt>
      <trkpt lat="47.554071" lon="8.133239">
        <ele>362.912131</ele>
        <time>2021-11-21T10:52:20.700Z</time>
      </trkpt>
      <trkpt lat="47.554467" lon="8.133300">
        <ele>362.196993</ele>
        <time>2021-11-21T10:52:25.250Z</time>
      </trkpt>
      <trkpt lat="47.554619" lon="8.133314">
        <ele>361.923441</ele>
        <time>2021-11-21T10:52:26.854Z</time>
      </trkpt>
      <trkpt lat="47.554855" lon="8.133333">
        <ele>361.498907</ele>
        <time>2021-11-21T10:52:29.492Z</time>
      </trkpt>
      <trkpt lat="47.555303" lon="8.133375">
        <ele>360.639629</ele>
        <time>2021-11-21T10:52:34.425Z</time>
      </trkpt>
      <trkpt lat="47.555444" lon="8.133390">
        <ele>360.321696</ele>
        <time>2021-11-21T10:52:35.930Z</time>
      </trkpt>
      <trkpt lat="47.555690" lon="8.133401">
        <ele>359.768175</ele>
        <time>2021-11-21T10:52:38.686Z</time>
      </trkpt>
      <trkpt lat="47.555896" lon="8.133399">
        <ele>359.304859</ele>
        <time>2021-11-21T10:52:40.928Z</time>
      </trkpt>
      <trkpt lat="47.556093" lon="8.133383">
        <ele>358.861129</ele>
        <time>2021-11-21T10:52:43.057Z</time>
      </trkpt>
      <trkpt lat="47.556204" lon="8.133369">
        <ele>358.610581</ele>
        <time>2021-11-21T10:52:44.225Z</time>
      </trkpt>
      <trkpt lat="47.556513" lon="8.133340">
        <ele>357.914229</ele>
        <time>2021-11-21T10:52:47.536Z</time>
      </trkpt>
      <trkpt lat="47.557021" lon="8.133293">
        <ele>356.775556</ele>
        <time>2021-11-21T10:52:52.901Z</time>
      </trkpt>
      <trkpt lat="47.557237" lon="8.133273">
        <ele>356.322437</ele>
        <time>2021-11-21T10:52:55.193Z</time>
      </trkpt>
      <trkpt lat="47.557846" lon="8.133209">
        <ele>355.044180</ele>
        <time>2021-11-21T10:53:01.810Z</time>
      </trkpt>
      <trkpt lat="47.558277" lon="8.133165">
        <ele>354.139662</ele>
        <time>2021-11-21T10:53:06.425Z</time>
      </trkpt>
      <trkpt lat="47.558609" lon="8.133121">
        <ele>353.441783</ele>
        <time>2021-11-21T10:53:10.080Z</time>
      </trkpt>
      <trkpt lat="47.559286" lon="8.133042">
        <ele>353.085010</ele>
        <time>2021-11-21T10:53:18.048Z</time>
      </trkpt>
      <trkpt lat="47.559423" lon="8.133034">
        <ele>353.083241</ele>
        <time>2021-11-21T10:53:19.676Z</time>
      </trkpt>
      <trkpt lat="47.559553" lon="8.133012">
        <ele>353.081553</ele>
        <time>2021-11-21T10:53:24.128Z</time>
      </trkpt>
      <trkpt lat="47.559972" lon="8.132981">
        <ele>353.076140</ele>
        <time>2021-11-21T10:53:39.665Z</time>
      </trkpt>
      <trkpt lat="47.560046" lon="8.132973">
        <ele>353.075182</ele>
        <time>2021-11-21T10:53:42.170Z</time>
      </trkpt>
      <trkpt lat="47.560143" lon="8.132963">
        <ele>353.073928</ele>
        <time>2021-11-21T10:53:43.486Z</time>
      </trkpt>
      <trkpt lat="47.560243" lon="8.132948">
        <ele>353.072631</ele>
        <time>2021-11-21T10:53:44.977Z</time>
      </trkpt>
      <trkpt lat="47.560335" lon="8.132935">
        <ele>353.071438</ele>
        <time>2021-11-21T10:53:47.753Z</time>
      </trkpt>
      <trkpt lat="47.560777" lon="8.132722">
        <ele>354.074673</ele>
        <time>2021-11-21T10:53:58.196Z</time>
      </trkpt>
      <trkpt lat="47.560827" lon="8.132679">
        <ele>354.327795</ele>
        <time>2021-11-21T10:53:59.752Z</time>
      </trkpt>
      <trkpt lat="47.560889" lon="8.132614">
        <ele>354.660330</ele>
        <time>2021-11-21T10:54:01.550Z</time>
      </trkpt>
      <trkpt lat="47.561056" lon="8.132422">
        <ele>355.585801</ele>
        <time>2021-11-21T10:54:08.979Z</time>
      </trkpt>
      <trkpt lat="47.561161" lon="8.132610">
        <ele>356.306853</ele>
        <time>2021-11-21T10:54:13.381Z</time>
      </trkpt>
      <trkpt lat="47.561195" lon="8.132668">
        <ele>356.533854</ele>
        <time>2021-11-21T10:54:16.514Z</time>
      </trkpt>
      <trkpt lat="47.561623" lon="8.133432">
        <ele>359.467705</ele>
        <time>2021-11-21T10:54:39.107Z</time>
      </trkpt>
      <trkpt lat="47.561664" lon="8.133579">
        <ele>359.937672</ele>
        <time>2021-11-21T10:54:44.477Z</time>
      </trkpt>
      <trkpt lat="47.561698" lon="8.133720">
        <ele>360.380072</ele>
        <time>2021-11-21T10:54:47.940Z</time>
      </trkpt>
      <trkpt lat="47.561725" lon="8.133913">
        <ele>360.960408</ele>
        <time>2021-11-21T10:54:52.899Z</time>
      </trkpt>
      <trkpt lat="47.561720" lon="8.135210">
        <ele>364.374931</ele>
        <time>2021-11-21T10:55:25.933Z</time>
      </trkpt>
      <trkpt lat="47.561711" lon="8.135438">
        <ele>364.976188</ele>
        <time>2021-11-21T10:55:30.968Z</time>
      </trkpt>
      <trkpt lat="47.561699" lon="8.135702">
        <ele>365.672766</ele>
        <time>2021-11-21T10:55:36.732Z</time>
      </trkpt>
      <trkpt lat="47.561695" lon="8.135815">
        <ele>365.970658</ele>
        <time>2021-11-21T10:55:38.678Z</time>
      </trkpt>
      <trkpt lat="47.561673" lon="8.136111">
        <ele>366.754617</ele>
        <time>2021-11-21T10:55:43.770Z</time>
      </trkpt>
      <trkpt lat="47.561651" lon="8.136422">
        <ele>367.577840</ele>
        <time>2021-11-21T10:55:47.268Z</time>
      </trkpt>
      <trkpt lat="47.561604" lon="8.136996">
        <ele>367.759279</ele>
        <time>2021-11-21T10:55:53.540Z</time>
      </trkpt>
      <trkpt lat="47.561574" lon="8.137322">
        <ele>367.605984</ele>
        <time>2021-11-21T10:55:56.854Z</time>
      </trkpt>
      <trkpt lat="47.561548" lon="8.137622">
        <ele>367.465061</ele>
        <time>2021-11-21T10:55:59.800Z</time>
      </trkpt>
      <trkpt lat="47.561531" lon="8.137825">
        <ele>367.369754</ele>
        <time>2021-11-21T10:56:01.775Z</time>
      </trkpt>
      <trkpt lat="47.561520" lon="8.138020">
        <ele>367.278583</ele>
        <time>2021-11-21T10:56:03.272Z</time>
      </trkpt>
      <trkpt lat="47.561504" lon="8.138613">
        <ele>367.002073</ele>
        <time>2021-11-21T10:56:07.776Z</time>
      </trkpt>
      <trkpt lat="47.561507" lon="8.138771">
        <ele>366.928429</ele>
        <time>2021-11-21T10:56:09.015Z</time>
      </trkpt>
      <trkpt lat="47.561660" lon="8.140164">
        <ele>366.412336</ele>
        <time>2021-11-21T10:56:19.612Z</time>
      </trkpt>
      <trkpt lat="47.561574" lon="8.141379">
        <ele>366.022828</ele>
        <time>2021-11-21T10:56:31.589Z</time>
      </trkpt>
      <trkpt lat="47.561563" lon="8.141574">
        <ele>365.960439</ele>
        <time>2021-11-21T10:56:33.673Z</time>
      </trkpt>
      <trkpt lat="47.561548" lon="8.141908">
        <ele>365.923150</ele>
        <time>2021-11-21T10:56:37.829Z</time>
      </trkpt>
      <trkpt lat="47.561542" lon="8.142165">
        <ele>366.209564</ele>
        <time>2021-11-21T10:56:40.830Z</time>
      </trkpt>
      <trkpt lat="47.561548" lon="8.142491">
        <ele>366.572793</ele>
        <time>2021-11-21T10:56:45.561Z</time>
      </trkpt>
      <trkpt lat="47.561569" lon="8.142863">
        <ele>366.988568</ele>
        <time>2021-11-21T10:56:50.859Z</time>
      </trkpt>
      <trkpt lat="47.561629" lon="8.143405">
        <ele>367.600309</ele>
        <time>2021-11-21T10:56:59.316Z</time>
      </trkpt>
      <trkpt lat="47.561693" lon="8.143892">
        <ele>368.152912</ele>
        <time>2021-11-21T10:57:06.942Z</time>
      </trkpt>
      <trkpt lat="47.561737" lon="8.144240">
        <ele>368.547253</ele>
        <time>2021-11-21T10:57:12.409Z</time>
      </trkpt>
      <trkpt lat="47.561764" lon="8.144413">
        <ele>368.745024</ele>
        <time>2021-11-21T10:57:15.402Z</time>
      </trkpt>
      <trkpt lat="47.561830" lon="8.144934">
        <ele>369.250415</ele>
        <time>2021-11-21T10:57:23.868Z</time>
      </trkpt>
      <trkpt lat="47.561843" lon="8.145077">
        <ele>369.383660</ele>
        <time>2021-11-21T10:57:26.129Z</time>
      </trkpt>
      <trkpt lat="47.561847" lon="8.145230">
        <ele>369.525053</ele>
        <time>2021-11-21T10:57:28.483Z</time>
      </trkpt>
      <trkpt lat="47.561842" lon="8.145448">
        <ele>369.726479</ele>
        <time>2021-11-21T10:57:31.825Z</time>
      </trkpt>
      <trkpt lat="47.561827" lon="8.145709">
        <ele>369.968370</ele>
        <time>2021-11-21T10:57:35.537Z</time>
      </trkpt>
      <trkpt lat="47.561811" lon="8.145912">
        <ele>370.157103</ele>
        <time>2021-11-21T10:57:38.178Z</time>
      </trkpt>
      <trkpt lat="47.561789" lon="8.146405">
        <ele>370.613354</ele>
        <time>2021-11-21T10:57:44.418Z</time>
      </trkpt>
      <trkpt lat="47.561783" lon="8.146574">
        <ele>370.769632</ele>
        <time>2021-11-21T10:57:46.617Z</time>
      </trkpt>
      <trkpt lat="47.561759" lon="8.147209">
        <ele>371.328368</ele>
        <time>2021-11-21T10:57:54.179Z</time>
      </trkpt>
      <trkpt lat="47.561778" lon="8.147534">
        <ele>371.480253</ele>
        <time>2021-11-21T10:57:57.990Z</time>
      </trkpt>
      <trkpt lat="47.561781" lon="8.147568">
        <ele>371.496218</ele>
        <time>2021-11-21T10:57:58.405Z</time>
      </trkpt>
      <trkpt lat="47.561822" lon="8.147813">
        <ele>371.613744</ele>
        <time>2021-11-21T10:58:01.039Z</time>
      </trkpt>
      <trkpt lat="47.561833" lon="8.147845">
        <ele>371.630465</ele>
        <time>2021-11-21T10:58:01.355Z</time>
      </trkpt>
      <trkpt lat="47.561913" lon="8.148081">
        <ele>371.753431</ele>
        <time>2021-11-21T10:58:04.285Z</time>
      </trkpt>
      <trkpt lat="47.561978" lon="8.148254">
        <ele>371.845623</ele>
        <time>2021-11-21T10:58:06.318Z</time>
      </trkpt>
      <trkpt lat="47.561978" lon="8.148254">
        <ele>371.845623</ele>
        <time>2021-11-21T10:58:06.319Z</time>
      </trkpt>
      <trkpt lat="47.561978" lon="8.148254">
        <ele>371.845623</ele>
        <time>2021-11-21T10:58:06.320Z</time>
      </trkpt>
      <trkpt lat="47.562009" lon="8.148365">
        <ele>371.901555</ele>
        <time>2021-11-21T10:58:07.682Z</time>
      </trkpt>
      <trkpt lat="47.562009" lon="8.148597">
        <ele>372.009572</ele>
        <time>2021-11-21T10:58:10.507Z</time>
      </trkpt>
      <trkpt lat="47.561998" lon="8.148673">
        <ele>372.045762</ele>
        <time>2021-11-21T10:58:11.240Z</time>
      </trkpt>
      <trkpt lat="47.561980" lon="8.148763">
        <ele>372.089467</ele>
        <time>2021-11-21T10:58:13.693Z</time>
      </trkpt>
      <trkpt lat="47.561943" lon="8.148889">
        <ele>372.153446</ele>
        <time>2021-11-21T10:58:17.307Z</time>
      </trkpt>
      <trkpt lat="47.561915" lon="8.148980">
        <ele>372.200012</ele>
        <time>2021-11-21T10:58:20.151Z</time>
      </trkpt>
      <trkpt lat="47.561767" lon="8.149503">
        <ele>372.464063</ele>
        <time>2021-11-21T10:58:35.591Z</time>
      </trkpt>
      <trkpt lat="47.561555" lon="8.150316">
        <ele>373.658186</ele>
        <time>2021-11-21T10:59:00.279Z</time>
      </trkpt>
      <trkpt lat="47.561512" lon="8.150470">
        <ele>373.921416</ele>
        <time>2021-11-21T10:59:05.476Z</time>
      </trkpt>
      <trkpt lat="47.561471" lon="8.150574">
        <ele>374.111654</ele>
        <time>2021-11-21T10:59:08.865Z</time>
      </trkpt>
      <trkpt lat="47.561352" lon="8.150768">
        <ele>374.525736</ele>
        <time>2021-11-21T10:59:17.394Z</time>
      </trkpt>
      <trkpt lat="47.561257" lon="8.150909">
        <ele>374.840437</ele>
        <time>2021-11-21T10:59:23.508Z</time>
      </trkpt>
      <trkpt lat="47.561109" lon="8.151163">
        <ele>375.370474</ele>
        <time>2021-11-21T10:59:34.281Z</time>
      </trkpt>
      <trkpt lat="47.561003" lon="8.151403">
        <ele>375.823512</ele>
        <time>2021-11-21T10:59:43.358Z</time>
      </trkpt>
      <trkpt lat="47.560916" lon="8.151600">
        <ele>376.195371</ele>
        <time>2021-11-21T10:59:50.989Z</time>
      </trkpt>
      <trkpt lat="47.560859" lon="8.151728">
        <ele>376.437592</ele>
        <time>2021-11-21T10:59:56.087Z</time>
      </trkpt>
      <trkpt lat="47.560747" lon="8.151985">
        <ele>377.095101</ele>
        <time>2021-11-21T11:00:06.705Z</time>
      </trkpt>
      <trkpt lat="47.560710" lon="8.152072">
        <ele>377.423489</ele>
        <time>2021-11-21T11:00:10.536Z</time>
      </trkpt>
      <trkpt lat="47.560668" lon="8.152171">
        <ele>377.796911</ele>
        <time>2021-11-21T11:00:14.682Z</time>
      </trkpt>
      <trkpt lat="47.560622" lon="8.152294">
        <ele>378.245974</ele>
        <time>2021-11-21T11:00:19.538Z</time>
      </trkpt>
      <trkpt lat="47.560622" lon="8.152294">
        <ele>378.245974</ele>
        <time>2021-11-21T11:00:19.671Z</time>
      </trkpt>
      <trkpt lat="47.561111" lon="8.152733">
        <ele>380.951506</ele>
        <time>2021-11-21T11:00:42.292Z</time>
      </trkpt>
      <trkpt lat="47.561252" lon="8.152858">
        <ele>381.729020</ele>
        <time>2021-11-21T11:00:48.771Z</time>
      </trkpt>
      <trkpt lat="47.561457" lon="8.153044">
        <ele>382.866496</ele>
        <time>2021-11-21T11:00:58.749Z</time>
      </trkpt>
      <trkpt lat="47.561762" lon="8.153301">
        <ele>384.526805</ele>
        <time>2021-11-21T11:01:13.285Z</time>
      </trkpt>
      <trkpt lat="47.561835" lon="8.153371">
        <ele>384.938263</ele>
        <time>2021-11-21T11:01:16.481Z</time>
      </trkpt>
      <trkpt lat="47.561947" lon="8.153511">
        <ele>385.712518</ele>
        <time>2021-11-21T11:01:22.869Z</time>
      </trkpt>
      <trkpt lat="47.561970" lon="8.153627">
        <ele>386.183003</ele>
        <time>2021-11-21T11:01:26.470Z</time>
      </trkpt>
      <trkpt lat="47.561997" lon="8.154372">
        <ele>389.086274</ele>
        <time>2021-11-21T11:01:46.481Z</time>
      </trkpt>
      <trkpt lat="47.562012" lon="8.154800">
        <ele>390.754036</ele>
        <time>2021-11-21T11:02:00.210Z</time>
      </trkpt>
      <trkpt lat="47.561983" lon="8.155254">
        <ele>392.528629</ele>
        <time>2021-11-21T11:02:14.391Z</time>
      </trkpt>
      <trkpt lat="47.561930" lon="8.156090">
        <ele>395.814168</ele>
        <time>2021-11-21T11:02:38.983Z</time>
      </trkpt>
      <trkpt lat="47.561979" lon="8.156520">
        <ele>397.699670</ele>
        <time>2021-11-21T11:02:51.493Z</time>
      </trkpt>
      <trkpt lat="47.562071" lon="8.156772">
        <ele>398.938475</ele>
        <time>2021-11-21T11:02:59.595Z</time>
      </trkpt>
      <trkpt lat="47.562154" lon="8.156983">
        <ele>399.994459</ele>
        <time>2021-11-21T11:03:06.951Z</time>
      </trkpt>
      <trkpt lat="47.562164" lon="8.157389">
        <ele>401.751032</ele>
        <time>2021-11-21T11:03:18.276Z</time>
      </trkpt>
      <trkpt lat="47.561947" lon="8.157917">
        <ele>404.424015</ele>
        <time>2021-11-21T11:03:38.172Z</time>
      </trkpt>
      <trkpt lat="47.561921" lon="8.158206">
        <ele>405.684613</ele>
        <time>2021-11-21T11:03:47.825Z</time>
      </trkpt>
      <trkpt lat="47.562008" lon="8.159070">
        <ele>409.878179</ele>
        <time>2021-11-21T11:04:18.558Z</time>
      </trkpt>
      <trkpt lat="47.562210" lon="8.159656">
        <ele>413.237922</ele>
        <time>2021-11-21T11:04:40.217Z</time>
      </trkpt>
      <trkpt lat="47.562289" lon="8.159788">
        <ele>414.138763</ele>
        <time>2021-11-21T11:04:46.527Z</time>
      </trkpt>
      <trkpt lat="47.562434" lon="8.160072">
        <ele>415.957073</ele>
        <time>2021-11-21T11:04:57.553Z</time>
      </trkpt>
      <trkpt lat="47.562624" lon="8.160801">
        <ele>419.947111</ele>
        <time>2021-11-21T11:05:25.003Z</time>
      </trkpt>
      <trkpt lat="47.562695" lon="8.161170">
        <ele>421.936425</ele>
        <time>2021-11-21T11:05:38.411Z</time>
      </trkpt>
      <trkpt lat="47.562752" lon="8.161415">
        <ele>423.294710</ele>
        <time>2021-11-21T11:05:48.231Z</time>
      </trkpt>
      <trkpt lat="47.563049" lon="8.162174">
        <ele>427.893289</ele>
        <time>2021-11-21T11:06:19.136Z</time>
      </trkpt>
      <trkpt lat="47.563192" lon="8.162491">
        <ele>429.891829</ele>
        <time>2021-11-21T11:06:31.481Z</time>
      </trkpt>
      <trkpt lat="47.563295" lon="8.162696">
        <ele>431.231412</ele>
        <time>2021-11-21T11:06:40.588Z</time>
      </trkpt>
      <trkpt lat="47.563654" lon="8.163273">
        <ele>435.345470</ele>
        <time>2021-11-21T11:07:06.332Z</time>
      </trkpt>
      <trkpt lat="47.564423" lon="8.164078">
        <ele>442.664868</ele>
        <time>2021-11-21T11:07:56.171Z</time>
      </trkpt>
      <trkpt lat="47.564586" lon="8.164339">
        <ele>444.530433</ele>
        <time>2021-11-21T11:08:08.685Z</time>
      </trkpt>
      <trkpt lat="47.564874" lon="8.165016">
        <ele>448.729148</ele>
        <time>2021-11-21T11:08:34.512Z</time>
      </trkpt>
      <trkpt lat="47.564892" lon="8.165085">
        <ele>449.144359</ele>
        <time>2021-11-21T11:08:38.355Z</time>
      </trkpt>
      <trkpt lat="47.564930" lon="8.165227">
        <ele>450.001752</ele>
        <time>2021-11-21T11:08:43.504Z</time>
      </trkpt>
      <trkpt lat="47.565164" lon="8.166208">
        <ele>455.841701</ele>
        <time>2021-11-21T11:09:19.722Z</time>
      </trkpt>
      <trkpt lat="47.565360" lon="8.166598">
        <ele>458.571073</ele>
        <time>2021-11-21T11:09:37.089Z</time>
      </trkpt>
      <trkpt lat="47.566135" lon="8.167074">
        <ele>466.315859</ele>
        <time>2021-11-21T11:10:22.659Z</time>
      </trkpt>
      <trkpt lat="47.566744" lon="8.167659">
        <ele>474.832182</ele>
        <time>2021-11-21T11:11:10.667Z</time>
      </trkpt>
      <trkpt lat="47.567014" lon="8.167999">
        <ele>478.989823</ele>
        <time>2021-11-21T11:11:34.515Z</time>
      </trkpt>
      <trkpt lat="47.567250" lon="8.168420">
        <ele>483.323548</ele>
        <time>2021-11-21T11:12:03.697Z</time>
      </trkpt>
      <trkpt lat="47.567441" lon="8.168765">
        <ele>486.942002</ele>
        <time>2021-11-21T11:12:27.489Z</time>
      </trkpt>
      <trkpt lat="47.567595" lon="8.169037">
        <ele>489.868964</ele>
        <time>2021-11-21T11:12:43.216Z</time>
      </trkpt>
      <trkpt lat="47.567646" lon="8.169354">
        <ele>492.555314</ele>
        <time>2021-11-21T11:13:01.234Z</time>
      </trkpt>
      <trkpt lat="47.567470" lon="8.169899">
        <ele>497.535922</ele>
        <time>2021-11-21T11:13:30.473Z</time>
      </trkpt>
      <trkpt lat="47.567468" lon="8.170052">
        <ele>498.797371</ele>
        <time>2021-11-21T11:13:36.749Z</time>
      </trkpt>
      <trkpt lat="47.567503" lon="8.170146">
        <ele>499.682388</ele>
        <time>2021-11-21T11:13:44.397Z</time>
      </trkpt>
      <trkpt lat="47.567569" lon="8.170223">
        <ele>500.708573</ele>
        <time>2021-11-21T11:13:50.325Z</time>
      </trkpt>
      <trkpt lat="47.567770" lon="8.170215">
        <ele>503.165118</ele>
        <time>2021-11-21T11:14:02.240Z</time>
      </trkpt>
      <trkpt lat="47.568113" lon="8.170041">
        <ele>507.183403</ele>
        <time>2021-11-21T11:14:23.552Z</time>
      </trkpt>
      <trkpt lat="47.568963" lon="8.169790">
        <ele>512.530988</ele>
        <time>2021-11-21T11:15:08.806Z</time>
      </trkpt>
      <trkpt lat="47.569154" lon="8.169757">
        <ele>513.717439</ele>
        <time>2021-11-21T11:15:16.751Z</time>
      </trkpt>
      <trkpt lat="47.569104" lon="8.169420">
        <ele>515.153858</ele>
        <time>2021-11-21T11:15:23.951Z</time>
      </trkpt>
      <trkpt lat="47.569121" lon="8.169300">
        <ele>515.664299</ele>
        <time>2021-11-21T11:15:27.246Z</time>
      </trkpt>
      <trkpt lat="47.569308" lon="8.168880">
        <ele>517.759102</ele>
        <time>2021-11-21T11:15:38.337Z</time>
      </trkpt>
      <trkpt lat="47.569398" lon="8.168517">
        <ele>518.491490</ele>
        <time>2021-11-21T11:15:46.005Z</time>
      </trkpt>
      <trkpt lat="47.569487" lon="8.168034">
        <ele>519.362260</ele>
        <time>2021-11-21T11:15:56.504Z</time>
      </trkpt>
      <trkpt lat="47.569524" lon="8.167941">
        <ele>519.550026</ele>
        <time>2021-11-21T11:15:59.495Z</time>
      </trkpt>
      <trkpt lat="47.569708" lon="8.167575">
        <ele>520.343824</ele>
        <time>2021-11-21T11:16:08.183Z</time>
      </trkpt>
      <trkpt lat="47.569855" lon="8.167393">
        <ele>520.837549</ele>
        <time>2021-11-21T11:16:13.623Z</time>
      </trkpt>
      <trkpt lat="47.570149" lon="8.167162">
        <ele>521.695283</ele>
        <time>2021-11-21T11:16:23.317Z</time>
      </trkpt>
      <trkpt lat="47.570589" lon="8.166957">
        <ele>522.758588</ele>
        <time>2021-11-21T11:16:37.660Z</time>
      </trkpt>
      <trkpt lat="47.570959" lon="8.166863">
        <ele>523.411454</ele>
        <time>2021-11-21T11:16:49.290Z</time>
      </trkpt>
      <trkpt lat="47.571501" lon="8.166874">
        <ele>524.354157</ele>
        <time>2021-11-21T11:17:04.669Z</time>
      </trkpt>
      <trkpt lat="47.571648" lon="8.166925">
        <ele>524.616721</ele>
        <time>2021-11-21T11:17:08.638Z</time>
      </trkpt>
      <trkpt lat="47.571862" lon="8.166968">
        <ele>524.992302</ele>
        <time>2021-11-21T11:17:13.912Z</time>
      </trkpt>
      <trkpt lat="47.572415" lon="8.167117">
        <ele>525.706888</ele>
        <time>2021-11-21T11:17:26.922Z</time>
      </trkpt>
      <trkpt lat="47.572954" lon="8.167110">
        <ele>525.926988</ele>
        <time>2021-11-21T11:17:39.213Z</time>
      </trkpt>
      <trkpt lat="47.573056" lon="8.167138">
        <ele>525.969346</ele>
        <time>2021-11-21T11:17:41.718Z</time>
      </trkpt>
      <trkpt lat="47.573098" lon="8.167145">
        <ele>525.986605</ele>
        <time>2021-11-21T11:17:42.316Z</time>
      </trkpt>
      <trkpt lat="47.574193" lon="8.167763">
        <ele>526.748867</ele>
        <time>2021-11-21T11:18:06.423Z</time>
      </trkpt>
      <trkpt lat="47.575314" lon="8.168053">
        <ele>528.476977</ele>
        <time>2021-11-21T11:18:36.993Z</time>
      </trkpt>
      <trkpt lat="47.575351" lon="8.168039">
        <ele>528.534968</ele>
        <time>2021-11-21T11:18:38.962Z</time>
      </trkpt>
      <trkpt lat="47.575489" lon="8.167983">
        <ele>528.752249</ele>
        <time>2021-11-21T11:18:45.987Z</time>
      </trkpt>
      <trkpt lat="47.576053" lon="8.167541">
        <ele>528.442880</ele>
        <time>2021-11-21T11:19:15.652Z</time>
      </trkpt>
      <trkpt lat="47.576187" lon="8.167447">
        <ele>528.210487</ele>
        <time>2021-11-21T11:19:20.518Z</time>
      </trkpt>
      <trkpt lat="47.576203" lon="8.167494">
        <ele>528.154814</ele>
        <time>2021-11-21T11:19:21.842Z</time>
      </trkpt>
      <trkpt lat="47.576633" lon="8.167736">
        <ele>527.433799</ele>
        <time>2021-11-21T11:19:35.835Z</time>
      </trkpt>
      <trkpt lat="47.576702" lon="8.167801">
        <ele>527.305641</ele>
        <time>2021-11-21T11:19:39.299Z</time>
      </trkpt>
      <trkpt lat="47.576867" lon="8.167936">
        <ele>527.010203</ele>
        <time>2021-11-21T11:19:45.059Z</time>
      </trkpt>
      <trkpt lat="47.577072" lon="8.168073">
        <ele>526.657697</ele>
        <time>2021-11-21T11:19:51.530Z</time>
      </trkpt>
      <trkpt lat="47.577099" lon="8.168078">
        <ele>526.615042</ele>
        <time>2021-11-21T11:19:52.625Z</time>
      </trkpt>
      <trkpt lat="47.577211" lon="8.168020">
        <ele>526.429066</ele>
        <time>2021-11-21T11:19:55.885Z</time>
      </trkpt>
      <trkpt lat="47.577297" lon="8.167960">
        <ele>526.280067</ele>
        <time>2021-11-21T11:19:58.359Z</time>
      </trkpt>
      <trkpt lat="47.577421" lon="8.167885">
        <ele>525.343858</ele>
        <time>2021-11-21T11:20:00.590Z</time>
      </trkpt>
      <trkpt lat="47.577509" lon="8.167869">
        <ele>524.706273</ele>
        <time>2021-11-21T11:20:01.808Z</time>
      </trkpt>
      <trkpt lat="47.577621" lon="8.167865">
        <ele>523.900603</ele>
        <time>2021-11-21T11:20:03.210Z</time>
      </trkpt>
      <trkpt lat="47.578174" lon="8.168184">
        <ele>519.633269</ele>
        <time>2021-11-21T11:20:10.904Z</time>
      </trkpt>
      <trkpt lat="47.578308" lon="8.168344">
        <ele>518.395897</ele>
        <time>2021-11-21T11:20:13.003Z</time>
      </trkpt>
      <trkpt lat="47.578457" lon="8.168636">
        <ele>516.619737</ele>
        <time>2021-11-21T11:20:16.089Z</time>
      </trkpt>
      <trkpt lat="47.578504" lon="8.169078">
        <ele>514.449044</ele>
        <time>2021-11-21T11:20:19.837Z</time>
      </trkpt>
      <trkpt lat="47.578614" lon="8.169154">
        <ele>513.576292</ele>
        <time>2021-11-21T11:20:21.344Z</time>
      </trkpt>
      <trkpt lat="47.578658" lon="8.169156">
        <ele>513.212960</ele>
        <time>2021-11-21T11:20:21.898Z</time>
      </trkpt>
      <trkpt lat="47.578696" lon="8.169133">
        <ele>512.741043</ele>
        <time>2021-11-21T11:20:22.395Z</time>
      </trkpt>
      <trkpt lat="47.578718" lon="8.168699">
        <ele>509.365486</ele>
        <time>2021-11-21T11:20:26.157Z</time>
      </trkpt>
      <trkpt lat="47.578688" lon="8.168353">
        <ele>506.659863</ele>
        <time>2021-11-21T11:20:28.969Z</time>
      </trkpt>
      <trkpt lat="47.578589" lon="8.167949">
        <ele>503.326132</ele>
        <time>2021-11-21T11:20:32.433Z</time>
      </trkpt>
      <trkpt lat="47.578609" lon="8.167720">
        <ele>501.535200</ele>
        <time>2021-11-21T11:20:34.335Z</time>
      </trkpt>
      <trkpt lat="47.578723" lon="8.167460">
        <ele>499.130124</ele>
        <time>2021-11-21T11:20:36.803Z</time>
      </trkpt>
      <trkpt lat="47.579052" lon="8.167196">
        <ele>494.828845</ele>
        <time>2021-11-21T11:20:41.236Z</time>
      </trkpt>
      <trkpt lat="47.579148" lon="8.167183">
        <ele>493.720494</ele>
        <time>2021-11-21T11:20:42.374Z</time>
      </trkpt>
      <trkpt lat="47.579239" lon="8.167209">
        <ele>492.654424</ele>
        <time>2021-11-21T11:20:43.510Z</time>
      </trkpt>
      <trkpt lat="47.579277" lon="8.167220">
        <ele>492.129045</ele>
        <time>2021-11-21T11:20:43.963Z</time>
      </trkpt>
      <trkpt lat="47.580353" lon="8.168476">
        <ele>473.545281</ele>
        <time>2021-11-21T11:21:00.150Z</time>
      </trkpt>
      <trkpt lat="47.580740" lon="8.169048">
        <ele>466.166551</ele>
        <time>2021-11-21T11:21:06.547Z</time>
      </trkpt>
      <trkpt lat="47.580882" lon="8.169585">
        <ele>460.978540</ele>
        <time>2021-11-21T11:21:11.149Z</time>
      </trkpt>
      <trkpt lat="47.581001" lon="8.170162">
        <ele>455.551473</ele>
        <time>2021-11-21T11:21:15.975Z</time>
      </trkpt>
      <trkpt lat="47.581053" lon="8.170349">
        <ele>453.732162</ele>
        <time>2021-11-21T11:21:17.554Z</time>
      </trkpt>
      <trkpt lat="47.581149" lon="8.170639">
        <ele>450.826547</ele>
        <time>2021-11-21T11:21:20.193Z</time>
      </trkpt>
      <trkpt lat="47.581190" lon="8.170733">
        <ele>449.819696</ele>
        <time>2021-11-21T11:21:21.053Z</time>
      </trkpt>
      <trkpt lat="47.581322" lon="8.171039">
        <ele>446.552670</ele>
        <time>2021-11-21T11:21:24.007Z</time>
      </trkpt>
      <trkpt lat="47.581642" lon="8.171482">
        <ele>441.913506</ele>
        <time>2021-11-21T11:21:29.172Z</time>
      </trkpt>
      <trkpt lat="47.582069" lon="8.172293">
        <ele>435.782470</ele>
        <time>2021-11-21T11:21:37.457Z</time>
      </trkpt>
      <trkpt lat="47.582283" lon="8.172514">
        <ele>433.478338</ele>
        <time>2021-11-21T11:21:40.630Z</time>
      </trkpt>
      <trkpt lat="47.582702" lon="8.172718">
        <ele>429.582063</ele>
        <time>2021-11-21T11:21:46.712Z</time>
      </trkpt>
      <trkpt lat="47.582775" lon="8.172921">
        <ele>428.404418</ele>
        <time>2021-11-21T11:21:49.364Z</time>
      </trkpt>
      <trkpt lat="47.582753" lon="8.173015">
        <ele>428.501948</ele>
        <time>2021-11-21T11:21:50.171Z</time>
      </trkpt>
      <trkpt lat="47.582703" lon="8.173082">
        <ele>428.599890</ele>
        <time>2021-11-21T11:21:52.049Z</time>
      </trkpt>
      <trkpt lat="47.582353" lon="8.173034">
        <ele>429.110681</ele>
        <time>2021-11-21T11:22:00.396Z</time>
      </trkpt>
      <trkpt lat="47.581938" lon="8.173171">
        <ele>429.728530</ele>
        <time>2021-11-21T11:22:12.795Z</time>
      </trkpt>
      <trkpt lat="47.581664" lon="8.173110">
        <ele>430.131172</ele>
        <time>2021-11-21T11:22:20.290Z</time>
      </trkpt>
      <trkpt lat="47.581566" lon="8.173106">
        <ele>430.273639</ele>
        <time>2021-11-21T11:22:24.657Z</time>
      </trkpt>
      <trkpt lat="47.581401" lon="8.173161">
        <ele>430.519403</ele>
        <time>2021-11-21T11:22:32.051Z</time>
      </trkpt>
      <trkpt lat="47.581187" lon="8.173239">
        <ele>430.839650</ele>
        <time>2021-11-21T11:22:37.937Z</time>
      </trkpt>
      <trkpt lat="47.581107" lon="8.173293">
        <ele>430.967389</ele>
        <time>2021-11-21T11:22:43.105Z</time>
      </trkpt>
      <trkpt lat="47.581040" lon="8.173360">
        <ele>430.855994</ele>
        <time>2021-11-21T11:22:45.836Z</time>
      </trkpt>
      <trkpt lat="47.580921" lon="8.173516">
        <ele>430.524415</ele>
        <time>2021-11-21T11:22:50.374Z</time>
      </trkpt>
      <trkpt lat="47.580899" lon="8.173634">
        <ele>430.352041</ele>
        <time>2021-11-21T11:22:53.824Z</time>
      </trkpt>
      <trkpt lat="47.580895" lon="8.173757">
        <ele>430.178654</ele>
        <time>2021-11-21T11:22:57.351Z</time>
      </trkpt>
      <trkpt lat="47.580929" lon="8.173895">
        <ele>429.971794</ele>
        <time>2021-11-21T11:22:58.743Z</time>
      </trkpt>
      <trkpt lat="47.581093" lon="8.174089">
        <ele>429.533847</ele>
        <time>2021-11-21T11:23:05.270Z</time>
      </trkpt>
      <trkpt lat="47.581786" lon="8.174089">
        <ele>428.087325</ele>
        <time>2021-11-21T11:23:16.020Z</time>
      </trkpt>
      <trkpt lat="47.581973" lon="8.174217">
        <ele>427.657396</ele>
        <time>2021-11-21T11:23:18.526Z</time>
      </trkpt>
      <trkpt lat="47.582094" lon="8.174425">
        <ele>427.270670</ele>
        <time>2021-11-21T11:23:21.028Z</time>
      </trkpt>
      <trkpt lat="47.582339" lon="8.174888">
        <ele>422.551940</ele>
        <time>2021-11-21T11:23:25.877Z</time>
      </trkpt>
      <trkpt lat="47.582577" lon="8.175149">
        <ele>418.908057</ele>
        <time>2021-11-21T11:23:29.364Z</time>
      </trkpt>
      <trkpt lat="47.582989" lon="8.175334">
        <ele>413.609303</ele>
        <time>2021-11-21T11:23:34.473Z</time>
      </trkpt>
      <trkpt lat="47.583061" lon="8.175390">
        <ele>412.608508</ele>
        <time>2021-11-21T11:23:35.400Z</time>
      </trkpt>
      <trkpt lat="47.583292" lon="8.175767">
        <ele>408.379808</ele>
        <time>2021-11-21T11:23:39.436Z</time>
      </trkpt>
      <trkpt lat="47.583345" lon="8.175789">
        <ele>407.702350</ele>
        <time>2021-11-21T11:23:40.062Z</time>
      </trkpt>
      <trkpt lat="47.583607" lon="8.175910">
        <ele>404.426684</ele>
        <time>2021-11-21T11:23:43.356Z</time>
      </trkpt>
      <trkpt lat="47.583749" lon="8.175890">
        <ele>402.902951</ele>
        <time>2021-11-21T11:23:45.035Z</time>
      </trkpt>
      <trkpt lat="47.583784" lon="8.175894">
        <ele>402.527957</ele>
        <time>2021-11-21T11:23:45.430Z</time>
      </trkpt>
      <trkpt lat="47.583980" lon="8.175915">
        <ele>400.428742</ele>
        <time>2021-11-21T11:23:47.850Z</time>
      </trkpt>
      <trkpt lat="47.584063" lon="8.175897">
        <ele>399.532665</ele>
        <time>2021-11-21T11:23:48.828Z</time>
      </trkpt>
      <trkpt lat="47.584320" lon="8.175828">
        <ele>396.742630</ele>
        <time>2021-11-21T11:23:52.027Z</time>
      </trkpt>
      <trkpt lat="47.584534" lon="8.175831">
        <ele>394.456490</ele>
        <time>2021-11-21T11:23:54.565Z</time>
      </trkpt>
      <trkpt lat="47.586133" lon="8.175874">
        <ele>378.423786</ele>
        <time>2021-11-21T11:24:14.491Z</time>
      </trkpt>
      <trkpt lat="47.586296" lon="8.175856">
        <ele>376.893406</ele>
        <time>2021-11-21T11:24:16.499Z</time>
      </trkpt>
      <trkpt lat="47.587168" lon="8.175856">
        <ele>368.704391</ele>
        <time>2021-11-21T11:24:27.176Z</time>
      </trkpt>
      <trkpt lat="47.587351" lon="8.175839">
        <ele>366.853297</ele>
        <time>2021-11-21T11:24:29.376Z</time>
      </trkpt>
      <trkpt lat="47.587584" lon="8.175798">
        <ele>364.484543</ele>
        <time>2021-11-21T11:24:32.202Z</time>
      </trkpt>
      <trkpt lat="47.587912" lon="8.175687">
        <ele>361.088068</ele>
        <time>2021-11-21T11:24:36.262Z</time>
      </trkpt>
      <trkpt lat="47.588152" lon="8.175562">
        <ele>358.520011</ele>
        <time>2021-11-21T11:24:39.355Z</time>
      </trkpt>
      <trkpt lat="47.588280" lon="8.175497">
        <ele>357.154101</ele>
        <time>2021-11-21T11:24:40.979Z</time>
      </trkpt>
      <trkpt lat="47.588814" lon="8.175535">
        <ele>351.756912</ele>
        <time>2021-11-21T11:24:47.523Z</time>
      </trkpt>
      <trkpt lat="47.589038" lon="8.175531">
        <ele>350.106844</ele>
        <time>2021-11-21T11:24:50.270Z</time>
      </trkpt>
      <trkpt lat="47.589150" lon="8.175524">
        <ele>349.473209</ele>
        <time>2021-11-21T11:24:51.703Z</time>
      </trkpt>
      <trkpt lat="47.589437" lon="8.175426">
        <ele>347.808496</ele>
        <time>2021-11-21T11:24:55.460Z</time>
      </trkpt>
      <trkpt lat="47.589490" lon="8.175383">
        <ele>347.467000</ele>
        <time>2021-11-21T11:24:56.225Z</time>
      </trkpt>
      <trkpt lat="47.590268" lon="8.175295">
        <ele>343.056625</ele>
        <time>2021-11-21T11:25:06.828Z</time>
      </trkpt>
      <trkpt lat="47.590378" lon="8.175282">
        <ele>342.432885</ele>
        <time>2021-11-21T11:25:08.303Z</time>
      </trkpt>
      <trkpt lat="47.590446" lon="8.175273">
        <ele>342.046991</ele>
        <time>2021-11-21T11:25:09.291Z</time>
      </trkpt>
      <trkpt lat="47.590494" lon="8.175266">
        <ele>341.774365</ele>
        <time>2021-11-21T11:25:10.018Z</time>
      </trkpt>
      <trkpt lat="47.590554" lon="8.175213">
        <ele>341.379597</ele>
        <time>2021-11-21T11:25:10.972Z</time>
      </trkpt>
      <trkpt lat="47.590635" lon="8.175360">
        <ele>340.701934</ele>
        <time>2021-11-21T11:25:12.300Z</time>
      </trkpt>
      <trkpt lat="47.590917" lon="8.175180">
        <ele>340.251467</ele>
        <time>2021-11-21T11:25:17.005Z</time>
      </trkpt>
      <trkpt lat="47.590971" lon="8.175139">
        <ele>340.162453</ele>
        <time>2021-11-21T11:25:17.871Z</time>
      </trkpt>
      <trkpt lat="47.591153" lon="8.174995">
        <ele>339.859779</ele>
        <time>2021-11-21T11:25:21.197Z</time>
      </trkpt>
      <trkpt lat="47.591351" lon="8.174827">
        <ele>339.525066</ele>
        <time>2021-11-21T11:25:24.800Z</time>
      </trkpt>
      <trkpt lat="47.591820" lon="8.174385">
        <ele>338.709707</ele>
        <time>2021-11-21T11:25:34.570Z</time>
      </trkpt>
      <trkpt lat="47.592079" lon="8.174112">
        <ele>338.243464</ele>
        <time>2021-11-21T11:25:40.792Z</time>
      </trkpt>
      <trkpt lat="47.592226" lon="8.173976">
        <ele>338.073698</ele>
        <time>2021-11-21T11:25:44.236Z</time>
      </trkpt>
      <trkpt lat="47.592861" lon="8.173461">
        <ele>338.010600</ele>
        <time>2021-11-21T11:25:58.765Z</time>
      </trkpt>
      <trkpt lat="47.593060" lon="8.173300">
        <ele>337.990838</ele>
        <time>2021-11-21T11:26:03.406Z</time>
      </trkpt>
      <trkpt lat="47.593562" lon="8.172891">
        <ele>337.940903</ele>
        <time>2021-11-21T11:26:15.271Z</time>
      </trkpt>
      <trkpt lat="47.593648" lon="8.172755">
        <ele>337.929943</ele>
        <time>2021-11-21T11:26:17.866Z</time>
      </trkpt>
      <trkpt lat="47.593672" lon="8.172679">
        <ele>337.925009</ele>
        <time>2021-11-21T11:26:18.979Z</time>
      </trkpt>
      <trkpt lat="47.593778" lon="8.172683">
        <ele>337.821766</ele>
        <time>2021-11-21T11:26:21.131Z</time>
      </trkpt>
      <trkpt lat="47.593996" lon="8.172601">
        <ele>337.517121</ele>
        <time>2021-11-21T11:26:25.410Z</time>
      </trkpt>
      <trkpt lat="47.594577" lon="8.172353">
        <ele>336.698169</ele>
        <time>2021-11-21T11:26:36.115Z</time>
      </trkpt>
      <trkpt lat="47.595292" lon="8.172024">
        <ele>335.684108</ele>
        <time>2021-11-21T11:26:48.559Z</time>
      </trkpt>
      <trkpt lat="47.595486" lon="8.171961">
        <ele>335.234562</ele>
        <time>2021-11-21T11:26:51.504Z</time>
      </trkpt>
      <trkpt lat="47.595819" lon="8.171918">
        <ele>333.626876</ele>
        <time>2021-11-21T11:26:56.164Z</time>
      </trkpt>
      <trkpt lat="47.596041" lon="8.171960">
        <ele>332.550471</ele>
        <time>2021-11-21T11:26:59.272Z</time>
      </trkpt>
      <trkpt lat="47.596521" lon="8.172593">
        <ele>329.460974</ele>
        <time>2021-11-21T11:27:07.972Z</time>
      </trkpt>
      <trkpt lat="47.596715" lon="8.172923">
        <ele>328.041038</ele>
        <time>2021-11-21T11:27:11.738Z</time>
      </trkpt>
      <trkpt lat="47.596893" lon="8.173084">
        <ele>327.038230</ele>
        <time>2021-11-21T11:27:13.657Z</time>
      </trkpt>
      <trkpt lat="47.597117" lon="8.173411">
        <ele>325.472669</ele>
        <time>2021-11-21T11:27:16.545Z</time>
      </trkpt>
      <trkpt lat="47.597294" lon="8.173908">
        <ele>323.574843</ele>
        <time>2021-11-21T11:27:20.061Z</time>
      </trkpt>
      <trkpt lat="47.597347" lon="8.173942">
        <ele>323.285691</ele>
        <time>2021-11-21T11:27:20.625Z</time>
      </trkpt>
      <trkpt lat="47.597735" lon="8.173848">
        <ele>321.317116</ele>
        <time>2021-11-21T11:27:24.324Z</time>
      </trkpt>
      <trkpt lat="47.597787" lon="8.173826">
        <ele>321.046349</ele>
        <time>2021-11-21T11:27:24.782Z</time>
      </trkpt>
      <trkpt lat="47.597793" lon="8.173758">
        <ele>320.814786</ele>
        <time>2021-11-21T11:27:25.257Z</time>
      </trkpt>
      <trkpt lat="47.597788" lon="8.173696">
        <ele>320.603948</ele>
        <time>2021-11-21T11:27:25.665Z</time>
      </trkpt>
      <trkpt lat="47.597745" lon="8.173609">
        <ele>320.239731</ele>
        <time>2021-11-21T11:27:26.369Z</time>
      </trkpt>
      <trkpt lat="47.597695" lon="8.173531">
        <ele>319.876349</ele>
        <time>2021-11-21T11:27:27.091Z</time>
      </trkpt>
      <trkpt lat="47.597552" lon="8.173338">
        <ele>318.908157</ele>
        <time>2021-11-21T11:27:28.973Z</time>
      </trkpt>
      <trkpt lat="47.597424" lon="8.173049">
        <ele>317.769689</ele>
        <time>2021-11-21T11:27:31.413Z</time>
      </trkpt>
      <trkpt lat="47.597268" lon="8.172337">
        <ele>316.075352</ele>
        <time>2021-11-21T11:27:36.256Z</time>
      </trkpt>
      <trkpt lat="47.596865" lon="8.171710">
        <ele>314.114969</ele>
        <time>2021-11-21T11:27:42.248Z</time>
      </trkpt>
      <trkpt lat="47.596900" lon="8.171578">
        <ele>313.793957</ele>
        <time>2021-11-21T11:27:43.210Z</time>
      </trkpt>
      <trkpt lat="47.597024" lon="8.171618">
        <ele>313.368053</ele>
        <time>2021-11-21T11:27:44.470Z</time>
      </trkpt>
      <trkpt lat="47.597212" lon="8.171709">
        <ele>312.704322</ele>
        <time>2021-11-21T11:27:46.677Z</time>
      </trkpt>
      <trkpt lat="47.597275" lon="8.171743">
        <ele>312.479313</ele>
        <time>2021-11-21T11:27:47.295Z</time>
      </trkpt>
      <trkpt lat="47.597464" lon="8.171816">
        <ele>311.823825</ele>
        <time>2021-11-21T11:27:49.414Z</time>
      </trkpt>
      <trkpt lat="47.597777" lon="8.172101">
        <ele>310.929264</ele>
        <time>2021-11-21T11:27:53.155Z</time>
      </trkpt>
      <trkpt lat="47.597828" lon="8.172147">
        <ele>310.785334</ele>
        <time>2021-11-21T11:27:53.801Z</time>
      </trkpt>
      <trkpt lat="47.597908" lon="8.172200">
        <ele>310.574064</ele>
        <time>2021-11-21T11:27:54.611Z</time>
      </trkpt>
      <trkpt lat="47.597940" lon="8.172115">
        <ele>310.415780</ele>
        <time>2021-11-21T11:27:55.265Z</time>
      </trkpt>
      <trkpt lat="47.597960" lon="8.172067">
        <ele>310.324039</ele>
        <time>2021-11-21T11:27:55.650Z</time>
      </trkpt>
      <trkpt lat="47.597960" lon="8.172067">
        <ele>310.324039</ele>
        <time>2021-11-21T11:27:55.651Z</time>
      </trkpt>
      <trkpt lat="47.598789" lon="8.170031">
        <ele>307.184568</ele>
        <time>2021-11-21T11:28:13.228Z</time>
      </trkpt>
      <trkpt lat="47.598802" lon="8.169999">
        <ele>307.168101</ele>
        <time>2021-11-21T11:28:13.555Z</time>
      </trkpt>
      <trkpt lat="47.598856" lon="8.169867">
        <ele>307.100048</ele>
        <time>2021-11-21T11:28:14.919Z</time>
      </trkpt>
      <trkpt lat="47.598839" lon="8.169662">
        <ele>307.009008</ele>
        <time>2021-11-21T11:28:16.748Z</time>
      </trkpt>
      <trkpt lat="47.598499" lon="8.168926">
        <ele>306.615768</ele>
        <time>2021-11-21T11:28:24.624Z</time>
      </trkpt>
      <trkpt lat="47.598223" lon="8.168539">
        <ele>306.367481</ele>
        <time>2021-11-21T11:28:30.326Z</time>
      </trkpt>
      <trkpt lat="47.598098" lon="8.168367">
        <ele>306.310263</ele>
        <time>2021-11-21T11:28:33.207Z</time>
      </trkpt>
      <trkpt lat="47.598008" lon="8.168249">
        <ele>306.413421</ele>
        <time>2021-11-21T11:28:35.260Z</time>
      </trkpt>
      <trkpt lat="47.598109" lon="8.168119">
        <ele>306.528262</ele>
        <time>2021-11-21T11:28:37.830Z</time>
      </trkpt>
      <trkpt lat="47.598242" lon="8.167955">
        <ele>306.676794</ele>
        <time>2021-11-21T11:28:41.091Z</time>
      </trkpt>
      <trkpt lat="47.598388" lon="8.167785">
        <ele>306.836193</ele>
        <time>2021-11-21T11:28:44.597Z</time>
      </trkpt>
      <trkpt lat="47.598443" lon="8.167732">
        <ele>306.892517</ele>
        <time>2021-11-21T11:28:45.907Z</time>
      </trkpt>
      <trkpt lat="47.598511" lon="8.167699">
        <ele>306.953956</ele>
        <time>2021-11-21T11:28:47.279Z</time>
      </trkpt>
      <trkpt lat="47.598600" lon="8.167686">
        <ele>307.030751</ele>
        <time>2021-11-21T11:28:48.883Z</time>
      </trkpt>
      <trkpt lat="47.598812" lon="8.167627">
        <ele>307.215975</ele>
        <time>2021-11-21T11:28:53.216Z</time>
      </trkpt>
      <trkpt lat="47.599012" lon="8.167567">
        <ele>307.391195</ele>
        <time>2021-11-21T11:28:56.909Z</time>
      </trkpt>
      <trkpt lat="47.599407" lon="8.167443">
        <ele>307.737901</ele>
        <time>2021-11-21T11:29:04.359Z</time>
      </trkpt>
      <trkpt lat="47.599501" lon="8.167395">
        <ele>307.823271</ele>
        <time>2021-11-21T11:29:06.277Z</time>
      </trkpt>
      <trkpt lat="47.599964" lon="8.167066">
        <ele>307.867719</ele>
        <time>2021-11-21T11:29:15.166Z</time>
      </trkpt>
      <trkpt lat="47.599922" lon="8.167015">
        <ele>307.872352</ele>
        <time>2021-11-21T11:29:16.538Z</time>
      </trkpt>
      <trkpt lat="47.599687" lon="8.167094">
        <ele>307.892917</ele>
        <time>2021-11-21T11:29:22.312Z</time>
      </trkpt>
      <trkpt lat="47.599659" lon="8.167070">
        <ele>307.895677</ele>
        <time>2021-11-21T11:29:23.126Z</time>
      </trkpt>
      <trkpt lat="47.599634" lon="8.167047">
        <ele>307.898188</ele>
        <time>2021-11-21T11:29:23.619Z</time>
      </trkpt>
      <trkpt lat="47.599006" lon="8.163203">
        <ele>307.106403</ele>
        <time>2021-11-21T11:30:12.646Z</time>
      </trkpt>
      <trkpt lat="47.598400" lon="8.158819">
        <ele>306.902304</ele>
        <time>2021-11-21T11:31:12.124Z</time>
      </trkpt>
      <trkpt lat="47.598357" lon="8.158487">
        <ele>306.931580</ele>
        <time>2021-11-21T11:31:16.883Z</time>
      </trkpt>
      <trkpt lat="47.598368" lon="8.158424">
        <ele>306.937216</ele>
        <time>2021-11-21T11:31:17.721Z</time>
      </trkpt>
      <trkpt lat="47.599693" lon="8.157319">
        <ele>308.427593</ele>
        <time>2021-11-21T11:31:53.616Z</time>
      </trkpt>
      <trkpt lat="47.599875" lon="8.157189">
        <ele>308.680700</ele>
        <time>2021-11-21T11:31:59.504Z</time>
      </trkpt>
      <trkpt lat="47.600053" lon="8.157054">
        <ele>308.931196</ele>
        <time>2021-11-21T11:32:03.614Z</time>
      </trkpt>
      <trkpt lat="47.600082" lon="8.157033">
        <ele>308.971631</ele>
        <time>2021-11-21T11:32:04.464Z</time>
      </trkpt>
      <trkpt lat="47.600128" lon="8.157002">
        <ele>309.034938</ele>
        <time>2021-11-21T11:32:05.872Z</time>
      </trkpt>
      <trkpt lat="47.600421" lon="8.156716">
        <ele>309.539793</ele>
        <time>2021-11-21T11:32:14.100Z</time>
      </trkpt>
      <trkpt lat="47.600545" lon="8.156492">
        <ele>309.852366</ele>
        <time>2021-11-21T11:32:18.282Z</time>
      </trkpt>
      <trkpt lat="47.600627" lon="8.156310">
        <ele>310.088443</ele>
        <time>2021-11-21T11:32:21.925Z</time>
      </trkpt>
      <trkpt lat="47.600740" lon="8.156020">
        <ele>310.449681</ele>
        <time>2021-11-21T11:32:26.705Z</time>
      </trkpt>
      <trkpt lat="47.600788" lon="8.155796">
        <ele>310.703175</ele>
        <time>2021-11-21T11:32:30.653Z</time>
      </trkpt>
      <trkpt lat="47.600810" lon="8.155622">
        <ele>310.894107</ele>
        <time>2021-11-21T11:32:33.110Z</time>
      </trkpt>
      <trkpt lat="47.600825" lon="8.155110">
        <ele>311.446828</ele>
        <time>2021-11-21T11:32:40.572Z</time>
      </trkpt>
      <trkpt lat="47.600776" lon="8.154780">
        <ele>311.811266</ele>
        <time>2021-11-21T11:32:45.050Z</time>
      </trkpt>
      <trkpt lat="47.600739" lon="8.154598">
        <ele>312.016283</ele>
        <time>2021-11-21T11:32:47.391Z</time>
      </trkpt>
      <trkpt lat="47.600603" lon="8.154164">
        <ele>312.092959</ele>
        <time>2021-11-21T11:32:53.235Z</time>
      </trkpt>
      <trkpt lat="47.600374" lon="8.153460">
        <ele>312.048419</ele>
        <time>2021-11-21T11:33:01.529Z</time>
      </trkpt>
      <trkpt lat="47.599795" lon="8.151707">
        <ele>311.951470</ele>
        <time>2021-11-21T11:33:18.458Z</time>
      </trkpt>
      <trkpt lat="47.599467" lon="8.150696">
        <ele>311.922889</ele>
        <time>2021-11-21T11:33:29.105Z</time>
      </trkpt>
      <trkpt lat="47.599255" lon="8.150072">
        <ele>311.905090</ele>
        <time>2021-11-21T11:33:36.541Z</time>
      </trkpt>
      <trkpt lat="47.599245" lon="8.150041">
        <ele>311.904214</ele>
        <time>2021-11-21T11:33:36.890Z</time>
      </trkpt>
      <trkpt lat="47.599066" lon="8.149515">
        <ele>312.135266</ele>
        <time>2021-11-21T11:33:43.473Z</time>
      </trkpt>
      <trkpt lat="47.598988" lon="8.149038">
        <ele>312.647712</ele>
        <time>2021-11-21T11:33:49.167Z</time>
      </trkpt>
      <trkpt lat="47.599056" lon="8.148448">
        <ele>313.272635</ele>
        <time>2021-11-21T11:33:56.830Z</time>
      </trkpt>
      <trkpt lat="47.599092" lon="8.148294">
        <ele>313.442806</ele>
        <time>2021-11-21T11:33:59.483Z</time>
      </trkpt>
      <trkpt lat="47.599227" lon="8.148032">
        <ele>313.787066</ele>
        <time>2021-11-21T11:34:03.488Z</time>
      </trkpt>
      <trkpt lat="47.599362" lon="8.147866">
        <ele>314.058593</ele>
        <time>2021-11-21T11:34:08.086Z</time>
      </trkpt>
      <trkpt lat="47.599417" lon="8.147799">
        <ele>314.168797</ele>
        <time>2021-11-21T11:34:09.574Z</time>
      </trkpt>
      <trkpt lat="47.599842" lon="8.147348">
        <ele>315.410541</ele>
        <time>2021-11-21T11:34:22.676Z</time>
      </trkpt>
      <trkpt lat="47.599930" lon="8.147256">
        <ele>315.819232</ele>
        <time>2021-11-21T11:34:26.681Z</time>
      </trkpt>
      <trkpt lat="47.600375" lon="8.146597">
        <ele>318.206341</ele>
        <time>2021-11-21T11:34:45.869Z</time>
      </trkpt>
      <trkpt lat="47.600394" lon="8.146557">
        <ele>318.331574</ele>
        <time>2021-11-21T11:34:47.368Z</time>
      </trkpt>
      <trkpt lat="47.600445" lon="8.146449">
        <ele>318.669048</ele>
        <time>2021-11-21T11:34:50.244Z</time>
      </trkpt>
      <trkpt lat="47.600684" lon="8.145860">
        <ele>320.428519</ele>
        <time>2021-11-21T11:35:04.534Z</time>
      </trkpt>
      <trkpt lat="47.600767" lon="8.145560">
        <ele>321.258493</ele>
        <time>2021-11-21T11:35:11.805Z</time>
      </trkpt>
      <trkpt lat="47.600787" lon="8.145439">
        <ele>321.557451</ele>
        <time>2021-11-21T11:35:14.170Z</time>
      </trkpt>
      <trkpt lat="47.600796" lon="8.145294">
        <ele>321.824254</ele>
        <time>2021-11-21T11:35:16.898Z</time>
      </trkpt>
      <trkpt lat="47.600794" lon="8.145101">
        <ele>322.177925</ele>
        <time>2021-11-21T11:35:21.060Z</time>
      </trkpt>
      <trkpt lat="47.600774" lon="8.144904">
        <ele>322.542952</ele>
        <time>2021-11-21T11:35:24.836Z</time>
      </trkpt>
      <trkpt lat="47.600687" lon="8.144558">
        <ele>323.219565</ele>
        <time>2021-11-21T11:35:32.184Z</time>
      </trkpt>
      <trkpt lat="47.600643" lon="8.144448">
        <ele>323.453911</ele>
        <time>2021-11-21T11:35:34.529Z</time>
      </trkpt>
      <trkpt lat="47.600454" lon="8.144069">
        <ele>324.317625</ele>
        <time>2021-11-21T11:35:43.366Z</time>
      </trkpt>
      <trkpt lat="47.599726" lon="8.143190">
        <ele>326.451208</ele>
        <time>2021-11-21T11:36:04.226Z</time>
      </trkpt>
      <trkpt lat="47.599711" lon="8.143167">
        <ele>326.458188</ele>
        <time>2021-11-21T11:36:04.591Z</time>
      </trkpt>
      <trkpt lat="47.599625" lon="8.143040">
        <ele>326.497454</ele>
        <time>2021-11-21T11:36:06.512Z</time>
      </trkpt>
      <trkpt lat="47.599119" lon="8.142538">
        <ele>326.694415</ele>
        <time>2021-11-21T11:36:15.681Z</time>
      </trkpt>
      <trkpt lat="47.598952" lon="8.142414">
        <ele>326.754839</ele>
        <time>2021-11-21T11:36:18.449Z</time>
      </trkpt>
      <trkpt lat="47.598823" lon="8.142341">
        <ele>326.799510</ele>
        <time>2021-11-21T11:36:20.476Z</time>
      </trkpt>
      <trkpt lat="47.598633" lon="8.142288">
        <ele>326.862059</ele>
        <time>2021-11-21T11:36:23.269Z</time>
      </trkpt>
      <trkpt lat="47.598494" lon="8.142235">
        <ele>326.908492</ele>
        <time>2021-11-21T11:36:25.450Z</time>
      </trkpt>
      <trkpt lat="47.598317" lon="8.142168">
        <ele>326.967594</ele>
        <time>2021-11-21T11:36:28.002Z</time>
      </trkpt>
      <trkpt lat="47.597924" lon="8.141954">
        <ele>326.616456</ele>
        <time>2021-11-21T11:36:34.189Z</time>
      </trkpt>
      <trkpt lat="47.597726" lon="8.141757">
        <ele>326.396462</ele>
        <time>2021-11-21T11:36:37.395Z</time>
      </trkpt>
      <trkpt lat="47.596658" lon="8.140124">
        <ele>324.901067</ele>
        <time>2021-11-21T11:36:55.411Z</time>
      </trkpt>
      <trkpt lat="47.596658" lon="8.140124">
        <ele>324.901067</ele>
        <time>2021-11-21T11:36:55.421Z</time>
      </trkpt>
      <trkpt lat="47.596283" lon="8.139715">
        <ele>324.369321</ele>
        <time>2021-11-21T11:37:00.914Z</time>
      </trkpt>
      <trkpt lat="47.595214" lon="8.137474">
        <ele>322.695162</ele>
        <time>2021-11-21T11:37:23.948Z</time>
      </trkpt>
      <trkpt lat="47.595110" lon="8.137170">
        <ele>322.547311</ele>
        <time>2021-11-21T11:37:27.122Z</time>
      </trkpt>
      <trkpt lat="47.595047" lon="8.136887">
        <ele>322.418049</ele>
        <time>2021-11-21T11:37:29.895Z</time>
      </trkpt>
      <trkpt lat="47.594983" lon="8.136598">
        <ele>322.286114</ele>
        <time>2021-11-21T11:37:32.654Z</time>
      </trkpt>
      <trkpt lat="47.594962" lon="8.136531">
        <ele>322.254069</ele>
        <time>2021-11-21T11:37:33.307Z</time>
      </trkpt>
      <trkpt lat="47.594900" lon="8.136327">
        <ele>322.157016</ele>
        <time>2021-11-21T11:37:35.374Z</time>
      </trkpt>
      <trkpt lat="47.594823" lon="8.136125">
        <ele>322.049487</ele>
        <time>2021-11-21T11:37:37.379Z</time>
      </trkpt>
      <trkpt lat="47.594662" lon="8.135767">
        <ele>321.836824</ele>
        <time>2021-11-21T11:37:41.165Z</time>
      </trkpt>
      <trkpt lat="47.594351" lon="8.135126">
        <ele>321.446563</ele>
        <time>2021-11-21T11:37:48.057Z</time>
      </trkpt>
      <trkpt lat="47.594071" lon="8.134556">
        <ele>321.098045</ele>
        <time>2021-11-21T11:37:54.277Z</time>
      </trkpt>
      <trkpt lat="47.593939" lon="8.134327">
        <ele>320.949159</ele>
        <time>2021-11-21T11:37:56.854Z</time>
      </trkpt>
      <trkpt lat="47.593730" lon="8.134016">
        <ele>320.671234</ele>
        <time>2021-11-21T11:38:00.468Z</time>
      </trkpt>
      <trkpt lat="47.593583" lon="8.133716">
        <ele>320.286568</ele>
        <time>2021-11-21T11:38:03.360Z</time>
      </trkpt>
      <trkpt lat="47.593554" lon="8.133656">
        <ele>320.209995</ele>
        <time>2021-11-21T11:38:03.924Z</time>
      </trkpt>
      <trkpt lat="47.593549" lon="8.133646">
        <ele>320.197081</ele>
        <time>2021-11-21T11:38:04.017Z</time>
      </trkpt>
      <trkpt lat="47.593504" lon="8.133551">
        <ele>320.076656</ele>
        <time>2021-11-21T11:38:04.896Z</time>
      </trkpt>
      <trkpt lat="47.593486" lon="8.133523">
        <ele>320.036529</ele>
        <time>2021-11-21T11:38:05.183Z</time>
      </trkpt>
      <trkpt lat="47.593091" lon="8.132750">
        <ele>319.030492</ele>
        <time>2021-11-21T11:38:12.403Z</time>
      </trkpt>
      <trkpt lat="47.592867" lon="8.132484">
        <ele>318.589073</ele>
        <time>2021-11-21T11:38:15.608Z</time>
      </trkpt>
      <trkpt lat="47.592836" lon="8.132464">
        <ele>318.537072</ele>
        <time>2021-11-21T11:38:15.976Z</time>
      </trkpt>
      <trkpt lat="47.592814" lon="8.132534">
        <ele>318.456961</ele>
        <time>2021-11-21T11:38:16.569Z</time>
      </trkpt>
      <trkpt lat="47.592719" lon="8.132686">
        <ele>318.241986</ele>
        <time>2021-11-21T11:38:18.157Z</time>
      </trkpt>
      <trkpt lat="47.592658" lon="8.132770">
        <ele>318.113938</ele>
        <time>2021-11-21T11:38:19.102Z</time>
      </trkpt>
      <trkpt lat="47.592571" lon="8.132886">
        <ele>317.986193</ele>
        <time>2021-11-21T11:38:20.521Z</time>
      </trkpt>
      <trkpt lat="47.592062" lon="8.133399">
        <ele>317.607510</ele>
        <time>2021-11-21T11:38:28.112Z</time>
      </trkpt>
      <trkpt lat="47.592009" lon="8.133338">
        <ele>317.566228</ele>
        <time>2021-11-21T11:38:28.932Z</time>
      </trkpt>
      <trkpt lat="47.591957" lon="8.133278">
        <ele>317.525687</ele>
        <time>2021-11-21T11:38:29.740Z</time>
      </trkpt>
      <trkpt lat="47.591905" lon="8.133207">
        <ele>317.482193</ele>
        <time>2021-11-21T11:38:30.706Z</time>
      </trkpt>
      <trkpt lat="47.591548" lon="8.132722">
        <ele>317.184274</ele>
        <time>2021-11-21T11:38:37.040Z</time>
      </trkpt>
      <trkpt lat="47.591517" lon="8.132683">
        <ele>317.159259</ele>
        <time>2021-11-21T11:38:37.574Z</time>
      </trkpt>
      <trkpt lat="47.591370" lon="8.132496">
        <ele>317.040085</ele>
        <time>2021-11-21T11:38:40.589Z</time>
      </trkpt>
      <trkpt lat="47.591175" lon="8.132110">
        <ele>316.987529</ele>
        <time>2021-11-21T11:38:45.578Z</time>
      </trkpt>
      <trkpt lat="47.591151" lon="8.131993">
        <ele>317.037503</ele>
        <time>2021-11-21T11:38:47.090Z</time>
      </trkpt>
      <trkpt lat="47.591151" lon="8.131993">
        <ele>317.037503</ele>
        <time>2021-11-21T11:38:47.113Z</time>
      </trkpt>
      <trkpt lat="47.591136" lon="8.131905">
        <ele>317.074594</ele>
        <time>2021-11-21T11:38:47.911Z</time>
      </trkpt>
      <trkpt lat="47.591143" lon="8.131579">
        <ele>317.207879</ele>
        <time>2021-11-21T11:38:51.280Z</time>
      </trkpt>
      <trkpt lat="47.591199" lon="8.131358">
        <ele>317.304353</ele>
        <time>2021-11-21T11:38:53.810Z</time>
      </trkpt>
      <trkpt lat="47.591247" lon="8.131227">
        <ele>317.365276</ele>
        <time>2021-11-21T11:38:55.310Z</time>
      </trkpt>
      <trkpt lat="47.591347" lon="8.130977">
        <ele>317.484053</ele>
        <time>2021-11-21T11:38:58.945Z</time>
      </trkpt>
      <trkpt lat="47.591364" lon="8.130933">
        <ele>317.504775</ele>
        <time>2021-11-21T11:38:59.428Z</time>
      </trkpt>
      <trkpt lat="47.591433" lon="8.130739">
        <ele>317.594400</ele>
        <time>2021-11-21T11:39:01.836Z</time>
      </trkpt>
      <trkpt lat="47.591479" lon="8.130581">
        <ele>317.664725</ele>
        <time>2021-11-21T11:39:04.228Z</time>
      </trkpt>
      <trkpt lat="47.591505" lon="8.130439">
        <ele>317.724852</ele>
        <time>2021-11-21T11:39:06.052Z</time>
      </trkpt>
      <trkpt lat="47.591505" lon="8.130232">
        <ele>317.809440</ele>
        <time>2021-11-21T11:39:08.357Z</time>
      </trkpt>
      <trkpt lat="47.591483" lon="8.130025">
        <ele>317.895073</ele>
        <time>2021-11-21T11:39:11.234Z</time>
      </trkpt>
      <trkpt lat="47.591460" lon="8.129923">
        <ele>317.939022</ele>
        <time>2021-11-21T11:39:13.040Z</time>
      </trkpt>
      <trkpt lat="47.591347" lon="8.129594">
        <ele>318.261027</ele>
        <time>2021-11-21T11:39:19.128Z</time>
      </trkpt>
      <trkpt lat="47.591213" lon="8.129277">
        <ele>318.719000</ele>
        <time>2021-11-21T11:39:25.450Z</time>
      </trkpt>
      <trkpt lat="47.590649" lon="8.127923">
        <ele>320.667135</ele>
        <time>2021-11-21T11:39:54.608Z</time>
      </trkpt>
      <trkpt lat="47.590625" lon="8.127864">
        <ele>320.751480</ele>
        <time>2021-11-21T11:39:56.027Z</time>
      </trkpt>
      <trkpt lat="47.590409" lon="8.127398">
        <ele>321.505241</ele>
        <time>2021-11-21T11:40:07.863Z</time>
      </trkpt>
      <trkpt lat="47.589672" lon="8.126374">
        <ele>323.984190</ele>
        <time>2021-11-21T11:40:40.256Z</time>
      </trkpt>
      <trkpt lat="47.589591" lon="8.126262">
        <ele>324.256026</ele>
        <time>2021-11-21T11:40:43.508Z</time>
      </trkpt>
      <trkpt lat="47.589278" lon="8.125788">
        <ele>325.354115</ele>
        <time>2021-11-21T11:40:56.661Z</time>
      </trkpt>
      <trkpt lat="47.589070" lon="8.125392">
        <ele>325.837680</ele>
        <time>2021-11-21T11:41:05.636Z</time>
      </trkpt>
      <trkpt lat="47.589078" lon="8.125315">
        <ele>325.877348</ele>
        <time>2021-11-21T11:41:07.250Z</time>
      </trkpt>
      <trkpt lat="47.589001" lon="8.125276">
        <ele>325.938776</ele>
        <time>2021-11-21T11:41:09.260Z</time>
      </trkpt>
      <trkpt lat="47.588922" lon="8.125160">
        <ele>326.022713</ele>
        <time>2021-11-21T11:41:11.864Z</time>
      </trkpt>
      <trkpt lat="47.588669" lon="8.124663">
        <ele>326.339758</ele>
        <time>2021-11-21T11:41:21.657Z</time>
      </trkpt>
      <trkpt lat="47.588469" lon="8.124106">
        <ele>326.661052</ele>
        <time>2021-11-21T11:41:30.990Z</time>
      </trkpt>
      <trkpt lat="47.588307" lon="8.123639">
        <ele>326.928443</ele>
        <time>2021-11-21T11:41:38.353Z</time>
      </trkpt>
      <trkpt lat="47.588080" lon="8.122981">
        <ele>327.025462</ele>
        <time>2021-11-21T11:41:48.606Z</time>
      </trkpt>
      <trkpt lat="47.587930" lon="8.122557">
        <ele>327.010837</ele>
        <time>2021-11-21T11:41:54.944Z</time>
      </trkpt>
      <trkpt lat="47.587823" lon="8.122266">
        <ele>327.000713</ele>
        <time>2021-11-21T11:41:59.324Z</time>
      </trkpt>
      <trkpt lat="47.587722" lon="8.121983">
        <ele>326.990934</ele>
        <time>2021-11-21T11:42:03.446Z</time>
      </trkpt>
      <trkpt lat="47.587613" lon="8.121661">
        <ele>326.979929</ele>
        <time>2021-11-21T11:42:08.272Z</time>
      </trkpt>
      <trkpt lat="47.587553" lon="8.121454">
        <ele>326.973047</ele>
        <time>2021-11-21T11:42:11.284Z</time>
      </trkpt>
      <trkpt lat="47.587457" lon="8.121156">
        <ele>326.962959</ele>
        <time>2021-11-21T11:42:15.774Z</time>
      </trkpt>
      <trkpt lat="47.587370" lon="8.120885">
        <ele>326.987857</ele>
        <time>2021-11-21T11:42:19.911Z</time>
      </trkpt>
      <trkpt lat="47.587280" lon="8.120590">
        <ele>327.033934</ele>
        <time>2021-11-21T11:42:24.453Z</time>
      </trkpt>
      <trkpt lat="47.587273" lon="8.120566">
        <ele>327.037655</ele>
        <time>2021-11-21T11:42:24.814Z</time>
      </trkpt>
      <trkpt lat="47.587132" lon="8.120084">
        <ele>327.112424</ele>
        <time>2021-11-21T11:42:32.316Z</time>
      </trkpt>
      <trkpt lat="47.587014" lon="8.119573">
        <ele>327.189291</ele>
        <time>2021-11-21T11:42:40.145Z</time>
      </trkpt>
      <trkpt lat="47.586808" lon="8.118617">
        <ele>327.332117</ele>
        <time>2021-11-21T11:42:54.516Z</time>
      </trkpt>
      <trkpt lat="47.586785" lon="8.118468">
        <ele>327.334778</ele>
        <time>2021-11-21T11:42:56.684Z</time>
      </trkpt>
      <trkpt lat="47.586773" lon="8.118379">
        <ele>327.330738</ele>
        <time>2021-11-21T11:42:57.981Z</time>
      </trkpt>
      <trkpt lat="47.586696" lon="8.117684">
        <ele>327.299391</ele>
        <time>2021-11-21T11:43:08.311Z</time>
      </trkpt>
      <trkpt lat="47.586657" lon="8.116185">
        <ele>327.232625</ele>
        <time>2021-11-21T11:43:28.470Z</time>
      </trkpt>
      <trkpt lat="47.586564" lon="8.115669">
        <ele>326.898067</ele>
        <time>2021-11-21T11:43:35.029Z</time>
      </trkpt>
      <trkpt lat="47.586495" lon="8.115468">
        <ele>326.623282</ele>
        <time>2021-11-21T11:43:37.830Z</time>
      </trkpt>
      <trkpt lat="47.586309" lon="8.115027">
        <ele>325.989580</ele>
        <time>2021-11-21T11:43:43.799Z</time>
      </trkpt>
      <trkpt lat="47.586124" lon="8.114616">
        <ele>325.387560</ele>
        <time>2021-11-21T11:43:49.202Z</time>
      </trkpt>
      <trkpt lat="47.586040" lon="8.114419">
        <ele>325.103600</ele>
        <time>2021-11-21T11:43:51.688Z</time>
      </trkpt>
      <trkpt lat="47.585978" lon="8.114276">
        <ele>324.896481</ele>
        <time>2021-11-21T11:43:53.473Z</time>
      </trkpt>
      <trkpt lat="47.585864" lon="8.114008">
        <ele>324.510444</ele>
        <time>2021-11-21T11:43:56.766Z</time>
      </trkpt>
      <trkpt lat="47.585808" lon="8.113882">
        <ele>324.326596</ele>
        <time>2021-11-21T11:43:58.272Z</time>
      </trkpt>
      <trkpt lat="47.585692" lon="8.113619">
        <ele>323.908064</ele>
        <time>2021-11-21T11:44:01.421Z</time>
      </trkpt>
      <trkpt lat="47.585557" lon="8.113319">
        <ele>322.906219</ele>
        <time>2021-11-21T11:44:04.876Z</time>
      </trkpt>
      <trkpt lat="47.585485" lon="8.113157">
        <ele>322.367270</ele>
        <time>2021-11-21T11:44:06.695Z</time>
      </trkpt>
      <trkpt lat="47.585352" lon="8.112867">
        <ele>321.393065</ele>
        <time>2021-11-21T11:44:09.972Z</time>
      </trkpt>
      <trkpt lat="47.585221" lon="8.112571">
        <ele>320.409574</ele>
        <time>2021-11-21T11:44:12.286Z</time>
      </trkpt>
      <trkpt lat="47.585157" lon="8.112429">
        <ele>319.935135</ele>
        <time>2021-11-21T11:44:13.423Z</time>
      </trkpt>
      <trkpt lat="47.585029" lon="8.112132">
        <ele>318.956025</ele>
        <time>2021-11-21T11:44:15.678Z</time>
      </trkpt>
      <trkpt lat="47.584878" lon="8.111799">
        <ele>317.841332</ele>
        <time>2021-11-21T11:44:18.286Z</time>
      </trkpt>
      <trkpt lat="47.584806" lon="8.111649">
        <ele>317.329886</ele>
        <time>2021-11-21T11:44:19.456Z</time>
      </trkpt>
      <trkpt lat="47.584716" lon="8.111496">
        <ele>316.765920</ele>
        <time>2021-11-21T11:44:20.796Z</time>
      </trkpt>
      <trkpt lat="47.584579" lon="8.111319">
        <ele>316.298868</ele>
        <time>2021-11-21T11:44:22.511Z</time>
      </trkpt>
      <trkpt lat="47.584099" lon="8.110752">
        <ele>315.073455</ele>
        <time>2021-11-21T11:44:28.407Z</time>
      </trkpt>
      <trkpt lat="47.584050" lon="8.110692">
        <ele>314.946562</ele>
        <time>2021-11-21T11:44:29.015Z</time>
      </trkpt>
      <trkpt lat="47.583872" lon="8.110453">
        <ele>314.467062</ele>
        <time>2021-11-21T11:44:31.423Z</time>
      </trkpt>
      <trkpt lat="47.583574" lon="8.109890">
        <ele>313.503239</ele>
        <time>2021-11-21T11:44:37.165Z</time>
      </trkpt>
      <trkpt lat="47.583498" lon="8.109663">
        <ele>313.161930</ele>
        <time>2021-11-21T11:44:41.304Z</time>
      </trkpt>
      <trkpt lat="47.583478" lon="8.109592">
        <ele>313.058305</ele>
        <time>2021-11-21T11:44:43.503Z</time>
      </trkpt>
      <trkpt lat="47.583452" lon="8.109511">
        <ele>313.068093</ele>
        <time>2021-11-21T11:44:45.138Z</time>
      </trkpt>
      <trkpt lat="47.583405" lon="8.109406">
        <ele>313.534367</ele>
        <time>2021-11-21T11:44:47.047Z</time>
      </trkpt>
      <trkpt lat="47.583388" lon="8.109374">
        <ele>313.685084</ele>
        <time>2021-11-21T11:44:47.687Z</time>
      </trkpt>
      <trkpt lat="47.583348" lon="8.109308">
        <ele>314.013387</ele>
        <time>2021-11-21T11:44:49.066Z</time>
      </trkpt>
      <trkpt lat="47.583309" lon="8.109254">
        <ele>314.306117</ele>
        <time>2021-11-21T11:44:50.527Z</time>
      </trkpt>
      <trkpt lat="47.583159" lon="8.109095">
        <ele>315.317636</ele>
        <time>2021-11-21T11:44:56.412Z</time>
      </trkpt>
      <trkpt lat="47.583170" lon="8.109033">
        <ele>315.554846</ele>
        <time>2021-11-21T11:44:57.851Z</time>
      </trkpt>
      <trkpt lat="47.583198" lon="8.108941">
        <ele>315.928303</ele>
        <time>2021-11-21T11:44:59.455Z</time>
      </trkpt>
      <trkpt lat="47.583381" lon="8.108515">
        <ele>317.797065</ele>
        <time>2021-11-21T11:45:13.087Z</time>
      </trkpt>
      <trkpt lat="47.583467" lon="8.108290">
        <ele>318.753959</ele>
        <time>2021-11-21T11:45:22.316Z</time>
      </trkpt>
      <trkpt lat="47.583556" lon="8.108122">
        <ele>319.544375</ele>
        <time>2021-11-21T11:45:27.234Z</time>
      </trkpt>
      <trkpt lat="47.583630" lon="8.107975">
        <ele>320.223065</ele>
        <time>2021-11-21T11:45:32.092Z</time>
      </trkpt>
      <trkpt lat="47.583681" lon="8.107874">
        <ele>320.689889</ele>
        <time>2021-11-21T11:45:37.296Z</time>
      </trkpt>
      <trkpt lat="47.583730" lon="8.107651">
        <ele>321.557683</ele>
        <time>2021-11-21T11:45:42.663Z</time>
      </trkpt>
      <trkpt lat="47.583716" lon="8.107419">
        <ele>322.419528</ele>
        <time>2021-11-21T11:45:50.523Z</time>
      </trkpt>
      <trkpt lat="47.583602" lon="8.107067">
        <ele>323.717823</ele>
        <time>2021-11-21T11:46:00.045Z</time>
      </trkpt>
      <trkpt lat="47.583538" lon="8.106963">
        <ele>324.164307</ele>
        <time>2021-11-21T11:46:05.967Z</time>
      </trkpt>
      <trkpt lat="47.583190" lon="8.106425">
        <ele>326.528368</ele>
        <time>2021-11-21T11:46:26.032Z</time>
      </trkpt>
      <trkpt lat="47.583109" lon="8.106312">
        <ele>327.051332</ele>
        <time>2021-11-21T11:46:28.749Z</time>
      </trkpt>
      <trkpt lat="47.582953" lon="8.106093">
        <ele>328.061505</ele>
        <time>2021-11-21T11:46:37.362Z</time>
      </trkpt>
      <trkpt lat="47.582759" lon="8.105824">
        <ele>329.310475</ele>
        <time>2021-11-21T11:46:43.178Z</time>
      </trkpt>
      <trkpt lat="47.582400" lon="8.105317">
        <ele>331.563122</ele>
        <time>2021-11-21T11:46:56.374Z</time>
      </trkpt>
      <trkpt lat="47.581932" lon="8.104673">
        <ele>333.882570</ele>
        <time>2021-11-21T11:47:10.192Z</time>
      </trkpt>
      <trkpt lat="47.581693" lon="8.104351">
        <ele>335.055674</ele>
        <time>2021-11-21T11:47:18.759Z</time>
      </trkpt>
      <trkpt lat="47.581644" lon="8.104206">
        <ele>335.453049</ele>
        <time>2021-11-21T11:47:23.507Z</time>
      </trkpt>
      <trkpt lat="47.581609" lon="8.103948">
        <ele>336.097866</ele>
        <time>2021-11-21T11:47:29.039Z</time>
      </trkpt>
      <trkpt lat="47.581621" lon="8.103861">
        <ele>336.315448</ele>
        <time>2021-11-21T11:47:31.434Z</time>
      </trkpt>
      <trkpt lat="47.581680" lon="8.103741">
        <ele>336.679293</ele>
        <time>2021-11-21T11:47:35.376Z</time>
      </trkpt>
      <trkpt lat="47.581700" lon="8.103708">
        <ele>336.787993</ele>
        <time>2021-11-21T11:47:37.521Z</time>
      </trkpt>
      <trkpt lat="47.581790" lon="8.103613">
        <ele>337.189316</ele>
        <time>2021-11-21T11:47:40.633Z</time>
      </trkpt>
      <trkpt lat="47.582067" lon="8.103520">
        <ele>338.540355</ele>
        <time>2021-11-21T11:47:51.784Z</time>
      </trkpt>
      <trkpt lat="47.582742" lon="8.103783">
        <ele>343.143563</ele>
        <time>2021-11-21T11:48:20.593Z</time>
      </trkpt>
      <trkpt lat="47.582925" lon="8.103781">
        <ele>344.350587</ele>
        <time>2021-11-21T11:48:28.299Z</time>
      </trkpt>
      <trkpt lat="47.583203" lon="8.103671">
        <ele>346.248342</ele>
        <time>2021-11-21T11:48:41.734Z</time>
      </trkpt>
      <trkpt lat="47.583374" lon="8.103500">
        <ele>347.608775</ele>
        <time>2021-11-21T11:48:50.384Z</time>
      </trkpt>
      <trkpt lat="47.583567" lon="8.103131">
        <ele>349.686104</ele>
        <time>2021-11-21T11:49:03.051Z</time>
      </trkpt>
      <trkpt lat="47.583580" lon="8.103073">
        <ele>349.956334</ele>
        <time>2021-11-21T11:49:05.031Z</time>
      </trkpt>
      <trkpt lat="47.583646" lon="8.102779">
        <ele>351.326123</ele>
        <time>2021-11-21T11:49:13.273Z</time>
      </trkpt>
      <trkpt lat="47.583644" lon="8.102396">
        <ele>353.019315</ele>
        <time>2021-11-21T11:49:24.103Z</time>
      </trkpt>
      <trkpt lat="47.583595" lon="8.102123">
        <ele>354.268174</ele>
        <time>2021-11-21T11:49:32.046Z</time>
      </trkpt>
      <trkpt lat="47.583531" lon="8.101951">
        <ele>355.136564</ele>
        <time>2021-11-21T11:49:37.609Z</time>
      </trkpt>
      <trkpt lat="47.583260" lon="8.101238">
        <ele>358.754536</ele>
        <time>2021-11-21T11:49:58.988Z</time>
      </trkpt>
      <trkpt lat="47.583184" lon="8.101026">
        <ele>359.815882</ele>
        <time>2021-11-21T11:50:05.814Z</time>
      </trkpt>
      <trkpt lat="47.583009" lon="8.100415">
        <ele>362.852319</ele>
        <time>2021-11-21T11:50:23.879Z</time>
      </trkpt>
      <trkpt lat="47.582956" lon="8.099712">
        <ele>366.230523</ele>
        <time>2021-11-21T11:50:45.772Z</time>
      </trkpt>
      <trkpt lat="47.582991" lon="8.099169">
        <ele>368.835527</ele>
        <time>2021-11-21T11:51:02.044Z</time>
      </trkpt>
      <trkpt lat="47.583155" lon="8.098591">
        <ele>371.830135</ele>
        <time>2021-11-21T11:51:20.645Z</time>
      </trkpt>
      <trkpt lat="47.583254" lon="8.098366">
        <ele>373.113061</ele>
        <time>2021-11-21T11:51:28.300Z</time>
      </trkpt>
      <trkpt lat="47.583314" lon="8.098261">
        <ele>373.770256</ele>
        <time>2021-11-21T11:51:33.170Z</time>
      </trkpt>
      <trkpt lat="47.583497" lon="8.097983">
        <ele>375.481678</ele>
        <time>2021-11-21T11:51:43.611Z</time>
      </trkpt>
      <trkpt lat="47.585194" lon="8.096078">
        <ele>388.590449</ele>
        <time>2021-11-21T11:53:08.140Z</time>
      </trkpt>
      <trkpt lat="47.585712" lon="8.095427">
        <ele>392.361307</ele>
        <time>2021-11-21T11:53:32.290Z</time>
      </trkpt>
      <trkpt lat="47.585861" lon="8.095144">
        <ele>393.705965</ele>
        <time>2021-11-21T11:53:40.911Z</time>
      </trkpt>
      <trkpt lat="47.585991" lon="8.094838">
        <ele>395.060469</ele>
        <time>2021-11-21T11:53:49.924Z</time>
      </trkpt>
      <trkpt lat="47.586207" lon="8.094026">
        <ele>398.734105</ele>
        <time>2021-11-21T11:54:10.547Z</time>
      </trkpt>
      <trkpt lat="47.586271" lon="8.093380">
        <ele>401.547307</ele>
        <time>2021-11-21T11:54:28.459Z</time>
      </trkpt>
      <trkpt lat="47.586159" lon="8.091548">
        <ele>410.019225</ele>
        <time>2021-11-21T11:55:21.894Z</time>
      </trkpt>
      <trkpt lat="47.586169" lon="8.091329">
        <ele>411.185466</ele>
        <time>2021-11-21T11:55:28.781Z</time>
      </trkpt>
      <trkpt lat="47.586207" lon="8.091057">
        <ele>412.661316</ele>
        <time>2021-11-21T11:55:37.089Z</time>
      </trkpt>
      <trkpt lat="47.586374" lon="8.090476">
        <ele>416.016867</ele>
        <time>2021-11-21T11:55:56.724Z</time>
      </trkpt>
      <trkpt lat="47.586940" lon="8.089282">
        <ele>423.905939</ele>
        <time>2021-11-21T11:56:45.739Z</time>
      </trkpt>
      <trkpt lat="47.587101" lon="8.088498">
        <ele>428.498219</ele>
        <time>2021-11-21T11:57:11.537Z</time>
      </trkpt>
      <trkpt lat="47.587338" lon="8.086784">
        <ele>437.641053</ele>
        <time>2021-11-21T11:58:09.168Z</time>
      </trkpt>
      <trkpt lat="47.587490" lon="8.085581">
        <ele>442.298121</ele>
        <time>2021-11-21T11:58:44.940Z</time>
      </trkpt>
      <trkpt lat="47.587553" lon="8.085157">
        <ele>443.950132</ele>
        <time>2021-11-21T11:58:55.101Z</time>
      </trkpt>
      <trkpt lat="47.587632" lon="8.084818">
        <ele>445.314854</ele>
        <time>2021-11-21T11:59:01.918Z</time>
      </trkpt>
      <trkpt lat="47.587753" lon="8.084390">
        <ele>446.138092</ele>
        <time>2021-11-21T11:59:09.078Z</time>
      </trkpt>
      <trkpt lat="47.587882" lon="8.084051">
        <ele>445.600826</ele>
        <time>2021-11-21T11:59:13.408Z</time>
      </trkpt>
      <trkpt lat="47.587959" lon="8.083838">
        <ele>445.267250</ele>
        <time>2021-11-21T11:59:15.590Z</time>
      </trkpt>
      <trkpt lat="47.588010" lon="8.083700">
        <ele>445.050046</ele>
        <time>2021-11-21T11:59:16.776Z</time>
      </trkpt>
      <trkpt lat="47.588165" lon="8.083275">
        <ele>444.383141</ele>
        <time>2021-11-21T11:59:20.304Z</time>
      </trkpt>
      <trkpt lat="47.588252" lon="8.083013">
        <ele>443.980046</ele>
        <time>2021-11-21T11:59:22.311Z</time>
      </trkpt>
      <trkpt lat="47.588280" lon="8.082843">
        <ele>443.738499</ele>
        <time>2021-11-21T11:59:23.437Z</time>
      </trkpt>
      <trkpt lat="47.588296" lon="8.082646">
        <ele>443.464614</ele>
        <time>2021-11-21T11:59:24.728Z</time>
      </trkpt>
      <trkpt lat="47.588313" lon="8.082124">
        <ele>442.743257</ele>
        <time>2021-11-21T11:59:28.063Z</time>
      </trkpt>
      <trkpt lat="47.588361" lon="8.081689">
        <ele>441.515362</ele>
        <time>2021-11-21T11:59:30.819Z</time>
      </trkpt>
      <trkpt lat="47.588407" lon="8.081450">
        <ele>440.801504</ele>
        <time>2021-11-21T11:59:32.379Z</time>
      </trkpt>
      <trkpt lat="47.588550" lon="8.080930">
        <ele>439.188588</ele>
        <time>2021-11-21T11:59:35.940Z</time>
      </trkpt>
      <trkpt lat="47.588590" lon="8.080813">
        <ele>438.811835</ele>
        <time>2021-11-21T11:59:36.741Z</time>
      </trkpt>
      <trkpt lat="47.588682" lon="8.080451">
        <ele>437.700741</ele>
        <time>2021-11-21T11:59:39.283Z</time>
      </trkpt>
      <trkpt lat="47.588725" lon="8.080182">
        <ele>436.906723</ele>
        <time>2021-11-21T11:59:41.109Z</time>
      </trkpt>
      <trkpt lat="47.588723" lon="8.079889">
        <ele>436.065133</ele>
        <time>2021-11-21T11:59:43.113Z</time>
      </trkpt>
      <trkpt lat="47.588698" lon="8.079659">
        <ele>435.396010</ele>
        <time>2021-11-21T11:59:44.710Z</time>
      </trkpt>
      <trkpt lat="47.588607" lon="8.079377">
        <ele>434.849382</ele>
        <time>2021-11-21T11:59:46.931Z</time>
      </trkpt>
      <trkpt lat="47.588405" lon="8.078961">
        <ele>434.316954</ele>
        <time>2021-11-21T11:59:50.683Z</time>
      </trkpt>
      <trkpt lat="47.588322" lon="8.078847">
        <ele>434.142714</ele>
        <time>2021-11-21T11:59:51.899Z</time>
      </trkpt>
      <trkpt lat="47.588175" lon="8.078681">
        <ele>433.858144</ele>
        <time>2021-11-21T11:59:54.053Z</time>
      </trkpt>
      <trkpt lat="47.587261" lon="8.077843">
        <ele>432.210188</ele>
        <time>2021-11-21T12:00:07.302Z</time>
      </trkpt>
      <trkpt lat="47.586782" lon="8.077419">
        <ele>431.431325</ele>
        <time>2021-11-21T12:00:14.365Z</time>
      </trkpt>
      <trkpt lat="47.586044" lon="8.076710">
        <ele>430.203587</ele>
        <time>2021-11-21T12:00:25.047Z</time>
      </trkpt>
      <trkpt lat="47.585216" lon="8.075691">
        <ele>427.392339</ele>
        <time>2021-11-21T12:00:36.176Z</time>
      </trkpt>
      <trkpt lat="47.584889" lon="8.075206">
        <ele>425.953688</ele>
        <time>2021-11-21T12:00:40.808Z</time>
      </trkpt>
      <trkpt lat="47.584571" lon="8.074688">
        <ele>424.484250</ele>
        <time>2021-11-21T12:00:45.496Z</time>
      </trkpt>
      <trkpt lat="47.584025" lon="8.073868">
        <ele>422.603390</ele>
        <time>2021-11-21T12:00:53.284Z</time>
      </trkpt>
      <trkpt lat="47.583806" lon="8.073622">
        <ele>421.966491</ele>
        <time>2021-11-21T12:00:56.063Z</time>
      </trkpt>
      <trkpt lat="47.582481" lon="8.072674">
        <ele>419.267998</ele>
        <time>2021-11-21T12:01:13.787Z</time>
      </trkpt>
      <trkpt lat="47.582255" lon="8.072455">
        <ele>418.949932</ele>
        <time>2021-11-21T12:01:18.025Z</time>
      </trkpt>
      <trkpt lat="47.582001" lon="8.072163">
        <ele>418.571286</ele>
        <time>2021-11-21T12:01:22.977Z</time>
      </trkpt>
      <trkpt lat="47.581639" lon="8.071564">
        <ele>417.932206</ele>
        <time>2021-11-21T12:01:28.896Z</time>
      </trkpt>
      <trkpt lat="47.581509" lon="8.071314">
        <ele>417.067711</ele>
        <time>2021-11-21T12:01:31.169Z</time>
      </trkpt>
      <trkpt lat="47.581397" lon="8.071044">
        <ele>416.055764</ele>
        <time>2021-11-21T12:01:33.321Z</time>
      </trkpt>
      <trkpt lat="47.581302" lon="8.070775">
        <ele>415.086374</ele>
        <time>2021-11-21T12:01:35.368Z</time>
      </trkpt>
      <trkpt lat="47.581200" lon="8.070445">
        <ele>413.927478</ele>
        <time>2021-11-21T12:01:37.760Z</time>
      </trkpt>
      <trkpt lat="47.581072" lon="8.070001">
        <ele>412.385931</ele>
        <time>2021-11-21T12:01:40.812Z</time>
      </trkpt>
      <trkpt lat="47.580540" lon="8.068640">
        <ele>406.920022</ele>
        <time>2021-11-21T12:01:50.417Z</time>
      </trkpt>
      <trkpt lat="47.580436" lon="8.068266">
        <ele>405.342956</ele>
        <time>2021-11-21T12:01:52.836Z</time>
      </trkpt>
      <trkpt lat="47.580169" lon="8.066489">
        <ele>398.693981</ele>
        <time>2021-11-21T12:02:04.273Z</time>
      </trkpt>
      <trkpt lat="47.579947" lon="8.065949">
        <ele>397.740531</ele>
        <time>2021-11-21T12:02:08.681Z</time>
      </trkpt>
      <trkpt lat="47.579737" lon="8.065632">
        <ele>397.070650</ele>
        <time>2021-11-21T12:02:12.100Z</time>
      </trkpt>
      <trkpt lat="47.579627" lon="8.065529">
        <ele>396.779851</ele>
        <time>2021-11-21T12:02:13.423Z</time>
      </trkpt>
      <trkpt lat="47.579504" lon="8.065414">
        <ele>396.454823</ele>
        <time>2021-11-21T12:02:15.161Z</time>
      </trkpt>
      <trkpt lat="47.579181" lon="8.065229">
        <ele>395.680875</ele>
        <time>2021-11-21T12:02:19.201Z</time>
      </trkpt>
      <trkpt lat="47.579104" lon="8.065203">
        <ele>395.504364</ele>
        <time>2021-11-21T12:02:20.549Z</time>
      </trkpt>
      <trkpt lat="47.579003" lon="8.065169">
        <ele>395.272872</ele>
        <time>2021-11-21T12:02:21.733Z</time>
      </trkpt>
      <trkpt lat="47.578623" lon="8.065188">
        <ele>394.765794</ele>
        <time>2021-11-21T12:02:26.572Z</time>
      </trkpt>
      <trkpt lat="47.578363" lon="8.065294">
        <ele>394.550231</ele>
        <time>2021-11-21T12:02:30.484Z</time>
      </trkpt>
      <trkpt lat="47.578177" lon="8.065370">
        <ele>394.395996</ele>
        <time>2021-11-21T12:02:32.609Z</time>
      </trkpt>
      <trkpt lat="47.577839" lon="8.065448">
        <ele>394.122542</ele>
        <time>2021-11-21T12:02:37.212Z</time>
      </trkpt>
      <trkpt lat="47.577609" lon="8.065406">
        <ele>393.937288</ele>
        <time>2021-11-21T12:02:40.515Z</time>
      </trkpt>
      <trkpt lat="47.577380" lon="8.065302">
        <ele>393.745825</ele>
        <time>2021-11-21T12:02:43.498Z</time>
      </trkpt>
      <trkpt lat="47.577043" lon="8.064953">
        <ele>393.495800</ele>
        <time>2021-11-21T12:02:48.439Z</time>
      </trkpt>
      <trkpt lat="47.576978" lon="8.064848">
        <ele>393.478410</ele>
        <time>2021-11-21T12:02:49.413Z</time>
      </trkpt>
      <trkpt lat="47.576848" lon="8.064544">
        <ele>393.434490</ele>
        <time>2021-11-21T12:02:52.537Z</time>
      </trkpt>
      <trkpt lat="47.576750" lon="8.064033">
        <ele>393.369665</ele>
        <time>2021-11-21T12:02:57.215Z</time>
      </trkpt>
      <trkpt lat="47.576737" lon="8.063729">
        <ele>393.332496</ele>
        <time>2021-11-21T12:02:59.893Z</time>
      </trkpt>
      <trkpt lat="47.576746" lon="8.063401">
        <ele>393.292439</ele>
        <time>2021-11-21T12:03:03.175Z</time>
      </trkpt>
      <trkpt lat="47.576746" lon="8.063355">
        <ele>393.286826</ele>
        <time>2021-11-21T12:03:03.534Z</time>
      </trkpt>
      <trkpt lat="47.576741" lon="8.063055">
        <ele>393.250208</ele>
        <time>2021-11-21T12:03:07.088Z</time>
      </trkpt>
      <trkpt lat="47.576712" lon="8.062700">
        <ele>393.206573</ele>
        <time>2021-11-21T12:03:11.362Z</time>
      </trkpt>
      <trkpt lat="47.576551" lon="8.062025">
        <ele>393.369337</ele>
        <time>2021-11-21T12:03:21.522Z</time>
      </trkpt>
      <trkpt lat="47.576045" lon="8.061150">
        <ele>393.702551</ele>
        <time>2021-11-21T12:03:35.614Z</time>
      </trkpt>
      <trkpt lat="47.575791" lon="8.060748">
        <ele>393.861798</ele>
        <time>2021-11-21T12:03:41.328Z</time>
      </trkpt>
      <trkpt lat="47.575642" lon="8.060451">
        <ele>393.950174</ele>
        <time>2021-11-21T12:03:45.273Z</time>
      </trkpt>
      <trkpt lat="47.575626" lon="8.060407">
        <ele>393.904742</ele>
        <time>2021-11-21T12:03:45.581Z</time>
      </trkpt>
      <trkpt lat="47.575229" lon="8.059329">
        <ele>392.788453</ele>
        <time>2021-11-21T12:03:55.221Z</time>
      </trkpt>
      <trkpt lat="47.575062" lon="8.059032">
        <ele>392.437034</ele>
        <time>2021-11-21T12:03:58.081Z</time>
      </trkpt>
      <trkpt lat="47.574691" lon="8.058686">
        <ele>391.846487</ele>
        <time>2021-11-21T12:04:02.805Z</time>
      </trkpt>
      <trkpt lat="47.574360" lon="8.057968">
        <ele>392.052926</ele>
        <time>2021-11-21T12:04:09.907Z</time>
      </trkpt>
      <trkpt lat="47.574225" lon="8.057606">
        <ele>392.449776</ele>
        <time>2021-11-21T12:04:13.969Z</time>
      </trkpt>
      <trkpt lat="47.574181" lon="8.057386">
        <ele>392.669932</ele>
        <time>2021-11-21T12:04:17.470Z</time>
      </trkpt>
      <trkpt lat="47.574121" lon="8.056069">
        <ele>393.936393</ele>
        <time>2021-11-21T12:04:38.789Z</time>
      </trkpt>
      <trkpt lat="47.573993" lon="8.055472">
        <ele>395.150811</ele>
        <time>2021-11-21T12:04:51.995Z</time>
      </trkpt>
      <trkpt lat="47.573806" lon="8.055119">
        <ele>396.183903</ele>
        <time>2021-11-21T12:05:02.982Z</time>
      </trkpt>
      <trkpt lat="47.573098" lon="8.054422">
        <ele>399.083758</ele>
        <time>2021-11-21T12:05:28.826Z</time>
      </trkpt>
      <trkpt lat="47.572855" lon="8.053943">
        <ele>400.236985</ele>
        <time>2021-11-21T12:05:38.653Z</time>
      </trkpt>
      <trkpt lat="47.572769" lon="8.053639">
        <ele>400.241138</ele>
        <time>2021-11-21T12:05:42.841Z</time>
      </trkpt>
      <trkpt lat="47.572728" lon="8.053331">
        <ele>400.245094</ele>
        <time>2021-11-21T12:05:46.841Z</time>
      </trkpt>
      <trkpt lat="47.572645" lon="8.052612">
        <ele>400.254286</ele>
        <time>2021-11-21T12:05:53.645Z</time>
      </trkpt>
      <trkpt lat="47.572498" lon="8.051744">
        <ele>400.265562</ele>
        <time>2021-11-21T12:06:01.355Z</time>
      </trkpt>
      <trkpt lat="47.572428" lon="8.051523">
        <ele>400.268638</ele>
        <time>2021-11-21T12:06:03.169Z</time>
      </trkpt>
      <trkpt lat="47.572078" lon="8.050690">
        <ele>400.470698</ele>
        <time>2021-11-21T12:06:10.783Z</time>
      </trkpt>
      <trkpt lat="47.571850" lon="8.050064">
        <ele>400.625352</ele>
        <time>2021-11-21T12:06:17.126Z</time>
      </trkpt>
      <trkpt lat="47.571420" lon="8.048138">
        <ele>404.123387</ele>
        <time>2021-11-21T12:06:50.345Z</time>
      </trkpt>
      <trkpt lat="47.571393" lon="8.048046">
        <ele>404.451777</ele>
        <time>2021-11-21T12:06:52.903Z</time>
      </trkpt>
      <trkpt lat="47.571376" lon="8.047921">
        <ele>404.869156</ele>
        <time>2021-11-21T12:06:56.056Z</time>
      </trkpt>
      <trkpt lat="47.571343" lon="8.047807">
        <ele>405.275196</ele>
        <time>2021-11-21T12:06:58.947Z</time>
      </trkpt>
      <trkpt lat="47.571300" lon="8.047715">
        <ele>405.641532</ele>
        <time>2021-11-21T12:07:01.752Z</time>
      </trkpt>
      <trkpt lat="47.571299" lon="8.047673">
        <ele>405.779092</ele>
        <time>2021-11-21T12:07:02.772Z</time>
      </trkpt>
      <trkpt lat="47.571296" lon="8.047649">
        <ele>405.858986</ele>
        <time>2021-11-21T12:07:03.303Z</time>
      </trkpt>
      <trkpt lat="47.571290" lon="8.047622">
        <ele>405.952032</ele>
        <time>2021-11-21T12:07:04.066Z</time>
      </trkpt>
      <trkpt lat="47.571491" lon="8.047139">
        <ele>407.809541</ele>
        <time>2021-11-21T12:07:19.138Z</time>
      </trkpt>
      <trkpt lat="47.571945" lon="8.046452">
        <ele>411.654998</ele>
        <time>2021-11-21T12:07:47.118Z</time>
      </trkpt>
      <trkpt lat="47.572510" lon="8.045794">
        <ele>416.900900</ele>
        <time>2021-11-21T12:08:22.839Z</time>
      </trkpt>
      <trkpt lat="47.573295" lon="8.045051">
        <ele>423.331645</ele>
        <time>2021-11-21T12:09:01.870Z</time>
      </trkpt>
      <trkpt lat="47.573429" lon="8.044953">
        <ele>424.017463</ele>
        <time>2021-11-21T12:09:07.943Z</time>
      </trkpt>
      <trkpt lat="47.573633" lon="8.044804">
        <ele>425.061278</ele>
        <time>2021-11-21T12:09:15.270Z</time>
      </trkpt>
      <trkpt lat="47.573815" lon="8.044678">
        <ele>425.983239</ele>
        <time>2021-11-21T12:09:22.192Z</time>
      </trkpt>
      <trkpt lat="47.573938" lon="8.044606">
        <ele>426.590208</ele>
        <time>2021-11-21T12:09:26.096Z</time>
      </trkpt>
      <trkpt lat="47.574051" lon="8.044531">
        <ele>427.158473</ele>
        <time>2021-11-21T12:09:30.393Z</time>
      </trkpt>
      <trkpt lat="47.574390" lon="8.044308">
        <ele>428.860744</ele>
        <time>2021-11-21T12:09:41.891Z</time>
      </trkpt>
      <trkpt lat="47.574471" lon="8.044253">
        <ele>429.269666</ele>
        <time>2021-11-21T12:09:44.271Z</time>
      </trkpt>
      <trkpt lat="47.574592" lon="8.044171">
        <ele>429.880318</ele>
        <time>2021-11-21T12:09:47.863Z</time>
      </trkpt>
      <trkpt lat="47.575389" lon="8.043092">
        <ele>434.585235</ele>
        <time>2021-11-21T12:10:19.511Z</time>
      </trkpt>
      <trkpt lat="47.575410" lon="8.043062">
        <ele>434.710481</ele>
        <time>2021-11-21T12:10:20.841Z</time>
      </trkpt>
      <trkpt lat="47.575551" lon="8.042859">
        <ele>435.554582</ele>
        <time>2021-11-21T12:10:26.954Z</time>
      </trkpt>
      <trkpt lat="47.575916" lon="8.042334">
        <ele>437.738660</ele>
        <time>2021-11-21T12:10:44.095Z</time>
      </trkpt>
      <trkpt lat="47.576154" lon="8.041970">
        <ele>439.276431</ele>
        <time>2021-11-21T12:10:55.925Z</time>
      </trkpt>
      <trkpt lat="47.576239" lon="8.041840">
        <ele>439.870578</ele>
        <time>2021-11-21T12:11:01.278Z</time>
      </trkpt>
      <trkpt lat="47.576429" lon="8.041522">
        <ele>441.264675</ele>
        <time>2021-11-21T12:11:11.574Z</time>
      </trkpt>
      <trkpt lat="47.576507" lon="8.041392">
        <ele>441.835644</ele>
        <time>2021-11-21T12:11:16.056Z</time>
      </trkpt>
      <trkpt lat="47.576607" lon="8.041218">
        <ele>442.585808</ele>
        <time>2021-11-21T12:11:21.129Z</time>
      </trkpt>
      <trkpt lat="47.576829" lon="8.040830">
        <ele>444.255471</ele>
        <time>2021-11-21T12:11:33.176Z</time>
      </trkpt>
      <trkpt lat="47.576997" lon="8.040556">
        <ele>445.470602</ele>
        <time>2021-11-21T12:11:42.481Z</time>
      </trkpt>
      <trkpt lat="47.577085" lon="8.040426">
        <ele>446.074993</ele>
        <time>2021-11-21T12:11:46.025Z</time>
      </trkpt>
      <trkpt lat="47.577180" lon="8.040248">
        <ele>446.819861</ele>
        <time>2021-11-21T12:11:51.488Z</time>
      </trkpt>
      <trkpt lat="47.577435" lon="8.039653">
        <ele>448.795211</ele>
        <time>2021-11-21T12:12:04.898Z</time>
      </trkpt>
      <trkpt lat="47.577511" lon="8.039123">
        <ele>450.219222</ele>
        <time>2021-11-21T12:12:15.715Z</time>
      </trkpt>
      <trkpt lat="47.577500" lon="8.038826">
        <ele>451.000941</ele>
        <time>2021-11-21T12:12:21.293Z</time>
      </trkpt>
      <trkpt lat="47.577482" lon="8.038687">
        <ele>451.372916</ele>
        <time>2021-11-21T12:12:24.812Z</time>
      </trkpt>
      <trkpt lat="47.577435" lon="8.038421">
        <ele>452.095571</ele>
        <time>2021-11-21T12:12:29.516Z</time>
      </trkpt>
      <trkpt lat="47.577322" lon="8.038119">
        <ele>453.003172</ele>
        <time>2021-11-21T12:12:37.323Z</time>
      </trkpt>
      <trkpt lat="47.577206" lon="8.037855">
        <ele>453.831189</ele>
        <time>2021-11-21T12:12:43.130Z</time>
      </trkpt>
      <trkpt lat="47.577033" lon="8.037627">
        <ele>454.825090</ele>
        <time>2021-11-21T12:12:50.253Z</time>
      </trkpt>
      <trkpt lat="47.577033" lon="8.037627">
        <ele>454.825090</ele>
        <time>2021-11-21T12:12:50.257Z</time>
      </trkpt>
      <trkpt lat="47.577177" lon="8.037276">
        <ele>456.247875</ele>
        <time>2021-11-21T12:12:59.860Z</time>
      </trkpt>
      <trkpt lat="47.577575" lon="8.036311">
        <ele>460.165124</ele>
        <time>2021-11-21T12:13:25.522Z</time>
      </trkpt>
      <trkpt lat="47.577907" lon="8.035891">
        <ele>462.405893</ele>
        <time>2021-11-21T12:13:42.090Z</time>
      </trkpt>
      <trkpt lat="47.578436" lon="8.035601">
        <ele>465.792983</ele>
        <time>2021-11-21T12:14:04.819Z</time>
      </trkpt>
      <trkpt lat="47.578978" lon="8.035646">
        <ele>469.423331</ele>
        <time>2021-11-21T12:14:26.836Z</time>
      </trkpt>
      <trkpt lat="47.579283" lon="8.035709">
        <ele>471.482748</ele>
        <time>2021-11-21T12:14:40.101Z</time>
      </trkpt>
      <trkpt lat="47.579422" lon="8.035733">
        <ele>472.418605</ele>
        <time>2021-11-21T12:14:46.444Z</time>
      </trkpt>
      <trkpt lat="47.579822" lon="8.035743">
        <ele>475.094017</ele>
        <time>2021-11-21T12:15:03.598Z</time>
      </trkpt>
      <trkpt lat="47.580022" lon="8.035662">
        <ele>476.476095</ele>
        <time>2021-11-21T12:15:11.783Z</time>
      </trkpt>
      <trkpt lat="47.580118" lon="8.035593">
        <ele>477.185479</ele>
        <time>2021-11-21T12:15:16.835Z</time>
      </trkpt>
      <trkpt lat="47.580238" lon="8.035490">
        <ele>478.107465</ele>
        <time>2021-11-21T12:15:23.149Z</time>
      </trkpt>
      <trkpt lat="47.580445" lon="8.035225">
        <ele>479.926011</ele>
        <time>2021-11-21T12:15:34.730Z</time>
      </trkpt>
      <trkpt lat="47.580541" lon="8.035017">
        <ele>481.056402</ele>
        <time>2021-11-21T12:15:41.627Z</time>
      </trkpt>
      <trkpt lat="47.580850" lon="8.034146">
        <ele>485.470324</ele>
        <time>2021-11-21T12:16:09.249Z</time>
      </trkpt>
      <trkpt lat="47.581054" lon="8.033717">
        <ele>487.774295</ele>
        <time>2021-11-21T12:16:24.206Z</time>
      </trkpt>
      <trkpt lat="47.581473" lon="8.033185">
        <ele>490.284759</ele>
        <time>2021-11-21T12:16:44.034Z</time>
      </trkpt>
      <trkpt lat="47.581815" lon="8.032893">
        <ele>492.080741</ele>
        <time>2021-11-21T12:16:57.378Z</time>
      </trkpt>
      <trkpt lat="47.582168" lon="8.032628">
        <ele>493.881339</ele>
        <time>2021-11-21T12:17:09.931Z</time>
      </trkpt>
      <trkpt lat="47.582305" lon="8.032518">
        <ele>494.590343</ele>
        <time>2021-11-21T12:17:14.498Z</time>
      </trkpt>
      <trkpt lat="47.582257" lon="8.032344">
        <ele>495.167387</ele>
        <time>2021-11-21T12:17:19.032Z</time>
      </trkpt>
      <trkpt lat="47.582218" lon="8.032127">
        <ele>495.851848</ele>
        <time>2021-11-21T12:17:24.022Z</time>
      </trkpt>
      <trkpt lat="47.582194" lon="8.031979">
        <ele>495.956539</ele>
        <time>2021-11-21T12:17:27.256Z</time>
      </trkpt>
      <trkpt lat="47.582207" lon="8.031849">
        <ele>496.046927</ele>
        <time>2021-11-21T12:17:30.195Z</time>
      </trkpt>
      <trkpt lat="47.581991" lon="8.031722">
        <ele>496.283856</ele>
        <time>2021-11-21T12:17:37.087Z</time>
      </trkpt>
      <trkpt lat="47.581914" lon="8.031633">
        <ele>496.383410</ele>
        <time>2021-11-21T12:17:39.984Z</time>
      </trkpt>
      <trkpt lat="47.581703" lon="8.031357">
        <ele>496.670325</ele>
        <time>2021-11-21T12:17:47.396Z</time>
      </trkpt>
      <trkpt lat="47.581603" lon="8.031197">
        <ele>496.820346</ele>
        <time>2021-11-21T12:17:51.184Z</time>
      </trkpt>
      <trkpt lat="47.581523" lon="8.031026">
        <ele>496.963476</ele>
        <time>2021-11-21T12:17:54.054Z</time>
      </trkpt>
      <trkpt lat="47.581423" lon="8.030639">
        <ele>497.248509</ele>
        <time>2021-11-21T12:17:59.707Z</time>
      </trkpt>
      <trkpt lat="47.581354" lon="8.030430">
        <ele>497.408550</ele>
        <time>2021-11-21T12:18:02.417Z</time>
      </trkpt>
      <trkpt lat="47.581171" lon="8.030156">
        <ele>497.673751</ele>
        <time>2021-11-21T12:18:07.115Z</time>
      </trkpt>
      <trkpt lat="47.580985" lon="8.029962">
        <ele>497.442335</ele>
        <time>2021-11-21T12:18:11.140Z</time>
      </trkpt>
      <trkpt lat="47.580745" lon="8.029776">
        <ele>497.140222</ele>
        <time>2021-11-21T12:18:15.703Z</time>
      </trkpt>
      <trkpt lat="47.580567" lon="8.029638">
        <ele>496.916137</ele>
        <time>2021-11-21T12:18:19.268Z</time>
      </trkpt>
      <trkpt lat="47.580537" lon="8.029599">
        <ele>496.871625</ele>
        <time>2021-11-21T12:18:19.881Z</time>
      </trkpt>
      <trkpt lat="47.580507" lon="8.029540">
        <ele>496.816027</ele>
        <time>2021-11-21T12:18:20.741Z</time>
      </trkpt>
      <trkpt lat="47.580457" lon="8.029426">
        <ele>496.713702</ele>
        <time>2021-11-21T12:18:22.313Z</time>
      </trkpt>
      <trkpt lat="47.580445" lon="8.029350">
        <ele>496.654965</ele>
        <time>2021-11-21T12:18:23.321Z</time>
      </trkpt>
      <trkpt lat="47.580435" lon="8.029225">
        <ele>496.560243</ele>
        <time>2021-11-21T12:18:24.838Z</time>
      </trkpt>
      <trkpt lat="47.580414" lon="8.028952">
        <ele>496.353477</ele>
        <time>2021-11-21T12:18:27.835Z</time>
      </trkpt>
      <trkpt lat="47.580414" lon="8.028741">
        <ele>496.194697</ele>
        <time>2021-11-21T12:18:30.373Z</time>
      </trkpt>
      <trkpt lat="47.580504" lon="8.027848">
        <ele>495.559596</ele>
        <time>2021-11-21T12:18:40.336Z</time>
      </trkpt>
      <trkpt lat="47.580430" lon="8.027348">
        <ele>495.279423</ele>
        <time>2021-11-21T12:18:46.175Z</time>
      </trkpt>
      <trkpt lat="47.580406" lon="8.027217">
        <ele>495.205125</ele>
        <time>2021-11-21T12:18:47.920Z</time>
      </trkpt>
      <trkpt lat="47.580391" lon="8.026955">
        <ele>495.061209</ele>
        <time>2021-11-21T12:18:51.024Z</time>
      </trkpt>
      <trkpt lat="47.580386" lon="8.026802">
        <ele>494.977370</ele>
        <time>2021-11-21T12:18:52.886Z</time>
      </trkpt>
      <trkpt lat="47.580341" lon="8.025695">
        <ele>494.370376</ele>
        <time>2021-11-21T12:19:06.747Z</time>
      </trkpt>
      <trkpt lat="47.580173" lon="8.024170">
        <ele>494.519883</ele>
        <time>2021-11-21T12:19:25.973Z</time>
      </trkpt>
      <trkpt lat="47.580262" lon="8.023307">
        <ele>494.727446</ele>
        <time>2021-11-21T12:19:39.084Z</time>
      </trkpt>
      <trkpt lat="47.580380" lon="8.022562">
        <ele>495.379239</ele>
        <time>2021-11-21T12:19:52.501Z</time>
      </trkpt>
      <trkpt lat="47.580425" lon="8.022255">
        <ele>496.070059</ele>
        <time>2021-11-21T12:19:58.783Z</time>
      </trkpt>
      <trkpt lat="47.580470" lon="8.021934">
        <ele>496.790992</ele>
        <time>2021-11-21T12:20:05.195Z</time>
      </trkpt>
      <trkpt lat="47.580271" lon="8.020243">
        <ele>500.565520</ele>
        <time>2021-11-21T12:20:49.245Z</time>
      </trkpt>
      <trkpt lat="47.580312" lon="8.020164">
        <ele>500.756055</ele>
        <time>2021-11-21T12:20:51.804Z</time>
      </trkpt>
      <trkpt lat="47.580484" lon="8.019833">
        <ele>501.293703</ele>
        <time>2021-11-21T12:21:00.531Z</time>
      </trkpt>
      <trkpt lat="47.580955" lon="8.019317">
        <ele>502.410898</ele>
        <time>2021-11-21T12:21:16.628Z</time>
      </trkpt>
      <trkpt lat="47.580948" lon="8.019213">
        <ele>502.545386</ele>
        <time>2021-11-21T12:21:18.111Z</time>
      </trkpt>
      <trkpt lat="47.580916" lon="8.019035">
        <ele>502.782425</ele>
        <time>2021-11-21T12:21:20.900Z</time>
      </trkpt>
      <trkpt lat="47.580830" lon="8.018918">
        <ele>503.005089</ele>
        <time>2021-11-21T12:21:24.764Z</time>
      </trkpt>
      <trkpt lat="47.580782" lon="8.018916">
        <ele>503.096690</ele>
        <time>2021-11-21T12:21:25.831Z</time>
      </trkpt>
      <trkpt lat="47.580628" lon="8.018939">
        <ele>503.391947</ele>
        <time>2021-11-21T12:21:28.985Z</time>
      </trkpt>
      <trkpt lat="47.580504" lon="8.018992">
        <ele>503.638124</ele>
        <time>2021-11-21T12:21:32.717Z</time>
      </trkpt>
      <trkpt lat="47.580282" lon="8.019086">
        <ele>504.078546</ele>
        <time>2021-11-21T12:21:36.898Z</time>
      </trkpt>
      <trkpt lat="47.580093" lon="8.019071">
        <ele>504.175488</ele>
        <time>2021-11-21T12:21:41.940Z</time>
      </trkpt>
      <trkpt lat="47.579943" lon="8.018927">
        <ele>504.208961</ele>
        <time>2021-11-21T12:21:44.339Z</time>
      </trkpt>
      <trkpt lat="47.579890" lon="8.018812">
        <ele>504.226558</ele>
        <time>2021-11-21T12:21:46.339Z</time>
      </trkpt>
      <trkpt lat="47.579827" lon="8.017916">
        <ele>504.340380</ele>
        <time>2021-11-21T12:21:53.939Z</time>
      </trkpt>
      <trkpt lat="47.579800" lon="8.017631">
        <ele>504.376743</ele>
        <time>2021-11-21T12:21:56.895Z</time>
      </trkpt>
      <trkpt lat="47.579770" lon="8.017313">
        <ele>504.417313</ele>
        <time>2021-11-21T12:21:59.405Z</time>
      </trkpt>
      <trkpt lat="47.579807" lon="8.016479">
        <ele>504.501821</ele>
        <time>2021-11-21T12:22:09.806Z</time>
      </trkpt>
      <trkpt lat="47.579782" lon="8.016013">
        <ele>504.529173</ele>
        <time>2021-11-21T12:22:15.878Z</time>
      </trkpt>
      <trkpt lat="47.579693" lon="8.015395">
        <ele>504.566148</ele>
        <time>2021-11-21T12:22:23.118Z</time>
      </trkpt>
      <trkpt lat="47.579677" lon="8.015285">
        <ele>504.572732</ele>
        <time>2021-11-21T12:22:23.972Z</time>
      </trkpt>
      <trkpt lat="47.579476" lon="8.014445">
        <ele>504.624882</ele>
        <time>2021-11-21T12:22:32.267Z</time>
      </trkpt>
      <trkpt lat="47.579390" lon="8.014221">
        <ele>504.637698</ele>
        <time>2021-11-21T12:22:34.297Z</time>
      </trkpt>
      <trkpt lat="47.579303" lon="8.013994">
        <ele>504.545960</ele>
        <time>2021-11-21T12:22:36.959Z</time>
      </trkpt>
      <trkpt lat="47.579083" lon="8.012800">
        <ele>504.111045</ele>
        <time>2021-11-21T12:22:47.621Z</time>
      </trkpt>
      <trkpt lat="47.578994" lon="8.011565">
        <ele>503.665606</ele>
        <time>2021-11-21T12:22:59.036Z</time>
      </trkpt>
      <trkpt lat="47.578877" lon="8.010552">
        <ele>503.188692</ele>
        <time>2021-11-21T12:23:08.511Z</time>
      </trkpt>
      <trkpt lat="47.578802" lon="8.010247">
        <ele>503.038049</ele>
        <time>2021-11-21T12:23:11.218Z</time>
      </trkpt>
      <trkpt lat="47.578506" lon="8.009815">
        <ele>502.752308</ele>
        <time>2021-11-21T12:23:16.511Z</time>
      </trkpt>
      <trkpt lat="47.578339" lon="8.009582">
        <ele>502.594549</ele>
        <time>2021-11-21T12:23:19.743Z</time>
      </trkpt>
      <trkpt lat="47.578275" lon="8.009410">
        <ele>502.503396</ele>
        <time>2021-11-21T12:23:21.216Z</time>
      </trkpt>
      <trkpt lat="47.578269" lon="8.009376">
        <ele>502.487088</ele>
        <time>2021-11-21T12:23:22.306Z</time>
      </trkpt>
      <trkpt lat="47.578332" lon="8.009223">
        <ele>502.147836</ele>
        <time>2021-11-21T12:23:23.713Z</time>
      </trkpt>
      <trkpt lat="47.578864" lon="8.008842">
        <ele>500.050228</ele>
        <time>2021-11-21T12:23:30.278Z</time>
      </trkpt>
      <trkpt lat="47.579619" lon="8.008172">
        <ele>496.926201</ele>
        <time>2021-11-21T12:23:38.903Z</time>
      </trkpt>
      <trkpt lat="47.579923" lon="8.008040">
        <ele>495.455424</ele>
        <time>2021-11-21T12:23:41.815Z</time>
      </trkpt>
      <trkpt lat="47.580912" lon="8.007336">
        <ele>486.714028</ele>
        <time>2021-11-21T12:23:51.521Z</time>
      </trkpt>
      <trkpt lat="47.581140" lon="8.006991">
        <ele>484.118197</ele>
        <time>2021-11-21T12:23:54.341Z</time>
      </trkpt>
      <trkpt lat="47.581321" lon="8.006142">
        <ele>479.305946</ele>
        <time>2021-11-21T12:23:59.538Z</time>
      </trkpt>
      <trkpt lat="47.581764" lon="8.005054">
        <ele>472.400046</ele>
        <time>2021-11-21T12:24:07.119Z</time>
      </trkpt>
      <trkpt lat="47.582188" lon="8.004718">
        <ele>468.526941</ele>
        <time>2021-11-21T12:24:11.389Z</time>
      </trkpt>
      <trkpt lat="47.582510" lon="8.004377">
        <ele>466.397520</ele>
        <time>2021-11-21T12:24:14.918Z</time>
      </trkpt>
      <trkpt lat="47.582604" lon="8.004164">
        <ele>465.776940</ele>
        <time>2021-11-21T12:24:16.458Z</time>
      </trkpt>
      <trkpt lat="47.582727" lon="8.003464">
        <ele>464.013339</ele>
        <time>2021-11-21T12:24:21.012Z</time>
      </trkpt>
      <trkpt lat="47.582781" lon="8.003305">
        <ele>463.579323</ele>
        <time>2021-11-21T12:24:22.056Z</time>
      </trkpt>
      <trkpt lat="47.582789" lon="8.003167">
        <ele>463.241631</ele>
        <time>2021-11-21T12:24:23.103Z</time>
      </trkpt>
      <trkpt lat="47.582779" lon="8.003036">
        <ele>462.920206</ele>
        <time>2021-11-21T12:24:25.408Z</time>
      </trkpt>
      <trkpt lat="47.582735" lon="8.002783">
        <ele>462.283205</ele>
        <time>2021-11-21T12:24:27.123Z</time>
      </trkpt>
      <trkpt lat="47.582722" lon="8.002476">
        <ele>461.533247</ele>
        <time>2021-11-21T12:24:32.346Z</time>
      </trkpt>
      <trkpt lat="47.582770" lon="8.002301">
        <ele>461.072660</ele>
        <time>2021-11-21T12:24:33.677Z</time>
      </trkpt>
      <trkpt lat="47.583138" lon="8.001749">
        <ele>463.176330</ele>
        <time>2021-11-21T12:24:45.964Z</time>
      </trkpt>
      <trkpt lat="47.583129" lon="8.001600">
        <ele>463.735602</ele>
        <time>2021-11-21T12:24:50.336Z</time>
      </trkpt>
      <trkpt lat="47.583038" lon="8.001422">
        <ele>464.570604</ele>
        <time>2021-11-21T12:24:51.995Z</time>
      </trkpt>
      <trkpt lat="47.582884" lon="8.001201">
        <ele>465.758538</ele>
        <time>2021-11-21T12:25:02.375Z</time>
      </trkpt>
      <trkpt lat="47.582718" lon="8.001131">
        <ele>466.715092</ele>
        <time>2021-11-21T12:25:07.449Z</time>
      </trkpt>
      <trkpt lat="47.582003" lon="8.001392">
        <ele>470.806096</ele>
        <time>2021-11-21T12:25:45.275Z</time>
      </trkpt>
      <trkpt lat="47.581843" lon="8.001622">
        <ele>472.214067</ele>
        <time>2021-11-21T12:25:57.673Z</time>
      </trkpt>
      <trkpt lat="47.581587" lon="8.002199">
        <ele>475.157122</ele>
        <time>2021-11-21T12:26:23.239Z</time>
      </trkpt>
      <trkpt lat="47.581538" lon="8.002492">
        <ele>476.443527</ele>
        <time>2021-11-21T12:26:31.402Z</time>
      </trkpt>
      <trkpt lat="47.581433" lon="8.002768">
        <ele>477.793853</ele>
        <time>2021-11-21T12:26:40.462Z</time>
      </trkpt>
      <trkpt lat="47.580693" lon="8.003731">
        <ele>482.068360</ele>
        <time>2021-11-21T12:27:07.623Z</time>
      </trkpt>
      <trkpt lat="47.580305" lon="8.004384">
        <ele>482.027083</ele>
        <time>2021-11-21T12:27:15.583Z</time>
      </trkpt>
      <trkpt lat="47.579909" lon="8.004868">
        <ele>481.990993</ele>
        <time>2021-11-21T12:27:21.276Z</time>
      </trkpt>
      <trkpt lat="47.579228" lon="8.005324">
        <ele>482.589965</ele>
        <time>2021-11-21T12:27:30.097Z</time>
      </trkpt>
      <trkpt lat="47.578736" lon="8.005500">
        <ele>483.487165</ele>
        <time>2021-11-21T12:27:38.761Z</time>
      </trkpt>
      <trkpt lat="47.578325" lon="8.005530">
        <ele>484.216625</ele>
        <time>2021-11-21T12:27:48.881Z</time>
      </trkpt>
      <trkpt lat="47.578086" lon="8.005441">
        <ele>484.653463</ele>
        <time>2021-11-21T12:27:56.047Z</time>
      </trkpt>
      <trkpt lat="47.577792" lon="8.005044">
        <ele>485.752746</ele>
        <time>2021-11-21T12:28:09.450Z</time>
      </trkpt>
      <trkpt lat="47.577375" lon="8.004938">
        <ele>487.933462</ele>
        <time>2021-11-21T12:28:25.550Z</time>
      </trkpt>
      <trkpt lat="47.576902" lon="8.005070">
        <ele>490.414275</ele>
        <time>2021-11-21T12:28:44.305Z</time>
      </trkpt>
      <trkpt lat="47.575892" lon="8.005591">
        <ele>494.860086</ele>
        <time>2021-11-21T12:29:21.710Z</time>
      </trkpt>
      <trkpt lat="47.575756" lon="8.005585">
        <ele>495.064148</ele>
        <time>2021-11-21T12:29:25.761Z</time>
      </trkpt>
      <trkpt lat="47.575531" lon="8.005431">
        <ele>495.435838</ele>
        <time>2021-11-21T12:29:32.427Z</time>
      </trkpt>
      <trkpt lat="47.575508" lon="8.005404">
        <ele>495.479841</ele>
        <time>2021-11-21T12:29:33.275Z</time>
      </trkpt>
      <trkpt lat="47.575411" lon="8.005256">
        <ele>495.688618</ele>
        <time>2021-11-21T12:29:36.234Z</time>
      </trkpt>
      <trkpt lat="47.575168" lon="8.004892">
        <ele>496.206753</ele>
        <time>2021-11-21T12:29:41.909Z</time>
      </trkpt>
      <trkpt lat="47.574764" lon="8.003762">
        <ele>496.551346</ele>
        <time>2021-11-21T12:29:52.660Z</time>
      </trkpt>
      <trkpt lat="47.574686" lon="8.003684">
        <ele>496.340475</ele>
        <time>2021-11-21T12:29:53.643Z</time>
      </trkpt>
      <trkpt lat="47.574686" lon="8.003684">
        <ele>496.340475</ele>
        <time>2021-11-21T12:29:53.646Z</time>
      </trkpt>
      <trkpt lat="47.574392" lon="8.003728">
        <ele>495.678226</ele>
        <time>2021-11-21T12:29:57.061Z</time>
      </trkpt>
      <trkpt lat="47.574305" lon="8.003732">
        <ele>495.483152</ele>
        <time>2021-11-21T12:29:57.907Z</time>
      </trkpt>
      <trkpt lat="47.574217" lon="8.003704">
        <ele>495.281438</ele>
        <time>2021-11-21T12:29:58.854Z</time>
      </trkpt>
      <trkpt lat="47.573800" lon="8.003256">
        <ele>494.127219</ele>
        <time>2021-11-21T12:30:04.573Z</time>
      </trkpt>
      <trkpt lat="47.573718" lon="8.003157">
        <ele>493.890198</ele>
        <time>2021-11-21T12:30:05.578Z</time>
      </trkpt>
      <trkpt lat="47.573679" lon="8.003065">
        <ele>493.725915</ele>
        <time>2021-11-21T12:30:06.296Z</time>
      </trkpt>
      <trkpt lat="47.573643" lon="8.002920">
        <ele>493.492304</ele>
        <time>2021-11-21T12:30:07.507Z</time>
      </trkpt>
      <trkpt lat="47.573502" lon="8.002634">
        <ele>492.819500</ele>
        <time>2021-11-21T12:30:09.844Z</time>
      </trkpt>
      <trkpt lat="47.573400" lon="8.002344">
        <ele>491.812315</ele>
        <time>2021-11-21T12:30:12.095Z</time>
      </trkpt>
      <trkpt lat="47.573126" lon="8.002031">
        <ele>490.233205</ele>
        <time>2021-11-21T12:30:15.545Z</time>
      </trkpt>
      <trkpt lat="47.573026" lon="8.001932">
        <ele>489.684265</ele>
        <time>2021-11-21T12:30:16.696Z</time>
      </trkpt>
      <trkpt lat="47.572938" lon="8.001919">
        <ele>489.280569</ele>
        <time>2021-11-21T12:30:17.577Z</time>
      </trkpt>
      <trkpt lat="47.572938" lon="8.001983">
        <ele>489.083469</ele>
        <time>2021-11-21T12:30:17.989Z</time>
      </trkpt>
      <trkpt lat="47.572943" lon="8.002035">
        <ele>488.921708</ele>
        <time>2021-11-21T12:30:18.329Z</time>
      </trkpt>
      <trkpt lat="47.572945" lon="8.002160">
        <ele>488.536639</ele>
        <time>2021-11-21T12:30:19.208Z</time>
      </trkpt>
      <trkpt lat="47.572960" lon="8.002265">
        <ele>488.206103</ele>
        <time>2021-11-21T12:30:19.893Z</time>
      </trkpt>
      <trkpt lat="47.572970" lon="8.002337">
        <ele>487.979716</ele>
        <time>2021-11-21T12:30:20.364Z</time>
      </trkpt>
      <trkpt lat="47.573018" lon="8.002565">
        <ele>487.244157</ele>
        <time>2021-11-21T12:30:21.954Z</time>
      </trkpt>
      <trkpt lat="47.573074" lon="8.002958">
        <ele>486.007144</ele>
        <time>2021-11-21T12:30:24.492Z</time>
      </trkpt>
      <trkpt lat="47.573083" lon="8.003074">
        <ele>485.647547</ele>
        <time>2021-11-21T12:30:25.200Z</time>
      </trkpt>
      <trkpt lat="47.572993" lon="8.003550">
        <ele>483.515317</ele>
        <time>2021-11-21T12:30:28.200Z</time>
      </trkpt>
      <trkpt lat="47.572959" lon="8.003732">
        <ele>482.462963</ele>
        <time>2021-11-21T12:30:29.350Z</time>
      </trkpt>
      <trkpt lat="47.572894" lon="8.003925">
        <ele>481.260913</ele>
        <time>2021-11-21T12:30:30.623Z</time>
      </trkpt>
      <trkpt lat="47.572812" lon="8.004145">
        <ele>479.860310</ele>
        <time>2021-11-21T12:30:32.131Z</time>
      </trkpt>
      <trkpt lat="47.572581" lon="8.004598">
        <ele>476.696004</ele>
        <time>2021-11-21T12:30:35.487Z</time>
      </trkpt>
      <trkpt lat="47.572545" lon="8.004649">
        <ele>476.284680</ele>
        <time>2021-11-21T12:30:35.912Z</time>
      </trkpt>
      <trkpt lat="47.572250" lon="8.005072">
        <ele>472.894469</ele>
        <time>2021-11-21T12:30:39.478Z</time>
      </trkpt>
      <trkpt lat="47.571947" lon="8.005585">
        <ele>469.202060</ele>
        <time>2021-11-21T12:30:43.477Z</time>
      </trkpt>
      <trkpt lat="47.571832" lon="8.005893">
        <ele>467.466909</ele>
        <time>2021-11-21T12:30:45.543Z</time>
      </trkpt>
      <trkpt lat="47.571577" lon="8.007177">
        <ele>460.869400</ele>
        <time>2021-11-21T12:30:53.522Z</time>
      </trkpt>
      <trkpt lat="47.571538" lon="8.008187">
        <ele>456.506139</ele>
        <time>2021-11-21T12:30:59.829Z</time>
      </trkpt>
      <trkpt lat="47.571749" lon="8.009974">
        <ele>453.146845</ele>
        <time>2021-11-21T12:31:12.307Z</time>
      </trkpt>
      <trkpt lat="47.571642" lon="8.010477">
        <ele>452.170236</ele>
        <time>2021-11-21T12:31:17.070Z</time>
      </trkpt>
      <trkpt lat="47.571485" lon="8.010679">
        <ele>451.893849</ele>
        <time>2021-11-21T12:31:20.294Z</time>
      </trkpt>
      <trkpt lat="47.571221" lon="8.010706">
        <ele>451.786997</ele>
        <time>2021-11-21T12:31:24.200Z</time>
      </trkpt>
      <trkpt lat="47.571091" lon="8.010633">
        <ele>451.730865</ele>
        <time>2021-11-21T12:31:26.884Z</time>
      </trkpt>
      <trkpt lat="47.570901" lon="8.010376">
        <ele>451.627002</ele>
        <time>2021-11-21T12:31:30.506Z</time>
      </trkpt>
      <trkpt lat="47.570679" lon="8.009960">
        <ele>451.482508</ele>
        <time>2021-11-21T12:31:36.041Z</time>
      </trkpt>
      <trkpt lat="47.570537" lon="8.009765">
        <ele>451.404344</ele>
        <time>2021-11-21T12:31:38.918Z</time>
      </trkpt>
      <trkpt lat="47.570110" lon="8.009604">
        <ele>451.226438</ele>
        <time>2021-11-21T12:31:44.599Z</time>
      </trkpt>
      <trkpt lat="47.569985" lon="8.009558">
        <ele>450.838108</ele>
        <time>2021-11-21T12:31:46.497Z</time>
      </trkpt>
      <trkpt lat="47.569881" lon="8.009480">
        <ele>450.430547</ele>
        <time>2021-11-21T12:31:47.701Z</time>
      </trkpt>
      <trkpt lat="47.569733" lon="8.009325">
        <ele>449.796882</ele>
        <time>2021-11-21T12:31:49.707Z</time>
      </trkpt>
      <trkpt lat="47.569356" lon="8.008548">
        <ele>447.539009</ele>
        <time>2021-11-21T12:31:56.284Z</time>
      </trkpt>
      <trkpt lat="47.569232" lon="8.008468">
        <ele>447.066124</ele>
        <time>2021-11-21T12:31:57.652Z</time>
      </trkpt>
      <trkpt lat="47.569090" lon="8.008418">
        <ele>446.555776</ele>
        <time>2021-11-21T12:31:58.998Z</time>
      </trkpt>
      <trkpt lat="47.569032" lon="8.008394">
        <ele>446.345214</ele>
        <time>2021-11-21T12:31:59.624Z</time>
      </trkpt>
      <trkpt lat="47.568942" lon="8.008356">
        <ele>446.017992</ele>
        <time>2021-11-21T12:32:00.490Z</time>
      </trkpt>
      <trkpt lat="47.567593" lon="8.008428">
        <ele>438.117576</ele>
        <time>2021-11-21T12:32:12.903Z</time>
      </trkpt>
      <trkpt lat="47.567295" lon="8.008508">
        <ele>436.131116</ele>
        <time>2021-11-21T12:32:15.626Z</time>
      </trkpt>
      <trkpt lat="47.566636" lon="8.009033">
        <ele>430.527856</ele>
        <time>2021-11-21T12:32:22.287Z</time>
      </trkpt>
      <trkpt lat="47.566213" lon="8.009186">
        <ele>426.630139</ele>
        <time>2021-11-21T12:32:26.075Z</time>
      </trkpt>
      <trkpt lat="47.565625" lon="8.009299">
        <ele>421.322456</ele>
        <time>2021-11-21T12:32:31.206Z</time>
      </trkpt>
      <trkpt lat="47.565384" lon="8.009424">
        <ele>419.036788</ele>
        <time>2021-11-21T12:32:33.413Z</time>
      </trkpt>
      <trkpt lat="47.564876" lon="8.010157">
        <ele>413.573603</ele>
        <time>2021-11-21T12:32:39.546Z</time>
      </trkpt>
      <trkpt lat="47.564366" lon="8.010437">
        <ele>409.696174</ele>
        <time>2021-11-21T12:32:44.339Z</time>
      </trkpt>
      <trkpt lat="47.564285" lon="8.010543">
        <ele>408.925785</ele>
        <time>2021-11-21T12:32:45.309Z</time>
      </trkpt>
      <trkpt lat="47.564251" lon="8.010805">
        <ele>407.642310</ele>
        <time>2021-11-21T12:32:46.945Z</time>
      </trkpt>
      <trkpt lat="47.564410" lon="8.011026">
        <ele>406.088208</ele>
        <time>2021-11-21T12:32:48.980Z</time>
      </trkpt>
      <trkpt lat="47.564831" lon="8.010977">
        <ele>403.912187</ele>
        <time>2021-11-21T12:32:53.112Z</time>
      </trkpt>
      <trkpt lat="47.565079" lon="8.011063">
        <ele>403.437909</ele>
        <time>2021-11-21T12:32:55.778Z</time>
      </trkpt>
      <trkpt lat="47.565220" lon="8.011190">
        <ele>403.130663</ele>
        <time>2021-11-21T12:32:57.568Z</time>
      </trkpt>
      <trkpt lat="47.565472" lon="8.011708">
        <ele>402.328292</ele>
        <time>2021-11-21T12:33:02.561Z</time>
      </trkpt>
      <trkpt lat="47.565501" lon="8.012111">
        <ele>401.819068</ele>
        <time>2021-11-21T12:33:05.991Z</time>
      </trkpt>
      <trkpt lat="47.565338" lon="8.012662">
        <ele>401.063146</ele>
        <time>2021-11-21T12:33:11.541Z</time>
      </trkpt>
      <trkpt lat="47.564751" lon="8.013465">
        <ele>398.976725</ele>
        <time>2021-11-21T12:33:21.383Z</time>
      </trkpt>
      <trkpt lat="47.564241" lon="8.013975">
        <ele>397.296031</ele>
        <time>2021-11-21T12:33:27.675Z</time>
      </trkpt>
      <trkpt lat="47.563908" lon="8.014085">
        <ele>396.364033</ele>
        <time>2021-11-21T12:33:30.984Z</time>
      </trkpt>
      <trkpt lat="47.563758" lon="8.014030">
        <ele>395.937903</ele>
        <time>2021-11-21T12:33:32.496Z</time>
      </trkpt>
      <trkpt lat="47.563694" lon="8.013972">
        <ele>395.418732</ele>
        <time>2021-11-21T12:33:33.153Z</time>
      </trkpt>
      <trkpt lat="47.563524" lon="8.013612">
        <ele>393.366799</ele>
        <time>2021-11-21T12:33:35.995Z</time>
      </trkpt>
      <trkpt lat="47.563289" lon="8.012797">
        <ele>389.227930</ele>
        <time>2021-11-21T12:33:41.346Z</time>
      </trkpt>
      <trkpt lat="47.563207" lon="8.012665">
        <ele>388.390059</ele>
        <time>2021-11-21T12:33:42.410Z</time>
      </trkpt>
      <trkpt lat="47.563093" lon="8.012604">
        <ele>387.551254</ele>
        <time>2021-11-21T12:33:43.445Z</time>
      </trkpt>
      <trkpt lat="47.562986" lon="8.012625">
        <ele>386.804279</ele>
        <time>2021-11-21T12:33:44.416Z</time>
      </trkpt>
      <trkpt lat="47.562467" lon="8.013027">
        <ele>382.735705</ele>
        <time>2021-11-21T12:33:49.574Z</time>
      </trkpt>
      <trkpt lat="47.562228" lon="8.013107">
        <ele>381.004183</ele>
        <time>2021-11-21T12:33:51.818Z</time>
      </trkpt>
      <trkpt lat="47.562148" lon="8.013140">
        <ele>380.417343</ele>
        <time>2021-11-21T12:33:52.540Z</time>
      </trkpt>
      <trkpt lat="47.562066" lon="8.013151">
        <ele>379.835493</ele>
        <time>2021-11-21T12:33:53.310Z</time>
      </trkpt>
      <trkpt lat="47.561899" lon="8.013170">
        <ele>378.651859</ele>
        <time>2021-11-21T12:33:54.891Z</time>
      </trkpt>
      <trkpt lat="47.561619" lon="8.013259">
        <ele>376.628140</ele>
        <time>2021-11-21T12:33:57.433Z</time>
      </trkpt>
      <trkpt lat="47.561442" lon="8.013448">
        <ele>375.086425</ele>
        <time>2021-11-21T12:33:59.373Z</time>
      </trkpt>
      <trkpt lat="47.561324" lon="8.013664">
        <ele>373.761152</ele>
        <time>2021-11-21T12:34:01.135Z</time>
      </trkpt>
      <trkpt lat="47.561174" lon="8.014255">
        <ele>370.747083</ele>
        <time>2021-11-21T12:34:04.944Z</time>
      </trkpt>
      <trkpt lat="47.560995" lon="8.014547">
        <ele>368.708747</ele>
        <time>2021-11-21T12:34:07.282Z</time>
      </trkpt>
      <trkpt lat="47.560957" lon="8.014567">
        <ele>368.399978</ele>
        <time>2021-11-21T12:34:07.738Z</time>
      </trkpt>
      <trkpt lat="47.560834" lon="8.014633">
        <ele>367.398338</ele>
        <time>2021-11-21T12:34:08.884Z</time>
      </trkpt>
      <trkpt lat="47.560683" lon="8.014628">
        <ele>366.241854</ele>
        <time>2021-11-21T12:34:10.298Z</time>
      </trkpt>
      <trkpt lat="47.560319" lon="8.014395">
        <ele>363.205833</ele>
        <time>2021-11-21T12:34:13.882Z</time>
      </trkpt>
      <trkpt lat="47.559980" lon="8.014260">
        <ele>360.518044</ele>
        <time>2021-11-21T12:34:16.994Z</time>
      </trkpt>
      <trkpt lat="47.559783" lon="8.014275">
        <ele>359.007641</ele>
        <time>2021-11-21T12:34:18.711Z</time>
      </trkpt>
      <trkpt lat="47.559301" lon="8.014552">
        <ele>354.802232</ele>
        <time>2021-11-21T12:34:23.218Z</time>
      </trkpt>
      <trkpt lat="47.559052" lon="8.014792">
        <ele>352.241963</ele>
        <time>2021-11-21T12:34:25.774Z</time>
      </trkpt>
      <trkpt lat="47.558647" lon="8.015459">
        <ele>347.022983</ele>
        <time>2021-11-21T12:34:31.072Z</time>
      </trkpt>
      <trkpt lat="47.558477" lon="8.015998">
        <ele>343.562300</ele>
        <time>2021-11-21T12:34:34.568Z</time>
      </trkpt>
      <trkpt lat="47.558466" lon="8.016482">
        <ele>340.897851</ele>
        <time>2021-11-21T12:34:37.525Z</time>
      </trkpt>
      <trkpt lat="47.558468" lon="8.016544">
        <ele>340.608694</ele>
        <time>2021-11-21T12:34:37.873Z</time>
      </trkpt>
      <trkpt lat="47.558472" lon="8.016633">
        <ele>340.193170</ele>
        <time>2021-11-21T12:34:38.424Z</time>
      </trkpt>
      <trkpt lat="47.558456" lon="8.017175">
        <ele>337.665849</ele>
        <time>2021-11-21T12:34:41.722Z</time>
      </trkpt>
      <trkpt lat="47.558419" lon="8.017286">
        <ele>337.089114</ele>
        <time>2021-11-21T12:34:42.463Z</time>
      </trkpt>
      <trkpt lat="47.558404" lon="8.017331">
        <ele>336.855302</ele>
        <time>2021-11-21T12:34:42.770Z</time>
      </trkpt>
      <trkpt lat="47.558316" lon="8.017494">
        <ele>335.882873</ele>
        <time>2021-11-21T12:34:44.080Z</time>
      </trkpt>
      <trkpt lat="47.558302" lon="8.017520">
        <ele>335.727920</ele>
        <time>2021-11-21T12:34:44.268Z</time>
      </trkpt>
      <trkpt lat="47.558238" lon="8.017607">
        <ele>335.128379</ele>
        <time>2021-11-21T12:34:45.057Z</time>
      </trkpt>
      <trkpt lat="47.558167" lon="8.017713">
        <ele>334.432633</ele>
        <time>2021-11-21T12:34:45.959Z</time>
      </trkpt>
      <trkpt lat="47.557944" lon="8.018030">
        <ele>332.299429</ele>
        <time>2021-11-21T12:34:48.749Z</time>
      </trkpt>
      <trkpt lat="47.557746" lon="8.018355">
        <ele>330.259702</ele>
        <time>2021-11-21T12:34:51.452Z</time>
      </trkpt>
      <trkpt lat="47.557700" lon="8.018487">
        <ele>329.567622</ele>
        <time>2021-11-21T12:34:52.348Z</time>
      </trkpt>
      <trkpt lat="47.557566" lon="8.018865">
        <ele>327.596079</ele>
        <time>2021-11-21T12:34:55.068Z</time>
      </trkpt>
      <trkpt lat="47.557532" lon="8.018992">
        <ele>326.966962</ele>
        <time>2021-11-21T12:34:55.870Z</time>
      </trkpt>
      <trkpt lat="47.557414" lon="8.019414">
        <ele>324.863625</ele>
        <time>2021-11-21T12:34:58.680Z</time>
      </trkpt>
      <trkpt lat="47.557390" lon="8.019571">
        <ele>324.122388</ele>
        <time>2021-11-21T12:34:59.627Z</time>
      </trkpt>
      <trkpt lat="47.557398" lon="8.019696">
        <ele>323.544230</ele>
        <time>2021-11-21T12:35:00.377Z</time>
      </trkpt>
      <trkpt lat="47.557491" lon="8.020177">
        <ele>321.240311</ele>
        <time>2021-11-21T12:35:03.391Z</time>
      </trkpt>
      <trkpt lat="47.557453" lon="8.020436">
        <ele>320.019861</ele>
        <time>2021-11-21T12:35:05.028Z</time>
      </trkpt>
      <trkpt lat="47.557406" lon="8.020509">
        <ele>319.555289</ele>
        <time>2021-11-21T12:35:05.611Z</time>
      </trkpt>
      <trkpt lat="47.557326" lon="8.020583">
        <ele>318.911816</ele>
        <time>2021-11-21T12:35:06.454Z</time>
      </trkpt>
      <trkpt lat="47.557140" lon="8.020649">
        <ele>317.606833</ele>
        <time>2021-11-21T12:35:08.227Z</time>
      </trkpt>
      <trkpt lat="47.557049" lon="8.020675">
        <ele>316.974491</ele>
        <time>2021-11-21T12:35:09.041Z</time>
      </trkpt>
      <trkpt lat="47.556951" lon="8.020734">
        <ele>316.310870</ele>
        <time>2021-11-21T12:35:09.998Z</time>
      </trkpt>
      <trkpt lat="47.556880" lon="8.020827">
        <ele>315.730289</ele>
        <time>2021-11-21T12:35:10.899Z</time>
      </trkpt>
      <trkpt lat="47.556775" lon="8.021020">
        <ele>314.705296</ele>
        <time>2021-11-21T12:35:12.427Z</time>
      </trkpt>
      <trkpt lat="47.556718" lon="8.021112">
        <ele>314.188917</ele>
        <time>2021-11-21T12:35:13.184Z</time>
      </trkpt>
      <trkpt lat="47.556709" lon="8.021127">
        <ele>314.105930</ele>
        <time>2021-11-21T12:35:13.312Z</time>
      </trkpt>
      <trkpt lat="47.556632" lon="8.021199">
        <ele>313.548101</ele>
        <time>2021-11-21T12:35:14.172Z</time>
      </trkpt>
      <trkpt lat="47.556552" lon="8.021260">
        <ele>312.996883</ele>
        <time>2021-11-21T12:35:15.008Z</time>
      </trkpt>
      <trkpt lat="47.556296" lon="8.021331">
        <ele>311.401223</ele>
        <time>2021-11-21T12:35:17.408Z</time>
      </trkpt>
      <trkpt lat="47.555963" lon="8.021294">
        <ele>309.355319</ele>
        <time>2021-11-21T12:35:20.417Z</time>
      </trkpt>
      <trkpt lat="47.555521" lon="8.021257">
        <ele>306.643018</ele>
        <time>2021-11-21T12:35:24.452Z</time>
      </trkpt>
      <trkpt lat="47.555346" lon="8.021253">
        <ele>305.622023</ele>
        <time>2021-11-21T12:35:26.085Z</time>
      </trkpt>
      <trkpt lat="47.554958" lon="8.021349">
        <ele>303.745291</ele>
        <time>2021-11-21T12:35:29.763Z</time>
      </trkpt>
      <trkpt lat="47.554743" lon="8.021466">
        <ele>302.652562</ele>
        <time>2021-11-21T12:35:31.967Z</time>
      </trkpt>
      <trkpt lat="47.554589" lon="8.021606">
        <ele>301.790586</ele>
        <time>2021-11-21T12:35:33.646Z</time>
      </trkpt>
      <trkpt lat="47.554468" lon="8.021743">
        <ele>301.064066</ele>
        <time>2021-11-21T12:35:35.107Z</time>
      </trkpt>
      <trkpt lat="47.554332" lon="8.021803">
        <ele>300.387076</ele>
        <time>2021-11-21T12:35:36.442Z</time>
      </trkpt>
      <trkpt lat="47.554086" lon="8.021778">
        <ele>299.210682</ele>
        <time>2021-11-21T12:35:38.766Z</time>
      </trkpt>
      <trkpt lat="47.553961" lon="8.021754">
        <ele>298.609336</ele>
        <time>2021-11-21T12:35:39.956Z</time>
      </trkpt>
      <trkpt lat="47.553878" lon="8.021738">
        <ele>298.210015</ele>
        <time>2021-11-21T12:35:40.752Z</time>
      </trkpt>
      <trkpt lat="47.553687" lon="8.021682">
        <ele>297.281108</ele>
        <time>2021-11-21T12:35:42.651Z</time>
      </trkpt>
      <trkpt lat="47.553619" lon="8.021667">
        <ele>297.120473</ele>
        <time>2021-11-21T12:35:43.324Z</time>
      </trkpt>
      <trkpt lat="47.553615" lon="8.021606">
        <ele>297.046229</ele>
        <time>2021-11-21T12:35:43.736Z</time>
      </trkpt>
      <trkpt lat="47.553614" lon="8.021587">
        <ele>297.023143</ele>
        <time>2021-11-21T12:35:43.858Z</time>
      </trkpt>
      <trkpt lat="47.553607" lon="8.021497">
        <ele>296.913394</ele>
        <time>2021-11-21T12:35:44.485Z</time>
      </trkpt>
      <trkpt lat="47.553565" lon="8.021501">
        <ele>296.837851</ele>
        <time>2021-11-21T12:35:44.912Z</time>
      </trkpt>
      <trkpt lat="47.553305" lon="8.021505">
        <ele>296.371138</ele>
        <time>2021-11-21T12:35:47.652Z</time>
      </trkpt>
      <trkpt lat="47.553291" lon="8.021502">
        <ele>296.345748</ele>
        <time>2021-11-21T12:35:47.795Z</time>
      </trkpt>
      <trkpt lat="47.553266" lon="8.021493">
        <ele>296.299568</ele>
        <time>2021-11-21T12:35:48.058Z</time>
      </trkpt>
      <trkpt lat="47.553232" lon="8.021484">
        <ele>296.237574</ele>
        <time>2021-11-21T12:35:48.446Z</time>
      </trkpt>
      <trkpt lat="47.553183" lon="8.021466">
        <ele>296.146959</ele>
        <time>2021-11-21T12:35:48.962Z</time>
      </trkpt>
      <trkpt lat="47.552959" lon="8.021335">
        <ele>295.714704</ele>
        <time>2021-11-21T12:35:51.843Z</time>
      </trkpt>
      <trkpt lat="47.552776" lon="8.021316">
        <ele>295.385423</ele>
        <time>2021-11-21T12:35:53.899Z</time>
      </trkpt>
      <trkpt lat="47.552813" lon="8.020595">
        <ele>294.509460</ele>
        <time>2021-11-21T12:35:59.965Z</time>
      </trkpt>
      <trkpt lat="47.552872" lon="8.020109">
        <ele>293.982556</ele>
        <time>2021-11-21T12:36:04.242Z</time>
      </trkpt>
      <trkpt lat="47.552879" lon="8.020034">
        <ele>293.970892</ele>
        <time>2021-11-21T12:36:05.243Z</time>
      </trkpt>
      <trkpt lat="47.552961" lon="8.019989">
        <ele>293.950932</ele>
        <time>2021-11-21T12:36:06.347Z</time>
      </trkpt>
      <trkpt lat="47.553031" lon="8.019915">
        <ele>293.931304</ele>
        <time>2021-11-21T12:36:07.471Z</time>
      </trkpt>
      <trkpt lat="47.553056" lon="8.019871">
        <ele>293.922443</ele>
        <time>2021-11-21T12:36:07.990Z</time>
      </trkpt>
      <trkpt lat="47.553064" lon="8.019820">
        <ele>293.914377</ele>
        <time>2021-11-21T12:36:08.549Z</time>
      </trkpt>
      <trkpt lat="47.553055" lon="8.019647">
        <ele>293.887646</ele>
        <time>2021-11-21T12:36:10.558Z</time>
      </trkpt>
      <trkpt lat="47.553030" lon="8.019182">
        <ele>293.815784</ele>
        <time>2021-11-21T12:36:15.199Z</time>
      </trkpt>
      <trkpt lat="47.553028" lon="8.018988">
        <ele>293.785894</ele>
        <time>2021-11-21T12:36:17.491Z</time>
      </trkpt>
      <trkpt lat="47.553012" lon="8.018748">
        <ele>293.748741</ele>
        <time>2021-11-21T12:36:19.995Z</time>
      </trkpt>
      <trkpt lat="47.553159" lon="8.017677">
        <ele>293.576844</ele>
        <time>2021-11-21T12:36:30.317Z</time>
      </trkpt>
      <trkpt lat="47.553162" lon="8.017661">
        <ele>293.569804</ele>
        <time>2021-11-21T12:36:30.447Z</time>
      </trkpt>
      <trkpt lat="47.553229" lon="8.017328">
        <ele>293.422499</ele>
        <time>2021-11-21T12:36:33.336Z</time>
      </trkpt>
      <trkpt lat="47.553318" lon="8.017064">
        <ele>293.297399</ele>
        <time>2021-11-21T12:36:35.827Z</time>
      </trkpt>
      <trkpt lat="47.553715" lon="8.016236">
        <ele>292.866834</ele>
        <time>2021-11-21T12:36:44.714Z</time>
      </trkpt>
      <trkpt lat="47.553882" lon="8.015749">
        <ele>292.635267</ele>
        <time>2021-11-21T12:36:49.453Z</time>
      </trkpt>
      <trkpt lat="47.554329" lon="8.013807">
        <ele>292.042112</ele>
        <time>2021-11-21T12:37:07.510Z</time>
      </trkpt>
      <trkpt lat="47.554393" lon="8.013577">
        <ele>291.979109</ele>
        <time>2021-11-21T12:37:09.699Z</time>
      </trkpt>
      <trkpt lat="47.554546" lon="8.013079">
        <ele>291.840539</ele>
        <time>2021-11-21T12:37:14.900Z</time>
      </trkpt>
      <trkpt lat="47.554665" lon="8.012540">
        <ele>291.917260</ele>
        <time>2021-11-21T12:37:20.757Z</time>
      </trkpt>
      <trkpt lat="47.554682" lon="8.012449">
        <ele>291.958573</ele>
        <time>2021-11-21T12:37:21.848Z</time>
      </trkpt>
      <trkpt lat="47.554818" lon="8.011865">
        <ele>292.228879</ele>
        <time>2021-11-21T12:37:28.589Z</time>
      </trkpt>
      <trkpt lat="47.555069" lon="8.010772">
        <ele>292.734032</ele>
        <time>2021-11-21T12:37:42.866Z</time>
      </trkpt>
      <trkpt lat="47.555124" lon="8.010557">
        <ele>292.834633</ele>
        <time>2021-11-21T12:37:45.933Z</time>
      </trkpt>
      <trkpt lat="47.555373" lon="8.009365">
        <ele>293.525870</ele>
        <time>2021-11-21T12:38:01.719Z</time>
      </trkpt>
      <trkpt lat="47.555492" lon="8.008854">
        <ele>293.841052</ele>
        <time>2021-11-21T12:38:08.542Z</time>
      </trkpt>
      <trkpt lat="47.555689" lon="8.008075">
        <ele>294.326095</ele>
        <time>2021-11-21T12:38:18.751Z</time>
      </trkpt>
      <trkpt lat="47.556414" lon="8.004608">
        <ele>295.957591</ele>
        <time>2021-11-21T12:39:01.320Z</time>
      </trkpt>
      <trkpt lat="47.556859" lon="8.003033">
        <ele>296.596400</ele>
        <time>2021-11-21T12:39:21.598Z</time>
      </trkpt>
      <trkpt lat="47.557421" lon="8.000151">
        <ele>296.641062</ele>
        <time>2021-11-21T12:39:51.911Z</time>
      </trkpt>
      <trkpt lat="47.557552" lon="7.999488">
        <ele>296.358333</ele>
        <time>2021-11-21T12:39:57.885Z</time>
      </trkpt>
      <trkpt lat="47.557569" lon="7.999330">
        <ele>296.292854</ele>
        <time>2021-11-21T12:39:59.211Z</time>
      </trkpt>
      <trkpt lat="47.557590" lon="7.999121">
        <ele>296.206377</ele>
        <time>2021-11-21T12:40:04.233Z</time>
      </trkpt>
      <trkpt lat="47.557595" lon="7.999065">
        <ele>296.183258</ele>
        <time>2021-11-21T12:40:04.728Z</time>
      </trkpt>
      <trkpt lat="47.557611" lon="7.998828">
        <ele>296.085781</ele>
        <time>2021-11-21T12:40:06.698Z</time>
      </trkpt>
      <trkpt lat="47.557666" lon="7.996934">
        <ele>295.411756</ele>
        <time>2021-11-21T12:40:23.021Z</time>
      </trkpt>
      <trkpt lat="47.557377" lon="7.991413">
        <ele>294.310392</ele>
        <time>2021-11-21T12:41:15.365Z</time>
      </trkpt>
      <trkpt lat="47.557298" lon="7.990679">
        <ele>294.128843</ele>
        <time>2021-11-21T12:41:22.099Z</time>
      </trkpt>
      <trkpt lat="47.557185" lon="7.988787">
        <ele>293.706728</ele>
        <time>2021-11-21T12:41:39.305Z</time>
      </trkpt>
      <trkpt lat="47.556668" lon="7.978159">
        <ele>291.429861</ele>
        <time>2021-11-21T12:43:19.178Z</time>
      </trkpt>
      <trkpt lat="47.556769" lon="7.976421">
        <ele>290.588592</ele>
        <time>2021-11-21T12:43:33.676Z</time>
      </trkpt>
      <trkpt lat="47.557045" lon="7.974526">
        <ele>289.696718</ele>
        <time>2021-11-21T12:43:49.880Z</time>
      </trkpt>
      <trkpt lat="47.557108" lon="7.974186">
        <ele>289.534969</ele>
        <time>2021-11-21T12:43:53.014Z</time>
      </trkpt>
      <trkpt lat="47.557235" lon="7.973507">
        <ele>289.358073</ele>
        <time>2021-11-21T12:43:59.960Z</time>
      </trkpt>
      <trkpt lat="47.557323" lon="7.972992">
        <ele>289.462447</ele>
        <time>2021-11-21T12:44:05.542Z</time>
      </trkpt>
      <trkpt lat="47.557419" lon="7.972636">
        <ele>289.537766</ele>
        <time>2021-11-21T12:44:09.611Z</time>
      </trkpt>
      <trkpt lat="47.557538" lon="7.972196">
        <ele>289.630895</ele>
        <time>2021-11-21T12:44:14.979Z</time>
      </trkpt>
      <trkpt lat="47.557756" lon="7.971140">
        <ele>289.839099</ele>
        <time>2021-11-21T12:44:27.860Z</time>
      </trkpt>
      <trkpt lat="47.558045" lon="7.969704">
        <ele>289.876514</ele>
        <time>2021-11-21T12:44:43.160Z</time>
      </trkpt>
      <trkpt lat="47.558225" lon="7.968807">
        <ele>289.899880</ele>
        <time>2021-11-21T12:44:52.317Z</time>
      </trkpt>
      <trkpt lat="47.558296" lon="7.968403">
        <ele>289.913254</ele>
        <time>2021-11-21T12:44:56.258Z</time>
      </trkpt>
      <trkpt lat="47.558313" lon="7.968259">
        <ele>289.918719</ele>
        <time>2021-11-21T12:44:57.491Z</time>
      </trkpt>
      <trkpt lat="47.558327" lon="7.968108">
        <ele>289.924417</ele>
        <time>2021-11-21T12:44:59.076Z</time>
      </trkpt>
      <trkpt lat="47.558430" lon="7.967788">
        <ele>289.937672</ele>
        <time>2021-11-21T12:45:02.300Z</time>
      </trkpt>
      <trkpt lat="47.558448" lon="7.967701">
        <ele>289.941074</ele>
        <time>2021-11-21T12:45:03.234Z</time>
      </trkpt>
      <trkpt lat="47.558606" lon="7.966985">
        <ele>289.969237</ele>
        <time>2021-11-21T12:45:11.068Z</time>
      </trkpt>
      <trkpt lat="47.558732" lon="7.966356">
        <ele>289.993767</ele>
        <time>2021-11-21T12:45:17.979Z</time>
      </trkpt>
      <trkpt lat="47.558949" lon="7.965326">
        <ele>290.011047</ele>
        <time>2021-11-21T12:45:29.874Z</time>
      </trkpt>
      <trkpt lat="47.559029" lon="7.964894">
        <ele>290.014960</ele>
        <time>2021-11-21T12:45:34.628Z</time>
      </trkpt>
      <trkpt lat="47.559232" lon="7.963800">
        <ele>290.024870</ele>
        <time>2021-11-21T12:45:45.656Z</time>
      </trkpt>
      <trkpt lat="47.559368" lon="7.962709">
        <ele>289.612025</ele>
        <time>2021-11-21T12:45:55.576Z</time>
      </trkpt>
      <trkpt lat="47.559408" lon="7.961845">
        <ele>289.179540</ele>
        <time>2021-11-21T12:46:02.629Z</time>
      </trkpt>
      <trkpt lat="47.559406" lon="7.960730">
        <ele>288.689816</ele>
        <time>2021-11-21T12:46:12.002Z</time>
      </trkpt>
      <trkpt lat="47.559346" lon="7.959868">
        <ele>288.651921</ele>
        <time>2021-11-21T12:46:19.994Z</time>
      </trkpt>
      <trkpt lat="47.559324" lon="7.959601">
        <ele>288.640159</ele>
        <time>2021-11-21T12:46:22.378Z</time>
      </trkpt>
      <trkpt lat="47.559224" lon="7.958738">
        <ele>288.601869</ele>
        <time>2021-11-21T12:46:31.575Z</time>
      </trkpt>
      <trkpt lat="47.558756" lon="7.956469">
        <ele>289.297804</ele>
        <time>2021-11-21T12:46:59.880Z</time>
      </trkpt>
      <trkpt lat="47.558659" lon="7.956055">
        <ele>289.466482</ele>
        <time>2021-11-21T12:47:05.059Z</time>
      </trkpt>
      <trkpt lat="47.558360" lon="7.955074">
        <ele>289.596565</ele>
        <time>2021-11-21T12:47:16.610Z</time>
      </trkpt>
      <trkpt lat="47.558201" lon="7.954539">
        <ele>289.589203</ele>
        <time>2021-11-21T12:47:22.409Z</time>
      </trkpt>
      <trkpt lat="47.558161" lon="7.954466">
        <ele>289.588019</ele>
        <time>2021-11-21T12:47:23.251Z</time>
      </trkpt>
      <trkpt lat="47.558107" lon="7.954410">
        <ele>289.586789</ele>
        <time>2021-11-21T12:47:24.187Z</time>
      </trkpt>
      <trkpt lat="47.558124" lon="7.954331">
        <ele>289.585745</ele>
        <time>2021-11-21T12:47:25.056Z</time>
      </trkpt>
      <trkpt lat="47.558138" lon="7.954249">
        <ele>289.584680</ele>
        <time>2021-11-21T12:47:25.881Z</time>
      </trkpt>
      <trkpt lat="47.558149" lon="7.954179">
        <ele>289.583775</ele>
        <time>2021-11-21T12:47:26.639Z</time>
      </trkpt>
      <trkpt lat="47.558045" lon="7.954108">
        <ele>289.581638</ele>
        <time>2021-11-21T12:47:28.047Z</time>
      </trkpt>
      <trkpt lat="47.557829" lon="7.953829">
        <ele>289.576291</ele>
        <time>2021-11-21T12:47:32.330Z</time>
      </trkpt>
      <trkpt lat="47.557371" lon="7.952961">
        <ele>289.561367</ele>
        <time>2021-11-21T12:47:42.437Z</time>
      </trkpt>
      <trkpt lat="47.557113" lon="7.952476">
        <ele>289.552740</ele>
        <time>2021-11-21T12:47:48.002Z</time>
      </trkpt>
      <trkpt lat="47.556921" lon="7.952131">
        <ele>289.546493</ele>
        <time>2021-11-21T12:47:52.390Z</time>
      </trkpt>
      <trkpt lat="47.556818" lon="7.951969">
        <ele>289.543383</ele>
        <time>2021-11-21T12:47:54.709Z</time>
      </trkpt>
      <trkpt lat="47.556779" lon="7.951918">
        <ele>289.542306</ele>
        <time>2021-11-21T12:47:55.551Z</time>
      </trkpt>
      <trkpt lat="47.556537" lon="7.951618">
        <ele>289.535775</ele>
        <time>2021-11-21T12:48:00.714Z</time>
      </trkpt>
      <trkpt lat="47.556256" lon="7.951270">
        <ele>289.790285</ele>
        <time>2021-11-21T12:48:07.309Z</time>
      </trkpt>
      <trkpt lat="47.556242" lon="7.951253">
        <ele>289.804838</ele>
        <time>2021-11-21T12:48:07.669Z</time>
      </trkpt>
      <trkpt lat="47.556066" lon="7.950941">
        <ele>290.025490</ele>
        <time>2021-11-21T12:48:12.595Z</time>
      </trkpt>
      <trkpt lat="47.555919" lon="7.950621">
        <ele>290.235539</ele>
        <time>2021-11-21T12:48:17.511Z</time>
      </trkpt>
      <trkpt lat="47.555760" lon="7.950281">
        <ele>290.459996</ele>
        <time>2021-11-21T12:48:22.772Z</time>
      </trkpt>
      <trkpt lat="47.555651" lon="7.950049">
        <ele>290.613387</ele>
        <time>2021-11-21T12:48:26.283Z</time>
      </trkpt>
      <trkpt lat="47.555594" lon="7.949924">
        <ele>290.695248</ele>
        <time>2021-11-21T12:48:28.228Z</time>
      </trkpt>
      <trkpt lat="47.555472" lon="7.949652">
        <ele>290.872466</ele>
        <time>2021-11-21T12:48:32.304Z</time>
      </trkpt>
      <trkpt lat="47.555429" lon="7.949557">
        <ele>290.934537</ele>
        <time>2021-11-21T12:48:33.799Z</time>
      </trkpt>
      <trkpt lat="47.555388" lon="7.949465">
        <ele>290.987580</ele>
        <time>2021-11-21T12:48:35.190Z</time>
      </trkpt>
      <trkpt lat="47.555335" lon="7.949348">
        <ele>291.025363</ele>
        <time>2021-11-21T12:48:36.866Z</time>
      </trkpt>
      <trkpt lat="47.555270" lon="7.949203">
        <ele>291.072037</ele>
        <time>2021-11-21T12:48:38.947Z</time>
      </trkpt>
      <trkpt lat="47.554929" lon="7.948424">
        <ele>291.321003</ele>
        <time>2021-11-21T12:48:49.719Z</time>
      </trkpt>
      <trkpt lat="47.554900" lon="7.948352">
        <ele>291.343485</ele>
        <time>2021-11-21T12:48:50.633Z</time>
      </trkpt>
      <trkpt lat="47.554846" lon="7.948223">
        <ele>291.384188</ele>
        <time>2021-11-21T12:48:52.347Z</time>
      </trkpt>
      <trkpt lat="47.554749" lon="7.947993">
        <ele>291.456910</ele>
        <time>2021-11-21T12:48:55.218Z</time>
      </trkpt>
      <trkpt lat="47.554731" lon="7.947945">
        <ele>291.471634</ele>
        <time>2021-11-21T12:48:55.750Z</time>
      </trkpt>
      <trkpt lat="47.554614" lon="7.947707">
        <ele>291.550585</ele>
        <time>2021-11-21T12:48:58.790Z</time>
      </trkpt>
      <trkpt lat="47.554563" lon="7.947632">
        <ele>291.579133</ele>
        <time>2021-11-21T12:48:59.881Z</time>
      </trkpt>
      <trkpt lat="47.554517" lon="7.947576">
        <ele>291.602787</ele>
        <time>2021-11-21T12:49:00.739Z</time>
      </trkpt>
      <trkpt lat="47.554475" lon="7.947529">
        <ele>291.623698</ele>
        <time>2021-11-21T12:49:01.460Z</time>
      </trkpt>
      <trkpt lat="47.554446" lon="7.947485">
        <ele>291.640188</ele>
        <time>2021-11-21T12:49:02.056Z</time>
      </trkpt>
      <trkpt lat="47.554411" lon="7.947434">
        <ele>291.659691</ele>
        <time>2021-11-21T12:49:02.779Z</time>
      </trkpt>
      <trkpt lat="47.554372" lon="7.947483">
        <ele>291.680007</ele>
        <time>2021-11-21T12:49:04.688Z</time>
      </trkpt>
      <trkpt lat="47.554282" lon="7.947594">
        <ele>291.668104</ele>
        <time>2021-11-21T12:49:09.148Z</time>
      </trkpt>
      <trkpt lat="47.554138" lon="7.947710">
        <ele>291.610359</ele>
        <time>2021-11-21T12:49:15.165Z</time>
      </trkpt>
      <trkpt lat="47.553758" lon="7.948048">
        <ele>291.454214</ele>
        <time>2021-11-21T12:49:31.378Z</time>
      </trkpt>
      <trkpt lat="47.553637" lon="7.948167">
        <ele>291.403049</ele>
        <time>2021-11-21T12:49:36.667Z</time>
      </trkpt>
      <trkpt lat="47.553368" lon="7.948399">
        <ele>291.293394</ele>
        <time>2021-11-21T12:49:58.284Z</time>
      </trkpt>
      <trkpt lat="47.553368" lon="7.948399">
        <ele>291.293394</ele>
        <time>2021-11-21T12:49:58.303Z</time>
      </trkpt>
      <trkpt lat="47.553197" lon="7.948543">
        <ele>291.224100</ele>
        <time>2021-11-21T12:50:11.942Z</time>
      </trkpt>
      <trkpt lat="47.552953" lon="7.948775">
        <ele>291.121960</ele>
        <time>2021-11-21T12:50:22.052Z</time>
      </trkpt>
      <trkpt lat="47.552640" lon="7.949107">
        <ele>291.020902</ele>
        <time>2021-11-21T12:50:35.232Z</time>
      </trkpt>
      <trkpt lat="47.552518" lon="7.949236">
        <ele>290.992252</ele>
        <time>2021-11-21T12:50:40.392Z</time>
      </trkpt>
      <trkpt lat="47.552382" lon="7.949119">
        <ele>290.962191</ele>
        <time>2021-11-21T12:50:45.859Z</time>
      </trkpt>
      <trkpt lat="47.552351" lon="7.949099">
        <ele>290.955728</ele>
        <time>2021-11-21T12:50:46.966Z</time>
      </trkpt>
      <trkpt lat="47.552202" lon="7.949003">
        <ele>290.924670</ele>
        <time>2021-11-21T12:50:52.727Z</time>
      </trkpt>
      <trkpt lat="47.552094" lon="7.948926">
        <ele>290.901759</ele>
        <time>2021-11-21T12:50:57.066Z</time>
      </trkpt>
      <trkpt lat="47.552049" lon="7.948982">
        <ele>290.890526</ele>
        <time>2021-11-21T12:50:59.075Z</time>
      </trkpt>
      <trkpt lat="47.552010" lon="7.949039">
        <ele>290.880054</ele>
        <time>2021-11-21T12:51:01.029Z</time>
      </trkpt>
      <trkpt lat="47.551852" lon="7.949294">
        <ele>290.835395</ele>
        <time>2021-11-21T12:51:09.601Z</time>
      </trkpt>
      <trkpt lat="47.551794" lon="7.949387">
        <ele>290.819058</ele>
        <time>2021-11-21T12:51:12.544Z</time>
      </trkpt>
      <trkpt lat="47.551673" lon="7.949634">
        <ele>290.779683</ele>
        <time>2021-11-21T12:51:20.308Z</time>
      </trkpt>
      <trkpt lat="47.551581" lon="7.949830">
        <ele>290.748882</ele>
        <time>2021-11-21T12:51:26.094Z</time>
      </trkpt>
      <trkpt lat="47.551525" lon="7.950027">
        <ele>290.721304</ele>
        <time>2021-11-21T12:51:31.690Z</time>
      </trkpt>
      <trkpt lat="47.551506" lon="7.950255">
        <ele>290.937644</ele>
        <time>2021-11-21T12:51:37.760Z</time>
      </trkpt>
      <trkpt lat="47.551381" lon="7.952341">
        <ele>293.183766</ele>
        <time>2021-11-21T12:52:39.360Z</time>
      </trkpt>
      <trkpt lat="47.551339" lon="7.952761">
        <ele>293.656615</ele>
        <time>2021-11-21T12:52:52.755Z</time>
      </trkpt>
      <trkpt lat="47.551334" lon="7.952777">
        <ele>293.680784</ele>
        <time>2021-11-21T12:52:53.368Z</time>
      </trkpt>
      <trkpt lat="47.551295" lon="7.952900">
        <ele>293.867061</ele>
        <time>2021-11-21T12:52:58.005Z</time>
      </trkpt>
      <trkpt lat="47.551254" lon="7.952986">
        <ele>294.011386</ele>
        <time>2021-11-21T12:53:00.245Z</time>
      </trkpt>
      <trkpt lat="47.550967" lon="7.953063">
        <ele>294.603739</ele>
        <time>2021-11-21T12:53:09.243Z</time>
      </trkpt>
      <trkpt lat="47.550656" lon="7.953072">
        <ele>295.235475</ele>
        <time>2021-11-21T12:53:18.421Z</time>
      </trkpt>
      <trkpt lat="47.550567" lon="7.953069">
        <ele>295.416273</ele>
        <time>2021-11-21T12:53:21.289Z</time>
      </trkpt>
      <trkpt lat="47.549687" lon="7.953071">
        <ele>297.203483</ele>
        <time>2021-11-21T12:53:45.158Z</time>
      </trkpt>
      <trkpt lat="47.549673" lon="7.953076">
        <ele>297.230783</ele>
        <time>2021-11-21T12:53:45.894Z</time>
      </trkpt>
      <trkpt lat="47.549640" lon="7.953086">
        <ele>297.261108</ele>
        <time>2021-11-21T12:53:46.762Z</time>
      </trkpt>
      <trkpt lat="47.549442" lon="7.953195">
        <ele>297.451276</ele>
        <time>2021-11-21T12:53:51.807Z</time>
      </trkpt>
      <trkpt lat="47.549296" lon="7.953268">
        <ele>297.590004</ele>
        <time>2021-11-21T12:53:55.774Z</time>
      </trkpt>
      <trkpt lat="47.548335" lon="7.953779">
        <ele>298.509233</ele>
        <time>2021-11-21T12:54:19.418Z</time>
      </trkpt>
      <trkpt lat="47.548251" lon="7.953895">
        <ele>298.612617</ele>
        <time>2021-11-21T12:54:22.383Z</time>
      </trkpt>
      <trkpt lat="47.548115" lon="7.953729">
        <ele>298.771260</ele>
        <time>2021-11-21T12:54:25.224Z</time>
      </trkpt>
      <trkpt lat="47.547994" lon="7.953584">
        <ele>298.878222</ele>
        <time>2021-11-21T12:54:27.747Z</time>
      </trkpt>
      <trkpt lat="47.547871" lon="7.953437">
        <ele>298.945410</ele>
        <time>2021-11-21T12:54:30.264Z</time>
      </trkpt>
      <trkpt lat="47.547797" lon="7.953355">
        <ele>298.984699</ele>
        <time>2021-11-21T12:54:31.715Z</time>
      </trkpt>
      <trkpt lat="47.547624" lon="7.953160">
        <ele>299.077119</ele>
        <time>2021-11-21T12:54:35.187Z</time>
      </trkpt>
      <trkpt lat="47.547550" lon="7.953078">
        <ele>299.116408</ele>
        <time>2021-11-21T12:54:36.719Z</time>
      </trkpt>
      <trkpt lat="47.547458" lon="7.952975">
        <ele>299.165435</ele>
        <time>2021-11-21T12:54:38.746Z</time>
      </trkpt>
      <trkpt lat="47.547400" lon="7.952910">
        <ele>299.196355</ele>
        <time>2021-11-21T12:54:40.043Z</time>
      </trkpt>
      <trkpt lat="47.547090" lon="7.952543">
        <ele>299.365066</ele>
        <time>2021-11-21T12:54:46.524Z</time>
      </trkpt>
      <trkpt lat="47.546935" lon="7.952372">
        <ele>299.447230</ele>
        <time>2021-11-21T12:54:49.416Z</time>
      </trkpt>
      <trkpt lat="47.546776" lon="7.952185">
        <ele>299.533542</ele>
        <time>2021-11-21T12:54:52.740Z</time>
      </trkpt>
      <trkpt lat="47.546695" lon="7.952091">
        <ele>299.577288</ele>
        <time>2021-11-21T12:54:54.548Z</time>
      </trkpt>
      <trkpt lat="47.546634" lon="7.952024">
        <ele>299.609572</ele>
        <time>2021-11-21T12:54:55.990Z</time>
      </trkpt>
      <trkpt lat="47.546421" lon="7.951793">
        <ele>299.607484</ele>
        <time>2021-11-21T12:55:00.402Z</time>
      </trkpt>
      <trkpt lat="47.546231" lon="7.951558">
        <ele>299.601872</ele>
        <time>2021-11-21T12:55:04.955Z</time>
      </trkpt>
      <trkpt lat="47.546212" lon="7.951535">
        <ele>299.601316</ele>
        <time>2021-11-21T12:55:05.200Z</time>
      </trkpt>
      <trkpt lat="47.546135" lon="7.951406">
        <ele>299.598680</ele>
        <time>2021-11-21T12:55:07.009Z</time>
      </trkpt>
      <trkpt lat="47.545886" lon="7.951110">
        <ele>299.591442</ele>
        <time>2021-11-21T12:55:11.829Z</time>
      </trkpt>
      <trkpt lat="47.545824" lon="7.951061">
        <ele>299.589848</ele>
        <time>2021-11-21T12:55:12.971Z</time>
      </trkpt>
      <trkpt lat="47.545759" lon="7.950982">
        <ele>299.587942</ele>
        <time>2021-11-21T12:55:14.377Z</time>
      </trkpt>
      <trkpt lat="47.545727" lon="7.950947">
        <ele>299.587040</ele>
        <time>2021-11-21T12:55:15.178Z</time>
      </trkpt>
      <trkpt lat="47.545625" lon="7.950829">
        <ele>299.584106</ele>
        <time>2021-11-21T12:55:16.733Z</time>
      </trkpt>
      <trkpt lat="47.545567" lon="7.950765">
        <ele>299.582466</ele>
        <time>2021-11-21T12:55:17.766Z</time>
      </trkpt>
      <trkpt lat="47.545494" lon="7.950684">
        <ele>299.580398</ele>
        <time>2021-11-21T12:55:19.134Z</time>
      </trkpt>
      <trkpt lat="47.545434" lon="7.950668">
        <ele>299.579016</ele>
        <time>2021-11-21T12:55:20.220Z</time>
      </trkpt>
      <trkpt lat="47.545166" lon="7.950366">
        <ele>299.557806</ele>
        <time>2021-11-21T12:55:24.560Z</time>
      </trkpt>
      <trkpt lat="47.544901" lon="7.950044">
        <ele>299.454898</ele>
        <time>2021-11-21T12:55:28.693Z</time>
      </trkpt>
      <trkpt lat="47.544521" lon="7.949558">
        <ele>299.304164</ele>
        <time>2021-11-21T12:55:34.883Z</time>
      </trkpt>
      <trkpt lat="47.544239" lon="7.949202">
        <ele>299.192919</ele>
        <time>2021-11-21T12:55:39.790Z</time>
      </trkpt>
      <trkpt lat="47.543864" lon="7.948694">
        <ele>299.040345</ele>
        <time>2021-11-21T12:55:47.754Z</time>
      </trkpt>
      <trkpt lat="47.543760" lon="7.948548">
        <ele>299.265273</ele>
        <time>2021-11-21T12:55:49.996Z</time>
      </trkpt>
      <trkpt lat="47.543669" lon="7.948416">
        <ele>299.518847</ele>
        <time>2021-11-21T12:55:52.227Z</time>
      </trkpt>
      <trkpt lat="47.543579" lon="7.948287">
        <ele>299.768182</ele>
        <time>2021-11-21T12:55:55.714Z</time>
      </trkpt>
      <trkpt lat="47.543532" lon="7.948214">
        <ele>299.903764</ele>
        <time>2021-11-21T12:55:56.840Z</time>
      </trkpt>
      <trkpt lat="47.543435" lon="7.948000">
        <ele>300.250203</ele>
        <time>2021-11-21T12:55:59.902Z</time>
      </trkpt>
      <trkpt lat="47.543407" lon="7.947938">
        <ele>300.350460</ele>
        <time>2021-11-21T12:56:01.759Z</time>
      </trkpt>
      <trkpt lat="47.543280" lon="7.947656">
        <ele>300.806073</ele>
        <time>2021-11-21T12:56:06.246Z</time>
      </trkpt>
      <trkpt lat="47.543142" lon="7.947250">
        <ele>301.417007</ele>
        <time>2021-11-21T12:56:13.710Z</time>
      </trkpt>
      <trkpt lat="47.543086" lon="7.947052">
        <ele>301.705533</ele>
        <time>2021-11-21T12:56:17.139Z</time>
      </trkpt>
      <trkpt lat="47.543056" lon="7.946935">
        <ele>301.873743</ele>
        <time>2021-11-21T12:56:19.981Z</time>
      </trkpt>
      <trkpt lat="47.543045" lon="7.946881">
        <ele>301.949552</ele>
        <time>2021-11-21T12:56:21.138Z</time>
      </trkpt>
      <trkpt lat="47.542982" lon="7.946547">
        <ele>302.415644</ele>
        <time>2021-11-21T12:56:26.537Z</time>
      </trkpt>
      <trkpt lat="47.542974" lon="7.946495">
        <ele>302.487324</ele>
        <time>2021-11-21T12:56:28.178Z</time>
      </trkpt>
      <trkpt lat="47.542960" lon="7.946400">
        <ele>302.618497</ele>
        <time>2021-11-21T12:56:30.244Z</time>
      </trkpt>
      <trkpt lat="47.542916" lon="7.945730">
        <ele>303.621579</ele>
        <time>2021-11-21T12:56:42.909Z</time>
      </trkpt>
      <trkpt lat="47.542913" lon="7.945267">
        <ele>304.311528</ele>
        <time>2021-11-21T12:56:51.404Z</time>
      </trkpt>
      <trkpt lat="47.543007" lon="7.943867">
        <ele>306.407963</ele>
        <time>2021-11-21T12:57:12.571Z</time>
      </trkpt>
      <trkpt lat="47.543161" lon="7.942213">
        <ele>306.444635</ele>
        <time>2021-11-21T12:57:30.978Z</time>
      </trkpt>
      <trkpt lat="47.543435" lon="7.940670">
        <ele>305.818825</ele>
        <time>2021-11-21T12:57:43.926Z</time>
      </trkpt>
      <trkpt lat="47.543826" lon="7.939433">
        <ele>304.330236</ele>
        <time>2021-11-21T12:57:54.327Z</time>
      </trkpt>
      <trkpt lat="47.544472" lon="7.937932">
        <ele>302.284556</ele>
        <time>2021-11-21T12:58:07.651Z</time>
      </trkpt>
      <trkpt lat="47.544705" lon="7.937395">
        <ele>301.518883</ele>
        <time>2021-11-21T12:58:12.490Z</time>
      </trkpt>
      <trkpt lat="47.544903" lon="7.936917">
        <ele>300.846221</ele>
        <time>2021-11-21T12:58:16.751Z</time>
      </trkpt>
      <trkpt lat="47.545074" lon="7.936484">
        <ele>300.244640</ele>
        <time>2021-11-21T12:58:20.582Z</time>
      </trkpt>
      <trkpt lat="47.545457" lon="7.935110">
        <ele>299.071089</ele>
        <time>2021-11-21T12:58:31.950Z</time>
      </trkpt>
      <trkpt lat="47.545674" lon="7.933625">
        <ele>298.344300</ele>
        <time>2021-11-21T12:58:45.030Z</time>
      </trkpt>
      <trkpt lat="47.545702" lon="7.933290">
        <ele>298.544918</ele>
        <time>2021-11-21T12:58:48.610Z</time>
      </trkpt>
      <trkpt lat="47.545724" lon="7.932758">
        <ele>298.861689</ele>
        <time>2021-11-21T12:58:54.877Z</time>
      </trkpt>
      <trkpt lat="47.545721" lon="7.931992">
        <ele>299.316946</ele>
        <time>2021-11-21T12:59:04.917Z</time>
      </trkpt>
      <trkpt lat="47.545696" lon="7.931497">
        <ele>299.611957</ele>
        <time>2021-11-21T12:59:12.122Z</time>
      </trkpt>
      <trkpt lat="47.545661" lon="7.930955">
        <ele>300.138554</ele>
        <time>2021-11-21T12:59:20.817Z</time>
      </trkpt>
      <trkpt lat="47.545563" lon="7.929641">
        <ele>301.681549</ele>
        <time>2021-11-21T12:59:43.157Z</time>
      </trkpt>
      <trkpt lat="47.545475" lon="7.928419">
        <ele>302.561322</ele>
        <time>2021-11-21T12:59:59.460Z</time>
      </trkpt>
      <trkpt lat="47.545421" lon="7.927686">
        <ele>301.722720</ele>
        <time>2021-11-21T13:00:05.563Z</time>
      </trkpt>
      <trkpt lat="47.545406" lon="7.927306">
        <ele>301.289802</ele>
        <time>2021-11-21T13:00:08.467Z</time>
      </trkpt>
      <trkpt lat="47.545407" lon="7.927001">
        <ele>300.942917</ele>
        <time>2021-11-21T13:00:10.754Z</time>
      </trkpt>
      <trkpt lat="47.545409" lon="7.926773">
        <ele>300.683587</ele>
        <time>2021-11-21T13:00:12.383Z</time>
      </trkpt>
      <trkpt lat="47.545417" lon="7.925848">
        <ele>299.420432</ele>
        <time>2021-11-21T13:00:18.718Z</time>
      </trkpt>
      <trkpt lat="47.545446" lon="7.925350">
        <ele>298.158494</ele>
        <time>2021-11-21T13:00:22.010Z</time>
      </trkpt>
      <trkpt lat="47.545466" lon="7.924880">
        <ele>296.969561</ele>
        <time>2021-11-21T13:00:25.063Z</time>
      </trkpt>
      <trkpt lat="47.545481" lon="7.924396">
        <ele>295.746351</ele>
        <time>2021-11-21T13:00:28.146Z</time>
      </trkpt>
      <trkpt lat="47.545521" lon="7.923709">
        <ele>294.005489</ele>
        <time>2021-11-21T13:00:32.672Z</time>
      </trkpt>
      <trkpt lat="47.545536" lon="7.923407">
        <ele>293.240990</ele>
        <time>2021-11-21T13:00:35.061Z</time>
      </trkpt>
      <trkpt lat="47.545553" lon="7.923142">
        <ele>292.858922</ele>
        <time>2021-11-21T13:00:36.782Z</time>
      </trkpt>
      <trkpt lat="47.545587" lon="7.922895">
        <ele>292.585549</ele>
        <time>2021-11-21T13:00:39.183Z</time>
      </trkpt>
      <trkpt lat="47.545641" lon="7.922610">
        <ele>292.264535</ele>
        <time>2021-11-21T13:00:41.182Z</time>
      </trkpt>
      <trkpt lat="47.545690" lon="7.922369">
        <ele>291.991584</ele>
        <time>2021-11-21T13:00:43.873Z</time>
      </trkpt>
      <trkpt lat="47.545699" lon="7.922325">
        <ele>291.941725</ele>
        <time>2021-11-21T13:00:44.134Z</time>
      </trkpt>
      <trkpt lat="47.545714" lon="7.922249">
        <ele>291.855856</ele>
        <time>2021-11-21T13:00:44.724Z</time>
      </trkpt>
      <trkpt lat="47.545778" lon="7.921947">
        <ele>291.512591</ele>
        <time>2021-11-21T13:00:47.880Z</time>
      </trkpt>
      <trkpt lat="47.545810" lon="7.921755">
        <ele>291.298124</ele>
        <time>2021-11-21T13:00:49.238Z</time>
      </trkpt>
      <trkpt lat="47.545881" lon="7.921096">
        <ele>290.574428</ele>
        <time>2021-11-21T13:00:54.586Z</time>
      </trkpt>
      <trkpt lat="47.545913" lon="7.920765">
        <ele>290.211814</ele>
        <time>2021-11-21T13:00:57.453Z</time>
      </trkpt>
      <trkpt lat="47.545973" lon="7.920313">
        <ele>290.073024</ele>
        <time>2021-11-21T13:01:02.601Z</time>
      </trkpt>
      <trkpt lat="47.546128" lon="7.919617">
        <ele>289.881456</ele>
        <time>2021-11-21T13:01:09.063Z</time>
      </trkpt>
      <trkpt lat="47.546262" lon="7.919081">
        <ele>289.732055</ele>
        <time>2021-11-21T13:01:15.062Z</time>
      </trkpt>
      <trkpt lat="47.546821" lon="7.916867">
        <ele>289.009475</ele>
        <time>2021-11-21T13:01:35.815Z</time>
      </trkpt>
      <trkpt lat="47.547032" lon="7.916218">
        <ele>288.768871</ele>
        <time>2021-11-21T13:01:42.306Z</time>
      </trkpt>
      <trkpt lat="47.547091" lon="7.916039">
        <ele>288.702337</ele>
        <time>2021-11-21T13:01:44.123Z</time>
      </trkpt>
      <trkpt lat="47.547113" lon="7.915971">
        <ele>288.677150</ele>
        <time>2021-11-21T13:01:44.722Z</time>
      </trkpt>
      <trkpt lat="47.547423" lon="7.915080">
        <ele>288.689479</ele>
        <time>2021-11-21T13:01:54.366Z</time>
      </trkpt>
      <trkpt lat="47.547994" lon="7.913433">
        <ele>288.900795</ele>
        <time>2021-11-21T13:02:14.086Z</time>
      </trkpt>
      <trkpt lat="47.548027" lon="7.913334">
        <ele>288.953952</ele>
        <time>2021-11-21T13:02:15.445Z</time>
      </trkpt>
      <trkpt lat="47.548412" lon="7.912168">
        <ele>289.834814</ele>
        <time>2021-11-21T13:02:31.848Z</time>
      </trkpt>
      <trkpt lat="47.549012" lon="7.910340">
        <ele>291.314045</ele>
        <time>2021-11-21T13:02:58.773Z</time>
      </trkpt>
      <trkpt lat="47.549102" lon="7.910058">
        <ele>291.567940</ele>
        <time>2021-11-21T13:03:02.841Z</time>
      </trkpt>
      <trkpt lat="47.549195" lon="7.909756">
        <ele>291.838123</ele>
        <time>2021-11-21T13:03:07.089Z</time>
      </trkpt>
      <trkpt lat="47.549306" lon="7.909388">
        <ele>292.166198</ele>
        <time>2021-11-21T13:03:12.177Z</time>
      </trkpt>
      <trkpt lat="47.549358" lon="7.909215">
        <ele>292.320339</ele>
        <time>2021-11-21T13:03:14.606Z</time>
      </trkpt>
      <trkpt lat="47.549520" lon="7.908678">
        <ele>292.799090</ele>
        <time>2021-11-21T13:03:21.983Z</time>
      </trkpt>
      <trkpt lat="47.549539" lon="7.908625">
        <ele>292.847935</ele>
        <time>2021-11-21T13:03:22.698Z</time>
      </trkpt>
      <trkpt lat="47.550391" lon="7.905896">
        <ele>297.359169</ele>
        <time>2021-11-21T13:04:09.781Z</time>
      </trkpt>
      <trkpt lat="47.550497" lon="7.905558">
        <ele>298.284063</ele>
        <time>2021-11-21T13:04:17.324Z</time>
      </trkpt>
      <trkpt lat="47.550283" lon="7.905413">
        <ele>299.149256</ele>
        <time>2021-11-21T13:04:25.522Z</time>
      </trkpt>
      <trkpt lat="47.550067" lon="7.905245">
        <ele>300.046207</ele>
        <time>2021-11-21T13:04:34.264Z</time>
      </trkpt>
      <trkpt lat="47.549867" lon="7.905155">
        <ele>300.814721</ele>
        <time>2021-11-21T13:04:42.081Z</time>
      </trkpt>
      <trkpt lat="47.549868" lon="7.905010">
        <ele>301.174572</ele>
        <time>2021-11-21T13:04:45.494Z</time>
      </trkpt>
      <trkpt lat="47.550025" lon="7.904774">
        <ele>301.996889</ele>
        <time>2021-11-21T13:04:53.825Z</time>
      </trkpt>
      <trkpt lat="47.550302" lon="7.904164">
        <ele>303.826750</ele>
        <time>2021-11-21T13:05:12.483Z</time>
      </trkpt>
      <trkpt lat="47.550498" lon="7.903445">
        <ele>305.768515</ele>
        <time>2021-11-21T13:05:32.055Z</time>
      </trkpt>
      <trkpt lat="47.550688" lon="7.902451">
        <ele>308.355490</ele>
        <time>2021-11-21T13:05:54.603Z</time>
      </trkpt>
      <trkpt lat="47.550757" lon="7.901591">
        <ele>310.608869</ele>
        <time>2021-11-21T13:06:14.399Z</time>
      </trkpt>
      <trkpt lat="47.550769" lon="7.901362">
        <ele>311.262370</ele>
        <time>2021-11-21T13:06:20.307Z</time>
      </trkpt>
      <trkpt lat="47.550801" lon="7.900244">
        <ele>314.446113</ele>
        <time>2021-11-21T13:06:44.704Z</time>
      </trkpt>
      <trkpt lat="47.550819" lon="7.898109">
        <ele>319.738122</ele>
        <time>2021-11-21T13:07:31.745Z</time>
      </trkpt>
      <trkpt lat="47.550648" lon="7.896481">
        <ele>323.153044</ele>
        <time>2021-11-21T13:07:59.400Z</time>
      </trkpt>
      <trkpt lat="47.550639" lon="7.896345">
        <ele>323.266006</ele>
        <time>2021-11-21T13:08:01.775Z</time>
      </trkpt>
      <trkpt lat="47.550660" lon="7.896255">
        <ele>323.344725</ele>
        <time>2021-11-21T13:08:02.576Z</time>
      </trkpt>
      <trkpt lat="47.550838" lon="7.895509">
        <ele>323.998799</ele>
        <time>2021-11-21T13:08:12.743Z</time>
      </trkpt>
      <trkpt lat="47.550878" lon="7.895158">
        <ele>324.293056</ele>
        <time>2021-11-21T13:08:16.806Z</time>
      </trkpt>
      <trkpt lat="47.550908" lon="7.894308">
        <ele>324.996658</ele>
        <time>2021-11-21T13:08:27.278Z</time>
      </trkpt>
      <trkpt lat="47.550892" lon="7.893176">
        <ele>327.063568</ele>
        <time>2021-11-21T13:08:41.996Z</time>
      </trkpt>
      <trkpt lat="47.550904" lon="7.891725">
        <ele>330.458455</ele>
        <time>2021-11-21T13:09:11.758Z</time>
      </trkpt>
      <trkpt lat="47.550915" lon="7.890600">
        <ele>334.287581</ele>
        <time>2021-11-21T13:09:40.598Z</time>
      </trkpt>
      <trkpt lat="47.550833" lon="7.889069">
        <ele>340.670609</ele>
        <time>2021-11-21T13:10:23.231Z</time>
      </trkpt>
      <trkpt lat="47.550831" lon="7.888611">
        <ele>342.574155</ele>
        <time>2021-11-21T13:10:35.801Z</time>
      </trkpt>
      <trkpt lat="47.550789" lon="7.887816">
        <ele>345.723404</ele>
        <time>2021-11-21T13:10:56.413Z</time>
      </trkpt>
      <trkpt lat="47.550758" lon="7.887295">
        <ele>347.787255</ele>
        <time>2021-11-21T13:11:10.235Z</time>
      </trkpt>
      <trkpt lat="47.550677" lon="7.886476">
        <ele>351.053563</ele>
        <time>2021-11-21T13:11:31.723Z</time>
      </trkpt>
      <trkpt lat="47.550548" lon="7.885799">
        <ele>353.681999</ele>
        <time>2021-11-21T13:11:48.927Z</time>
      </trkpt>
      <trkpt lat="47.550391" lon="7.885109">
        <ele>355.940159</ele>
        <time>2021-11-21T13:12:06.564Z</time>
      </trkpt>
      <trkpt lat="47.550332" lon="7.884727">
        <ele>357.155445</ele>
        <time>2021-11-21T13:12:15.254Z</time>
      </trkpt>
      <trkpt lat="47.550234" lon="7.883221">
        <ele>361.743099</ele>
        <time>2021-11-21T13:12:48.086Z</time>
      </trkpt>
      <trkpt lat="47.549927" lon="7.881490">
        <ele>365.983258</ele>
        <time>2021-11-21T13:13:20.350Z</time>
      </trkpt>
      <trkpt lat="47.549726" lon="7.880786">
        <ele>367.810278</ele>
        <time>2021-11-21T13:13:36.326Z</time>
      </trkpt>
      <trkpt lat="47.549327" lon="7.879547">
        <ele>371.753126</ele>
        <time>2021-11-21T13:14:06.110Z</time>
      </trkpt>
      <trkpt lat="47.549318" lon="7.879398">
        <ele>372.182784</ele>
        <time>2021-11-21T13:14:09.299Z</time>
      </trkpt>
      <trkpt lat="47.549140" lon="7.879391">
        <ele>372.940493</ele>
        <time>2021-11-21T13:14:16.169Z</time>
      </trkpt>
      <trkpt lat="47.548718" lon="7.879258">
        <ele>374.776406</ele>
        <time>2021-11-21T13:14:29.840Z</time>
      </trkpt>
      <trkpt lat="47.548422" lon="7.878959">
        <ele>375.787496</ele>
        <time>2021-11-21T13:14:40.486Z</time>
      </trkpt>
      <trkpt lat="47.548234" lon="7.878638">
        <ele>376.333312</ele>
        <time>2021-11-21T13:14:48.918Z</time>
      </trkpt>
      <trkpt lat="47.547992" lon="7.877974">
        <ele>377.302458</ele>
        <time>2021-11-21T13:15:02.016Z</time>
      </trkpt>
      <trkpt lat="47.547574" lon="7.876801">
        <ele>378.747075</ele>
        <time>2021-11-21T13:15:15.723Z</time>
      </trkpt>
      <trkpt lat="47.547126" lon="7.875801">
        <ele>378.400328</ele>
        <time>2021-11-21T13:15:26.644Z</time>
      </trkpt>
      <trkpt lat="47.546803" lon="7.875150">
        <ele>378.166906</ele>
        <time>2021-11-21T13:15:33.482Z</time>
      </trkpt>
      <trkpt lat="47.547126" lon="7.875801">
        <ele>377.748370</ele>
        <time>2021-11-21T13:15:41.148Z</time>
      </trkpt>
      <trkpt lat="47.547544" lon="7.876734">
        <ele>376.768850</ele>
        <time>2021-11-21T13:15:50.717Z</time>
      </trkpt>
      <trkpt lat="47.547126" lon="7.875801">
        <ele>375.789329</ele>
        <time>2021-11-21T13:15:59.791Z</time>
      </trkpt>
      <trkpt lat="47.546309" lon="7.874154">
        <ele>369.612977</ele>
        <time>2021-11-21T13:16:13.191Z</time>
      </trkpt>
      <trkpt lat="47.546135" lon="7.873859">
        <ele>368.381718</ele>
        <time>2021-11-21T13:16:15.574Z</time>
      </trkpt>
      <trkpt lat="47.546077" lon="7.873763">
        <ele>367.976791</ele>
        <time>2021-11-21T13:16:16.385Z</time>
      </trkpt>
      <trkpt lat="47.545934" lon="7.873549">
        <ele>367.319095</ele>
        <time>2021-11-21T13:16:18.190Z</time>
      </trkpt>
      <trkpt lat="47.545746" lon="7.873302">
        <ele>367.319095</ele>
        <time>2021-11-21T13:16:20.478Z</time>
      </trkpt>
      <trkpt lat="47.545515" lon="7.873015">
        <ele>367.319095</ele>
        <time>2021-11-21T13:16:23.176Z</time>
      </trkpt>
      <trkpt lat="47.545478" lon="7.872968">
        <ele>367.319095</ele>
        <time>2021-11-21T13:16:23.618Z</time>
      </trkpt>
      <trkpt lat="47.545375" lon="7.872836">
        <ele>367.319095</ele>
        <time>2021-11-21T13:16:24.811Z</time>
      </trkpt>
      <trkpt lat="47.545131" lon="7.872664">
        <ele>367.319095</ele>
        <time>2021-11-21T13:16:27.283Z</time>
      </trkpt>
      <trkpt lat="47.544883" lon="7.872555">
        <ele>367.319095</ele>
        <time>2021-11-21T13:16:29.632Z</time>
      </trkpt>
      <trkpt lat="47.544390" lon="7.872423">
        <ele>367.319095</ele>
        <time>2021-11-21T13:16:34.257Z</time>
      </trkpt>
      <trkpt lat="47.543877" lon="7.872332">
        <ele>367.319095</ele>
        <time>2021-11-21T13:16:39.201Z</time>
      </trkpt>
    </trkseg>
  </trk>
</gpx>